Date StartTime U_cm/s V_cm/s W_cm/s Ustd_cm/s Vstd_cm/s Wstd_cm/s Uvar_(cm/s)^2 Vvar_(cm/s)^2 Wvar_(cm/s)^2 KE_(m/s)^2 TurbulentKE_(m/s)^2 HorizWindSpeed_cm/s FrictionSpeec_cm/s DragCoef SpeedOfSound_m/s SonicTemperature_C Pressure_mb 
11/03/2013  00:00:00     -218.457      237.425      -56.979      162.105      111.777       88.383    26278.159    12494.129     7811.606        7.695        2.329      322.636       78.467        0.059      336.203        7.343      858.353
11/03/2013  00:01:00     -114.051      280.386      -28.610       89.557      122.514       59.480     8020.461    15009.605     3537.878        5.950        1.328      302.695       59.070        0.038      336.178        7.303      858.377
11/03/2013  00:02:00     -103.698      277.967      -16.573      124.958      143.765       81.575    15614.393    20668.504     6654.499        6.561        2.147      296.679       88.818        0.090      336.165        7.281      858.367
11/03/2013  00:03:00      -11.552      331.464      -31.199       99.027      184.047       65.939     9806.435    33873.469     4347.886        7.949        2.401      331.665       83.766        0.064      336.133        7.227      858.338
11/03/2013  00:04:00      -41.175      293.750        5.176      114.430      165.161       90.709    13094.192    27278.115     8228.202        6.830        2.430      296.622       93.922        0.100      336.130        7.222      858.394
11/03/2013  00:05:00     -106.987      384.809      -54.316       98.206      153.270       75.724     9644.496    23491.766     5734.196       10.067        1.944      399.404       71.156        0.032      336.129        7.220      858.417
11/03/2013  00:06:00     -122.061      351.115      -21.573      146.773      215.313       83.963    21542.387    46359.488     7049.856       10.679        3.748      371.726      103.124        0.077      336.113        7.194      858.431
11/03/2013  00:07:00     -119.101      501.295      -52.773      135.784      183.416       80.388    18437.302    33641.444     6462.288       16.339        2.927      515.249       82.630        0.026      336.085        7.147      858.423
11/03/2013  00:08:00     -147.740      408.310      -37.960      153.760      211.311       88.323    23642.222    44652.159     7800.991       13.303        3.805      434.217       98.944        0.052      336.103        7.178      858.431
11/03/2013  00:09:00     -104.586      435.604      -42.884      114.495      193.881       70.974    13109.209    37589.947     5037.367       12.912        2.787      447.983       81.798        0.033      336.073        7.127      858.443
11/03/2013  00:10:00     -103.422      493.782      -61.306      107.646      211.371       73.837    11587.752    44677.556     5451.930       15.999        3.086      504.497       80.043        0.025      336.055        7.096      858.468
11/03/2013  00:11:00     -143.875      325.243      -46.345      157.563      163.044       85.845    24826.007    26583.428     7369.300        9.369        2.939      355.644       84.899        0.057      336.046        7.083      858.473
11/03/2013  00:12:00      -92.263      325.212      -16.999       88.541      235.544       76.602     7839.496    55480.911     5867.881        9.186        3.459      338.046      101.770        0.091      336.050        7.088      858.458
11/03/2013  00:13:00      -70.803      239.174      -14.905       95.181      150.620       69.908     9059.362    22686.459     4887.132        4.953        1.832      249.434       76.157        0.093      336.032        7.060      858.473
11/03/2013  00:14:00     -138.072      375.364      -58.728      124.675      161.771       72.951    15543.953    26169.904     5321.868       10.522        2.352      399.953       63.222        0.025      335.980        6.970      858.483
11/03/2013  00:15:00     -231.107      499.340      -67.226      156.279      201.379       90.424    24423.024    40553.437     8176.421       19.020        3.658      550.228       91.027        0.027      335.937        6.899      858.498
11/03/2013  00:16:00      -79.946      394.818      -31.400      129.840      214.691       89.311    16858.434    46092.030     7976.371       11.708        3.546      402.831      100.649        0.062      335.953        6.927      858.519
11/03/2013  00:17:00      -90.877      347.158      -40.930      153.557      142.740       74.963    23579.727    20374.636     5619.466        9.000        2.479      358.856       68.970        0.037      335.928        6.884      858.523
11/03/2013  00:18:00      -99.565      439.880      -45.315      131.926      149.024       78.733    17404.579    22208.270     6198.841       12.563        2.291      451.008       78.133        0.030      335.905        6.845      858.552
11/03/2013  00:19:00     -177.603      338.799      -49.134      142.536      189.547       88.838    20316.555    35927.881     7892.210       10.643        3.207      382.527       88.999        0.054      335.890        6.820      858.554
11/03/2013  00:20:00     -129.467      265.786      -22.473      122.632      168.214       79.125    15038.618    28295.788     6260.766        6.874        2.480      295.641       83.731        0.080      335.913        6.859      858.578
11/03/2013  00:21:00      -89.391      494.717      -58.522      136.596      220.604       79.788    18658.601    48665.963     6366.159       16.491        3.685      502.728       94.040        0.035      335.865        6.779      858.588
11/03/2013  00:22:00     -118.758      483.995      -49.981       96.244      144.847       75.051     9262.922    20980.757     5632.637       14.336        1.794      498.352       61.917        0.015      335.833        6.729      858.557
11/03/2013  00:23:00     -128.451      355.150      -53.068      141.097      136.801       71.391    19908.367    18714.495     5096.738        9.458        2.186      377.665       84.032        0.050      335.842        6.741      858.618
11/03/2013  00:24:00      -50.160      301.390      -29.299      101.471      185.311       66.279    10296.356    34340.220     4392.892        7.161        2.451      305.536       74.884        0.060      335.837        6.732      858.643
11/03/2013  00:25:00     -140.756      351.522      -32.172      129.798      154.406       87.594    16847.579    23841.274     7672.756        9.638        2.418      378.655       74.215        0.038      335.829        6.720      858.660
11/03/2013  00:26:00      -69.753      349.971      -29.968      122.296      144.921       90.383    14956.212    21002.186     8169.128        8.618        2.206      356.855       83.895        0.055      335.840        6.737      858.640
11/03/2013  00:27:00     -186.593      343.071      -52.018      132.462      143.941       72.647    17546.211    20718.987     5277.537        9.937        2.177      390.531       71.150        0.033      335.811        6.689      858.667
11/03/2013  00:28:00     -127.465      279.942      -23.111       92.553      134.283       78.241     8566.074    18031.957     6121.664        6.393        1.636      307.595       70.034        0.052      335.814        6.696      858.674
11/03/2013  00:29:00      -18.466      239.253       -4.261      111.039      165.737       75.443    12329.707    27468.692     5691.690        5.154        2.275      239.964       87.992        0.134      335.841        6.740      858.652
11/03/2013  00:30:00        1.641      505.035      -57.623       98.244      190.054       91.080     9651.908    36120.708     8295.525       15.622        2.703      505.038       82.686        0.027      335.805        6.679      858.649
11/03/2013  00:31:00      -43.399      513.218      -58.343      129.285      177.450       78.929    16714.675    31488.583     6229.743       16.155        2.722      515.050       87.120        0.029      335.790        6.656      858.673
11/03/2013  00:32:00      -54.159      332.945      -34.150       98.864      150.303       63.334     9774.184    22590.862     4011.242        7.566        1.819      337.321       71.870        0.045      335.826        6.714      858.707
11/03/2013  00:33:00      -52.312      476.250      -51.671       99.903      152.559       72.691     9980.591    23274.230     5283.949       13.537        1.927      479.114       74.479        0.024      335.794        6.662      858.672
11/03/2013  00:34:00      -44.281      421.934      -38.640      112.236      176.698       85.084    12596.869    31222.292     7239.248       11.626        2.553      424.251       87.052        0.042      335.791        6.657      858.689
11/03/2013  00:35:00      -17.274      383.487      -47.114       96.516      105.011       74.419     9315.426    11027.317     5538.259        8.773        1.294      383.876       70.882        0.034      335.771        6.623      858.714
11/03/2013  00:36:00       -7.265      310.793      -29.662       81.028      151.921       69.093     6565.502    23079.867     4773.860        6.597        1.721      310.878       84.789        0.074      335.786        6.648      858.698
11/03/2013  00:37:00       34.396      148.678        2.936       74.813      107.784       61.475     5597.026    11617.338     3779.177        2.214        1.050      152.605       66.273        0.189      335.808        6.686      858.704
11/03/2013  00:38:00       27.257      149.663       -2.624       89.135      143.837       74.204     7945.109    20689.146     5506.306        2.864        1.707      152.125       74.027        0.237      335.799        6.672      858.726
11/03/2013  00:39:00      -41.094      371.458      -14.358       90.018      195.591       75.806     8103.208    38255.773     5746.584        9.598        2.605      373.724       89.673        0.058      335.791        6.657      858.742
11/03/2013  00:40:00      -34.265      401.986      -56.791      115.368      181.212       78.608    13309.724    32837.898     6179.266       10.915        2.616      403.443       91.280        0.051      335.782        6.642      858.756
11/03/2013  00:41:00      -50.925      223.896      -12.347      113.577      150.545       74.318    12899.818    22663.684     5523.209        4.697        2.054      229.615       75.984        0.110      335.807        6.682      858.774
11/03/2013  00:42:00      -43.968      314.102      -24.315       99.618      164.730       68.351     9923.649    27136.110     4671.881        7.145        2.087      317.164       80.400        0.064      335.803        6.676      858.768
11/03/2013  00:43:00      -24.967      384.584      -46.275      121.471      173.715       96.874    14755.265    30176.811     9384.531       10.248        2.716      385.394      102.151        0.070      335.759        6.603      858.779
11/03/2013  00:44:00      -84.035      374.021      -31.290      125.686      234.807       65.792    15796.882    55134.208     4328.547       11.158        3.763      383.345       92.487        0.058      335.776        6.631      858.791
11/03/2013  00:45:00      -36.103      253.188      -21.617      111.710      142.362       82.075    12479.169    20267.042     6736.279        5.267        1.974      255.749       85.380        0.111      335.759        6.604      858.815
11/03/2013  00:46:00      -62.529      303.023      -11.086       83.788      189.036       77.269     7020.380    35734.515     5970.520        7.228        2.436      309.408       90.776        0.086      335.753        6.594      858.806
11/03/2013  00:47:00      -18.746      142.845       -7.945       77.722      100.182       59.336     6040.732    10036.357     3520.807        2.021        0.980      144.069       51.033        0.125      335.789        6.655      858.801
11/03/2013  00:48:00       -3.699      141.684       -4.214       98.159      126.915       61.517     9635.161    16107.466     3784.385        2.481        1.476      141.732       52.343        0.136      335.755        6.599      858.840
11/03/2013  00:49:00      -63.579      359.903      -32.335      111.425      164.152       68.467    12415.617    26945.988     4687.771        8.933        2.202      365.476       81.633        0.050      335.706        6.515      858.853
11/03/2013  00:50:00      -76.799      422.349      -44.098       86.955      187.149       65.707     7561.092    35024.802     4317.440       11.655        2.345      429.274       83.331        0.038      335.702        6.508      858.826
11/03/2013  00:51:00      -22.070      187.195      -12.797       94.224      113.545       65.266     8878.111    12892.362     4259.668        3.086        1.302      188.491       70.476        0.140      335.728        6.553      858.827
11/03/2013  00:52:00      -52.021      264.196      -21.839       97.358      137.262       59.745     9478.646    18840.814     3569.468        5.243        1.594      269.269       63.309        0.055      335.733        6.561      858.877
11/03/2013  00:53:00      -63.734      245.690       -7.666      104.547      153.302       76.921    10930.100    23501.652     5916.901        5.241        2.017      253.822       89.234        0.124      335.749        6.587      858.897
11/03/2013  00:54:00      -49.111      403.395      -45.951       88.594      180.196       66.015     7848.818    32470.725     4357.997       10.596        2.234      406.373       76.357        0.035      335.718        6.535      858.908
11/03/2013  00:55:00      -58.608      344.695      -31.755      117.989      149.121       71.131    13921.485    22237.129     5059.560        8.223        2.061      349.642       78.045        0.050      335.744        6.578      858.916
11/03/2013  00:56:00      -28.385      190.981        0.285       91.214      124.875       55.984     8320.072    15593.727     3134.194        3.216        1.352      193.079       59.938        0.096      335.786        6.649      858.914
11/03/2013  00:57:00       -8.601      207.418        1.530      110.995      136.876       68.474    12319.935    18734.934     4688.742        3.942        1.787      207.597       76.149        0.135      335.766        6.616      858.923
11/03/2013  00:58:00       17.926       86.139       18.985       90.659      119.003       68.567     8218.981    14161.714     4701.428        1.759        1.354       87.985       62.493        0.504      335.781        6.643      858.925
11/03/2013  00:59:00      -13.938      219.207       -9.889      109.083      171.024       77.915    11899.142    29249.196     6070.741        4.777        2.361      219.649       88.459        0.162      335.773        6.629      858.928
11/03/2013  01:00:00       -4.059      150.323       -4.354       67.278       90.794       43.756     4526.337     8243.508     1914.579        1.866        0.734      150.377       39.364        0.069      335.800        6.675      858.950
11/03/2013  01:01:00       -3.584      117.981      -14.469       81.824      106.546       40.346     6695.105    11352.042     1627.839        1.691        0.984      118.035       48.002        0.165      335.825        6.716      858.966
11/03/2013  01:02:00      -28.627      372.723      -32.059      102.445      143.725       69.529    10495.057    20656.734     4834.312        8.837        1.799      373.821       74.962        0.040      335.767        6.617      858.998
11/03/2013  01:03:00       44.003      427.110      -53.993       83.040      131.751       69.743     6895.707    17358.212     4864.036       10.819        1.456      429.371       72.214        0.028      335.763        6.611      859.020
11/03/2013  01:04:00       28.001      320.489      -26.101       80.922      142.012       95.018     6548.375    20167.511     9028.463        6.996        1.787      321.710       92.026        0.082      335.760        6.604      859.046
11/03/2013  01:05:00      -29.958      285.099      -31.147       80.820      120.517       61.899     6531.843    14524.272     3831.497        5.401        1.244      286.669       48.607        0.029      335.760        6.606      859.087
11/03/2013  01:06:00      -50.164      361.835      -32.476      100.638      163.794       67.537    10127.994    26828.512     4561.259        8.800        2.076      365.296       77.123        0.045      335.728        6.551      859.091
11/03/2013  01:07:00       29.745      287.365      -21.806      109.392      140.083       74.141    11966.662    19623.187     5496.835        6.051        1.854      288.900       78.387        0.074      335.708        6.517      859.083
11/03/2013  01:08:00       41.025      245.440      -17.303      119.558      184.334       74.710    14294.176    33978.938     5581.587        5.803        2.693      248.845       79.882        0.103      335.692        6.492      859.034
11/03/2013  01:09:00       59.563       97.438       32.368      112.535      114.441       75.185    12664.140    13096.754     5652.824        2.275        1.571      114.201       53.993        0.224      335.701        6.509      859.020
11/03/2013  01:10:00       43.417      225.512       -2.356      103.431      150.596       82.415    10697.991    22679.088     6792.264        4.645        2.008      229.654       77.672        0.114      335.723        6.545      859.054
11/03/2013  01:11:00      -18.315      236.251      -14.088      113.492      157.712       79.487    12880.324    24872.980     6318.123        5.020        2.204      236.960       78.311        0.109      335.700        6.507      859.060
11/03/2013  01:12:00      -67.994      169.802       -4.902      117.434      110.714       72.779    13790.643    12257.586     5296.779        3.241        1.567      182.910       54.757        0.090      335.713        6.527      859.063
11/03/2013  01:13:00      -59.287      439.573      -42.579      124.396      176.750       77.308    15474.367    31240.630     5976.500       12.561        2.635      443.554       89.710        0.041      335.680        6.472      859.073
11/03/2013  01:14:00      -23.687      256.766      -21.861      103.088      141.772       60.194    10627.188    20099.333     3623.321        5.065        1.717      257.856       65.797        0.065      335.649        6.421      859.077
11/03/2013  01:15:00     -106.832      420.991      -40.969      100.472      188.488       76.934    10094.643    35527.793     5918.823       12.092        2.577      434.335       89.896        0.043      335.626        6.382      859.097
11/03/2013  01:16:00      -59.577      428.222      -33.946       94.327      215.197       89.457     8897.583    46309.926     8002.473       12.563        3.160      432.346      104.441        0.058      335.605        6.347      859.074
11/03/2013  01:17:00       12.041      199.158      -14.306      107.362      141.765       73.875    11526.524    20097.203     5457.487        3.854        1.854      199.522       63.751        0.102      335.582        6.310      859.071
11/03/2013  01:18:00      -21.230      348.450      -41.542       97.111      158.455       53.793     9430.556    25108.073     2893.712        8.051        1.872      349.096       68.196        0.038      335.611        6.358      859.108
11/03/2013  01:19:00      -49.108      233.468       -4.301       85.057      119.880       61.774     7234.686    14371.254     3816.008        4.118        1.271      238.577       65.402        0.075      335.638        6.402      859.129
11/03/2013  01:20:00      -15.714      167.318      -11.394       69.322       67.003       39.640     4805.588     4489.423     1571.309        1.962        0.543      168.055       25.726        0.023      335.638        6.403      859.126
11/03/2013  01:21:00       20.843      170.535      -21.116       72.564       67.237       43.395     5265.553     4520.849     1883.151        2.081        0.583      171.804       40.855        0.057      335.601        6.341      859.138
11/03/2013  01:22:00      -52.949      307.297      -36.773       76.992       87.907       41.974     5927.733     7727.654     1761.855        5.700        0.771      311.825       32.300        0.011      335.628        6.384      859.149
11/03/2013  01:23:00       -2.452      198.097      -29.731       60.117       89.411       38.333     3614.053     7994.288     1469.430        2.660        0.654      198.112       39.023        0.039      335.633        6.394      859.143
11/03/2013  01:24:00      -97.554      319.857      -24.373       91.461      129.397       67.571     8365.154    16743.493     4565.799        7.104        1.484      334.403       61.399        0.034      335.630        6.387      859.135
11/03/2013  01:25:00      -46.063      303.909      -23.335      117.932      133.522       70.233    13907.917    17828.007     4932.725        6.584        1.833      307.380       66.606        0.047      335.575        6.298      859.139
11/03/2013  01:26:00      -60.918      479.170      -45.187      109.449      143.560       69.675    11979.021    20609.446     4854.674       13.639        1.872      483.027       70.103        0.021      335.523        6.210      859.132
11/03/2013  01:27:00      -78.436      364.248      -41.949      121.720      114.783       64.395    14815.691    13175.140     4146.737        8.636        1.607      372.598       45.017        0.015      335.530        6.220      859.149
11/03/2013  01:28:00      -58.901      329.483      -39.718      118.609      123.359       65.555    14068.048    15217.353     4297.416        7.359        1.679      334.707       53.572        0.026      335.486        6.149      859.170
11/03/2013  01:29:00      -58.913      275.277      -23.762      104.103      104.944       61.796    10837.383    11013.185     3818.760        5.274        1.283      281.510       61.482        0.048      335.496        6.167      859.157
11/03/2013  01:30:00      -49.478      424.603      -49.457       94.392      101.882       60.624     8909.904    10379.984     3675.243       10.407        1.148      427.477       49.026        0.013      335.471        6.124      859.153
11/03/2013  01:31:00      -18.062      393.371      -43.399       92.979      153.696       60.369     8645.007    23622.512     3644.455        9.643        1.796      393.786       63.534        0.026      335.474        6.129      859.141
11/03/2013  01:32:00       -5.951      321.710      -19.287       91.505      147.273       86.601     8373.110    21689.440     7499.688        7.073        1.878      321.765       87.889        0.075      335.500        6.172      859.132
11/03/2013  01:33:00        6.979      369.118      -20.809      103.849      199.002       87.832    10784.709    39601.696     7714.421        9.741        2.905      369.183       95.837        0.067      335.489        6.153      859.115
11/03/2013  01:34:00      -13.440      462.335      -47.838       97.710      188.885       76.942     9547.293    35677.401     5920.132       13.368        2.557      462.530       90.971        0.039      335.493        6.161      859.097
11/03/2013  01:35:00        0.856      408.334      -42.318      107.134      201.798       89.752    11477.723    40722.591     8055.372       11.438        3.013      408.335      106.044        0.067      335.489        6.154      859.059
11/03/2013  01:36:00      -19.429      381.120      -39.652       83.949      171.500       68.701     7047.475    29412.179     4719.792        9.418        2.059      381.615       79.675        0.044      335.488        6.152      859.053
11/03/2013  01:37:00      -22.974      327.270      -29.460      103.755      176.675       81.676    10765.048    31213.941     6671.014        7.857        2.433      328.075       95.750        0.085      335.499        6.171      859.057
11/03/2013  01:38:00      -21.143      306.215      -39.315       74.974       96.116       56.887     5621.140     9238.260     3236.155        5.692        0.905      306.944       56.461        0.034      335.487        6.149      859.052
11/03/2013  01:39:00      -55.942      251.810      -21.485       87.315      137.802       58.813     7623.880    18989.352     3458.933        4.853        1.504      257.950       68.378        0.070      335.509        6.188      859.066
11/03/2013  01:40:00       13.707      288.972      -15.386       80.923      147.049       76.930     6548.465    21623.448     5918.187        5.900        1.705      289.297       80.358        0.077      335.481        6.141      859.074
11/03/2013  01:41:00     -123.766      304.876      -33.814       86.600      141.109       70.673     7499.573    19911.820     4994.705        7.090        1.620      329.040       75.162        0.052      335.507        6.183      859.102
11/03/2013  01:42:00      -82.783      185.821      -35.210       56.072      105.641       48.193     3144.057    11159.929     2322.517        2.962        0.831      203.427       46.543        0.052      335.516        6.199      859.126
11/03/2013  01:43:00     -122.916      247.696      -28.476      156.358      145.429       66.849    24447.801    21149.637     4468.759        6.366        2.503      276.517       59.502        0.046      335.496        6.167      859.192
11/03/2013  01:44:00     -222.327      355.586      -55.421      150.420      184.951       86.490    22626.187    34206.876     7480.522       12.162        3.216      419.370      102.375        0.060      335.409        6.021      859.198
11/03/2013  01:45:00      -62.677      217.646      -17.799      104.755      138.023       69.625    10973.609    19050.298     4847.575        4.324        1.744      226.491       75.727        0.112      335.450        6.089      859.184
11/03/2013  01:46:00      -56.465      193.001      -16.908       95.888      130.472       56.498     9194.470    17022.885     3192.032        3.506        1.470      201.091       54.396        0.073      335.443        6.078      859.141
11/03/2013  01:47:00      -85.280      421.429      -41.579      121.037      220.293       82.786    14649.966    48529.140     6853.494       12.831        3.502      429.971      105.382        0.060      335.341        5.907      859.101
11/03/2013  01:48:00      -62.569      415.120      -43.005      121.330      158.485       63.450    14720.878    25117.551     4025.849       11.097        2.193      419.809       72.539        0.030      335.305        5.847      859.051
11/03/2013  01:49:00     -103.102      391.620      -40.893      134.634      124.436       79.240    18126.414    15484.413     6278.929       10.277        1.994      404.965       70.195        0.030      335.270        5.788      859.057
11/03/2013  01:50:00      -48.809      394.335      -38.407       76.047      166.647       64.015     5783.165    27771.117     4097.974        9.850        1.883      397.344       75.873        0.036      335.267        5.783      859.081
11/03/2013  01:51:00      -36.449      512.078      -61.380       92.567      156.451       75.053     8568.735    24476.940     5633.018       15.299        1.934      513.374       83.981        0.027      335.250        5.755      859.099
11/03/2013  01:52:00      -45.572      421.467      -44.157      121.038      149.267       80.729    14650.138    22280.697     6517.199       11.255        2.172      423.924       86.071        0.041      335.252        5.758      859.114
11/03/2013  01:53:00      -94.714      481.369      -44.450       93.580      154.039       77.783     8757.169    23728.125     6050.171       14.059        1.927      490.599       72.049        0.022      335.220        5.706      859.078
11/03/2013  01:54:00     -110.336      541.542      -65.124      100.117      160.340       77.678    10023.412    25709.056     6033.949       17.572        2.088      552.668       77.552        0.020      335.224        5.712      859.082
11/03/2013  01:55:00     -116.398      662.393      -74.882       87.493      119.768       58.135     7655.040    14344.315     3379.642       24.165        1.269      672.542       52.233        0.006      335.201        5.673      859.052
11/03/2013  01:56:00      -67.754      612.629      -69.648      117.525      189.507       64.501    13812.045    35912.745     4160.404       21.931        2.694      616.365       67.031        0.012      335.208        5.685      859.041
11/03/2013  01:57:00      -79.083      461.172      -61.629      112.773      161.631       62.912    12717.742    26124.428     3957.937       13.276        2.140      467.903       46.571        0.010      335.254        5.762      859.044
11/03/2013  01:58:00      -99.460      338.378      -34.958      121.294      148.862       65.125    14712.285    22159.867     4241.220        8.336        2.056      352.692       73.818        0.044      335.243        5.744      859.063
11/03/2013  01:59:00     -107.501      259.961      -32.815       81.240      134.804       54.631     6600.015    18172.054     2984.580        5.398        1.388      281.311       52.923        0.035      335.252        5.758      859.076
11/03/2013  01:00:00      -98.543      360.752      -32.389      108.571      154.699       73.386    11787.643    23931.706     5385.558        9.100        2.055      373.969       82.258        0.048      335.226        5.715      859.078
11/03/2013  01:01:00      -96.252      393.545      -39.390      107.450      174.310       75.949    11545.436    30384.070     5768.235       10.669        2.385      405.144       83.246        0.042      335.211        5.692      859.095
11/03/2013  01:02:00      -39.939      408.694      -25.266      131.967      174.552       80.994    17415.355    30468.453     6560.104       11.184        2.722      410.641       93.132        0.051      335.204        5.679      859.093
11/03/2013  01:03:00      -32.211      335.956      -16.944       99.329      119.146       79.995     9866.166    14195.882     6399.166        7.232        1.523      337.497       70.580        0.044      335.170        5.624      859.137
11/03/2013  01:04:00     -103.320      440.902      -41.017      123.774      158.623       79.667    15319.920    25161.207     6346.842       12.678        2.341      452.846       77.793        0.030      335.155        5.599      859.145
11/03/2013  01:05:00     -170.371      425.616      -45.650      101.718      117.815       63.718    10346.451    13880.319     4059.991       12.027        1.414      458.449       67.213        0.021      335.133        5.563      859.149
11/03/2013  01:06:00      -83.048      375.310      -37.126      108.788      192.947       71.223    11834.934    37228.578     5072.719       10.163        2.707      384.389       92.285        0.058      335.156        5.600      859.192
11/03/2013  01:07:00       -2.514      346.884      -21.579       89.936      205.909       75.431     8088.466    42398.396     5689.794        8.848        2.809      346.893       92.325        0.071      335.126        5.550      859.196
11/03/2013  01:08:00      -35.635      373.039      -37.513       89.601      126.878       62.564     8028.323    16098.084     3914.226        8.493        1.402      374.737       68.876        0.034      335.128        5.555      859.200
11/03/2013  01:09:00      -74.717      278.659      -18.047      114.047      140.108       76.721    13006.826    19630.348     5886.077        6.103        1.926      288.502       85.785        0.088      335.150        5.590      859.194
11/03/2013  01:10:00      -58.657      290.758      -20.204       91.578      162.777       76.994     8386.487    26496.443     5928.005        6.459        2.041      296.615       89.245        0.091      335.144        5.582      859.164
11/03/2013  01:11:00      -76.851      456.916      -61.032      158.667      185.179       78.879    25175.175    34291.129     6221.929       14.203        3.284      463.334       81.411        0.031      335.078        5.472      859.169
11/03/2013  01:12:00      -49.098      213.317      -24.364      106.568       83.383       53.267    11356.843     6952.753     2837.328        3.482        1.057      218.894       50.706        0.054      335.094        5.498      859.181
11/03/2013  01:13:00      -77.408      349.160      -36.956      104.726      206.125       72.726    10967.544    42487.331     5289.028        9.400        2.937      357.638       79.722        0.050      335.122        5.545      859.213
11/03/2013  01:14:00      -89.345      251.349      -29.719       96.902      139.573       67.434     9389.973    19480.513     4547.404        5.272        1.671      266.756       43.557        0.027      335.134        5.565      859.241
11/03/2013  01:15:00     -145.146      350.691      -46.976      147.048      113.843       67.587    21623.185    12960.172     4568.003        9.270        1.958      379.541       68.928        0.033      335.090        5.491      859.265
11/03/2013  01:16:00      -61.042      313.104      -32.803       81.441      163.596       61.000     6632.716    26763.763     3720.955        6.997        1.856      318.999       64.050        0.040      335.110        5.523      859.257
11/03/2013  01:17:00      -63.385      206.630       -7.194      112.482      129.555       84.096    12652.176    16784.581     7072.202        4.163        1.825      216.134       86.861        0.162      335.129        5.557      859.259
11/03/2013  01:18:00      -45.691      287.103       -3.538       99.810      199.139       73.780     9961.958    39656.348     5443.489        6.979        2.753      290.716       96.736        0.111      335.093        5.498      859.263
11/03/2013  01:19:00      -87.921      395.623      -39.411       98.282      142.654       62.929     9659.376    20350.272     3960.087        9.988        1.698      405.274       65.964        0.026      335.063        5.445      859.250
11/03/2013  01:20:00      -91.112      366.533      -38.268      127.217      189.803       73.518    16184.149    36025.023     5404.968       10.085        2.881      377.688       75.784        0.040      335.069        5.456      859.234
11/03/2013  01:21:00     -121.439      389.697      -36.795       93.364      121.584       58.539     8716.903    14782.605     3426.855        9.744        1.346      408.180       51.643        0.016      335.044        5.416      859.208
11/03/2013  01:22:00      -71.987      464.174      -46.553      103.255      227.657       58.590    10661.594    51827.820     3432.806       14.435        3.296      469.723       83.568        0.032      334.996        5.335      859.209
11/03/2013  01:23:00      -95.797      370.823      -36.632      115.349      134.558       70.114    13305.332    18105.948     4915.976        9.217        1.816      382.997       62.471        0.027      335.036        5.402      859.214
11/03/2013  01:24:00     -124.859      319.498      -30.051       97.734      116.632       73.052     9551.973    13602.926     5336.661        7.353        1.425      343.028       58.999        0.030      335.041        5.408      859.231
11/03/2013  01:25:00      -74.529      199.912       -6.508       83.343      132.451       68.305     6946.095    17543.164     4665.529        3.735        1.458      213.353       80.753        0.143      335.055        5.434      859.235
11/03/2013  01:26:00     -154.816      196.309      -18.805      137.622      130.526       78.785    18939.797    17037.058     6207.033        5.251        2.109      250.011       86.043        0.118      335.041        5.409      859.252
11/03/2013  01:27:00      -83.412      239.346      -15.851      104.647      150.763       73.541    10951.082    22729.563     5408.346        5.179        1.954      253.464       67.988        0.072      335.001        5.344      859.278
11/03/2013  01:28:00      -44.123      267.235      -14.354       54.630      121.435       55.516     2984.447    14746.413     3081.986        4.719        1.041      270.853       62.939        0.054      335.005        5.350      859.257
11/03/2013  01:29:00      -70.954      302.450      -34.936       75.071      112.131       51.742     5635.674    12573.417     2677.279        5.931        1.044      310.662       52.686        0.029      334.998        5.337      859.248
11/03/2013  01:30:00      -66.784      380.415      -37.445       88.694      149.167       66.225     7866.615    22250.772     4385.698        9.253        1.725      386.232       75.887        0.039      335.001        5.342      859.251
11/03/2013  01:31:00      -90.450      355.520      -37.079       96.238      120.957       51.555     9261.784    14630.478     2657.877        8.125        1.328      366.845       55.488        0.023      334.965        5.282      859.239
11/03/2013  01:32:00     -126.802      236.466      -25.605       59.465       77.467       53.075     3536.111     6001.166     2816.971        4.250        0.618      268.318       45.940        0.029      334.990        5.325      859.241
11/03/2013  01:33:00     -130.203      211.896      -28.676       73.575       82.002       49.565     5413.231     6724.375     2456.694        3.863        0.730      248.702       44.435        0.032      334.970        5.289      859.241
11/03/2013  01:34:00      -32.208      241.996      -24.864       77.525       96.204       41.204     6010.086     9255.212     1697.736        3.859        0.848      244.130       34.903        0.020      335.032        5.395      859.249
11/03/2013  01:35:00      -70.613      191.917      -17.118       69.637      111.705       39.303     4849.366    12478.017     1544.756        3.049        0.944      204.495       46.068        0.051      335.055        5.434      859.243
11/03/2013  01:36:00      -59.075      153.529       -6.869       85.184       96.958       57.102     7256.342     9400.908     3260.594        2.351        0.996      164.502       55.435        0.114      334.994        5.333      859.241
11/03/2013  01:37:00       -0.517      374.160      -43.380       89.021      110.626       44.934     7924.727    12238.058     2019.074        8.203        1.109      374.160       41.022        0.012      334.928        5.221      859.233
11/03/2013  01:38:00      -28.293      278.872      -26.219       80.850      115.932       57.436     6536.745    13440.141     3298.937        5.126        1.164      280.304       64.276        0.053      334.964        5.281      859.232
11/03/2013  01:39:00       15.280      195.472      -10.465       57.261       90.750       49.235     3278.828     8235.550     2424.043        2.624        0.697      196.068       38.119        0.038      335.004        5.349      859.229
11/03/2013  01:40:00       30.025      134.143      -14.417       78.145      118.505       56.939     6106.634    14043.349     3241.996        2.124        1.170      137.462       54.445        0.157      334.951        5.262      859.228
11/03/2013  01:41:00       -6.047      251.344       -2.366       86.468      126.502       76.395     7476.752    16002.781     5836.124        4.626        1.466      251.417       75.718        0.091      334.935        5.235      859.234
11/03/2013  01:42:00       21.407      152.407      -13.849       57.299       98.850       49.177     3283.123     9771.364     2418.336        1.967        0.774      153.903       57.206        0.138      334.963        5.281      859.261
11/03/2013  01:43:00        8.241      108.537        4.794       45.222      103.874       55.136     2045.038    10789.743     3040.024        1.387        0.794      108.849       59.495        0.299      334.998        5.339      859.294
11/03/2013  01:44:00       -6.671      200.871      -18.956       47.089      114.736       40.873     2217.408    13164.281     1670.642        2.890        0.853      200.982       48.279        0.058      334.999        5.341      859.321
11/03/2013  01:45:00      -47.600      317.167      -35.005       92.729      130.872       49.559     8598.603    17127.605     2456.139        6.613        1.409      320.719       41.361        0.017      335.035        5.398      859.349
11/03/2013  01:46:00      -75.022      353.244      -38.374       74.457      111.572       55.717     5543.800    12448.356     3104.370        7.649        1.055      361.123       61.721        0.029      335.029        5.389      859.351
11/03/2013  01:47:00      -39.002      293.000      -27.965       71.769       91.916       48.021     5150.771     8448.587     2305.973        5.203        0.795      295.584       44.198        0.022      335.065        5.449      859.353
11/03/2013  01:48:00      -61.169      177.739      -13.547       53.940       83.710       48.624     2909.513     7007.321     2364.316        2.390        0.614      187.970       51.267        0.074      335.134        5.565      859.348
11/03/2013  01:49:00     -115.976      123.734      -28.690       74.722      106.105       36.714     5583.323    11258.292     1347.894        2.388        0.909      169.589       46.656        0.076      335.149        5.589      859.348
11/03/2013  01:50:00      -11.646      167.042       -8.419       51.027       82.983       47.729     2603.750     6886.100     2278.023        1.994        0.588      167.447       48.007        0.082      335.116        5.537      859.325
11/03/2013  01:51:00       40.030      201.638      -20.103       57.970      108.572       55.971     3360.485    11787.927     3132.703        3.047        0.914      205.573       66.956        0.106      335.051        5.428      859.299
11/03/2013  01:52:00       22.664      127.748      -17.728       44.222       65.512       33.497     1955.608     4291.816     1122.034        1.226        0.368      129.743       34.684        0.071      335.022        5.382      859.288
11/03/2013  01:53:00      -18.273      130.978      -17.692       36.479       44.186       23.390     1330.704     1952.442      547.111        1.082        0.192      132.247       15.971        0.015      335.071        5.463      859.329
11/03/2013  01:54:00     -101.327      205.732      -22.207       78.242      101.164       48.572     6121.842    10234.086     2359.277        3.590        0.936      229.331       43.934        0.037      335.062        5.446      859.381
11/03/2013  01:55:00      -85.954      165.404      -17.646       70.061       74.757       35.219     4908.556     5588.573     1240.365        2.340        0.587      186.404       29.227        0.025      335.033        5.396      859.396
11/03/2013  01:56:00       36.858      127.489        8.228       78.190      102.122       58.912     6113.651    10428.881     3470.638        1.884        1.001      132.710       52.881        0.159      335.069        5.459      859.373
11/03/2013  01:57:00      -29.357      209.555       -9.906       79.921      105.333       56.922     6387.371    11095.137     3240.062        3.279        1.036      211.602       55.169        0.068      335.043        5.414      859.356
11/03/2013  01:58:00      -61.090      164.401      -13.388       86.515       86.300       34.236     7484.814     7447.662     1172.118        2.352        0.805      175.384       32.233        0.034      335.024        5.382      859.346
11/03/2013  01:59:00      -19.602      177.465      -26.481       83.776       67.303       49.246     7018.385     4529.727     2425.168        2.327        0.699      178.544       43.351        0.059      335.014        5.365      859.353
11/03/2013  02:00:00        0.257      286.981      -18.344       86.196      139.776       71.930     7429.831    19537.393     5173.938        5.741        1.607      286.981       76.894        0.072      334.934        5.233      859.339
11/03/2013  02:01:00      -59.144      288.754      -33.314       44.540       84.514       36.268     1983.818     7142.573     1315.333        4.921        0.522      294.749       39.035        0.018      334.934        5.232      859.344
11/03/2013  02:02:00      -94.827      192.702      -27.063       65.651       81.789       44.661     4310.032     6689.507     1994.562        2.992        0.650      214.770       43.014        0.040      334.944        5.248      859.342
11/03/2013  02:03:00      -81.717      128.704      -27.956       37.683       40.599       29.503     1420.018     1648.292      870.408        1.398        0.197      152.455       25.361        0.028      334.993        5.332      859.348
11/03/2013  02:04:00      -47.430       66.174       -0.384       62.089       51.680       32.386     3855.067     2670.856     1048.833        0.710        0.379       81.417       33.553        0.170      335.066        5.454      859.353
11/03/2013  02:05:00      -86.376      165.068      -26.006       41.073       95.361       38.286     1687.000     9093.763     1465.797        2.381        0.612      186.301       30.705        0.027      334.953        5.264      859.368
11/03/2013  02:06:00      -87.929      288.973      -34.460       89.771      122.907       52.441     8058.916    15106.245     2750.013        5.917        1.296      302.054       58.282        0.037      334.807        5.020      859.389
11/03/2013  02:07:00     -161.214      128.014      -37.810       48.043       80.258       45.514     2308.099     6441.344     2071.480        2.731        0.541      205.859       30.525        0.022      334.821        5.044      859.391
11/03/2013  02:08:00     -202.767      209.406      -51.047      113.133      113.370       54.669    12799.110    12852.777     2988.754        5.810        1.432      291.488       59.059        0.041      334.720        4.877      859.391
11/03/2013  02:09:00     -199.657      172.012      -40.570       84.025       75.101       46.915     7060.230     5640.188     2201.007        4.300        0.745      263.536       25.435        0.009      334.688        4.820      859.361
11/03/2013  02:10:00     -205.508      243.594      -41.324       86.096      132.252       59.899     7412.491    17490.667     3587.877        6.588        1.425      318.703       62.189        0.038      334.656        4.768      859.361
11/03/2013  02:11:00     -299.709      235.818      -56.536      114.155      135.108       68.559    13031.379    18254.161     4700.350        9.230        1.799      381.360       59.079        0.024      334.615        4.701      859.395
11/03/2013  02:12:00     -182.018      185.570      -31.023       73.304      100.243       59.770     5373.526    10048.642     3572.405        4.376        0.950      259.936       41.568        0.026      334.677        4.802      859.437
11/03/2013  02:13:00     -244.236      208.285      -35.624       98.911      141.786       61.170     9783.315    20103.162     3741.715        6.896        1.681      320.989       54.571        0.029      334.664        4.782      859.468
11/03/2013  02:14:00     -183.951       11.671      -24.544      136.639      129.032       74.205    18670.255    16649.348     5506.389        3.769        2.041      184.321       76.702        0.173      334.744        4.916      859.458
11/03/2013  02:15:00     -204.579      141.726      -35.534      103.064       88.310       55.642    10622.113     7798.644     3095.995        4.236        1.076      248.875       49.630        0.040      334.697        4.836      859.459
11/03/2013  02:16:00     -176.324      168.988      -33.866      105.167      113.263       59.229    11059.998    12828.523     3508.035        4.409        1.370      244.228       63.177        0.067      334.703        4.847      859.436
11/03/2013  02:17:00     -147.877       76.961      -19.400       97.136      119.775       59.367     9435.307    14346.063     3524.462        2.773        1.365      166.705       48.577        0.085      334.737        4.904      859.407
11/03/2013  02:18:00     -194.302      184.704      -35.256      118.768      125.695       70.893    14105.851    15799.119     5025.808        5.402        1.747      268.084       72.262        0.073      334.662        4.779      859.397
11/03/2013  02:19:00     -230.404      194.891      -49.954      132.895      150.395       65.458    17661.036    22618.529     4284.743        6.906        2.228      301.776       78.347        0.067      334.627        4.720      859.366
11/03/2013  02:20:00     -190.994      226.573      -28.850      118.911      144.971       69.354    14139.939    21016.618     4809.982        6.430        1.998      296.334       69.108        0.054      334.611        4.693      859.337
11/03/2013  02:21:00     -111.633       69.296      -29.732       84.716      120.927       53.672     7176.880    14623.281     2880.652        2.141        1.234      131.392       56.883        0.187      334.704        4.851      859.333
11/03/2013  02:22:00     -146.556      112.656      -16.194      110.927       97.995       52.974    12304.720     9602.990     2806.286        2.957        1.236      184.852       62.009        0.113      334.673        4.797      859.357
11/03/2013  02:23:00     -137.299      106.853      -26.985      115.803      108.109       59.243    13410.261    11687.456     3509.779        2.980        1.430      173.978       52.241        0.090      334.658        4.774      859.369
11/03/2013  02:24:00     -212.148      283.516      -49.595       94.069      133.435       56.863     8849.000    17804.770     3233.411        7.886        1.494      354.102       57.183        0.026      334.565        4.616      859.373
11/03/2013  02:25:00     -241.456      233.233      -57.116      117.967      107.840       61.832    13916.203    11629.514     3823.238        7.266        1.468      335.706       66.757        0.040      334.521        4.544      859.375
11/03/2013  02:26:00     -205.463      316.994      -51.728       94.765      143.065       67.015     8980.497    20467.549     4491.027        8.965        1.697      377.757       61.754        0.027      334.525        4.551      859.379
11/03/2013  02:27:00     -241.198      314.618      -69.316       95.066      118.277       66.714     9037.579    13989.467     4450.779        9.472        1.374      396.435       58.413        0.022      334.494        4.501      859.366
11/03/2013  02:28:00     -176.686      243.310      -47.088       94.094      123.106       61.681     8853.698    15155.066     3804.509        6.022        1.391      300.696       67.255        0.050      334.506        4.518      859.368
11/03/2013  02:29:00     -271.764      317.709      -71.545      139.543      134.833       76.583    19472.201    18179.826     5864.925       11.171        2.176      418.084       92.690        0.049      334.515        4.534      859.379
11/03/2013  02:30:00     -170.184      232.806      -44.312       86.391      108.967       55.451     7463.393    11873.781     3074.831        5.376        1.121      288.377       52.310        0.033      334.558        4.605      859.409
11/03/2013  02:31:00     -158.494      171.633      -24.019       86.533       95.866       61.773     7487.919     9190.220     3815.921        3.782        1.025      233.620       57.263        0.060      334.568        4.623      859.415
11/03/2013  02:32:00     -124.164      162.129      -22.337       78.602       90.190       48.085     6178.223     8134.260     2312.158        2.941        0.831      204.211       47.636        0.054      334.614        4.699      859.422
11/03/2013  02:33:00     -185.259      240.217      -44.955      104.679      115.674       61.553    10957.642    13380.403     3788.803        6.108        1.406      303.357       60.180        0.039      334.530        4.561      859.424
11/03/2013  02:34:00     -126.651      208.201      -33.404       76.688       86.374       49.104     5881.061     7460.434     2411.155        3.813        0.788      243.697       43.952        0.033      334.586        4.651      859.418
11/03/2013  02:35:00     -136.145      347.539      -29.498      103.430      138.877       71.228    10697.788    19286.829     5073.400        8.762        1.753      373.254       70.249        0.035      334.508        4.523      859.390
11/03/2013  02:36:00     -170.602      240.664      -39.229      111.948      157.775       57.085    12532.321    24892.978     3258.712        6.462        2.034      294.999       63.775        0.047      334.547        4.587      859.371
11/03/2013  02:37:00     -134.458      269.580      -37.238       79.878       83.830       53.724     6380.493     7027.499     2886.318        5.421        0.815      301.251       43.544        0.021      334.534        4.565      859.377
11/03/2013  02:38:00     -217.090      244.168      -24.082      138.781      126.017       97.007    19260.267    15880.410     9410.440        7.593        2.228      326.720       87.558        0.072      334.474        4.466      859.388
11/03/2013  02:39:00     -169.510      215.463      -34.086       81.085      132.106       59.787     6574.802    17451.916     3574.483        5.196        1.380      274.150       68.884        0.063      334.495        4.502      859.416
11/03/2013  02:40:00     -133.540      256.130      -29.385       87.362      120.650       55.643     7632.132    14556.378     3096.115        5.479        1.264      288.852       53.986        0.035      334.496        4.504      859.432
11/03/2013  02:41:00     -216.159      196.383      -45.100       91.091      105.647       51.819     8297.560    11161.346     2685.238        5.473        1.107      292.046       34.728        0.014      334.484        4.483      859.444
11/03/2013  02:42:00     -129.041      215.373      -15.668       97.302      121.786       60.691     9467.655    14831.821     3683.369        4.563        1.399      251.072       56.282        0.050      334.533        4.564      859.477
11/03/2013  02:43:00     -180.059      183.187      -29.708      127.984      107.293       62.254    16379.879    11511.860     3875.547        4.931        1.588      256.863       54.462        0.045      334.495        4.501      859.530
11/03/2013  02:44:00     -234.072      292.444      -54.758      117.583      113.914       68.385    13825.820    12976.500     4676.464        8.739        1.574      374.583       78.670        0.044      334.453        4.434      859.564
11/03/2013  02:45:00     -143.885      149.882      -12.017      109.836      122.561       55.664    12063.858    15021.253     3098.507        3.674        1.509      207.768       62.966        0.092      334.494        4.500      859.550
11/03/2013  02:46:00     -232.578      324.179      -64.838       94.447       91.661       56.808     8920.258     8401.711     3227.108        9.197        1.027      398.979       53.792        0.018      334.436        4.404      859.519
11/03/2013  02:47:00     -128.539      167.199      -27.043       78.667      100.309       53.264     6188.441    10061.946     2837.062        3.215        0.954      210.898       51.641        0.060      334.517        4.540      859.487
11/03/2013  02:48:00     -230.877      284.368      -54.609      133.012      151.168       70.596    17692.234    22851.847     4983.771        9.133        2.276      366.292       68.420        0.035      334.412        4.364      859.474
11/03/2013  02:49:00     -192.413      257.633      -35.643      130.529      130.597       71.947    17037.839    17055.474     5176.319        7.196        1.963      321.555       74.743        0.054      334.399        4.343      859.481
11/03/2013  02:50:00     -169.209      322.095      -54.206       93.178      102.794       57.318     8682.199    10566.510     3285.383        7.892        1.127      363.836       46.534        0.016      334.400        4.343      859.477
11/03/2013  02:51:00     -176.359      261.373      -45.911      133.353      146.591       78.360    17782.949    21488.855     6140.276        7.346        2.271      315.307       84.417        0.072      334.406        4.355      859.491
11/03/2013  02:52:00     -274.294      286.403      -42.828      133.389      178.254       73.690    17792.725    31774.382     5430.235       10.704        2.750      396.565       72.798        0.034      334.371        4.295      859.505
11/03/2013  02:53:00     -193.801      246.805      -24.048      102.483      132.168       82.904    10502.669    17468.405     6873.016        6.694        1.742      313.802       70.949        0.051      334.389        4.326      859.525
11/03/2013  02:54:00     -204.295      291.763      -37.302      146.280      156.721       85.162    21397.911    24561.395     7252.629        9.072        2.661      356.177       87.688        0.061      334.339        4.243      859.543
11/03/2013  02:55:00     -167.196      198.244      -27.618      105.055      148.424       69.947    11036.505    22029.638     4892.637        5.298        1.898      259.336       64.728        0.062      334.368        4.291      859.559
11/03/2013  02:56:00     -227.451      256.005      -54.516       84.227      150.479       57.911     7094.117    22643.947     3353.708        7.666        1.655      342.450       62.126        0.033      334.322        4.215      859.537
11/03/2013  02:57:00     -189.765      221.013      -48.278       87.873      118.057       55.101     7721.657    13937.393     3036.112        5.594        1.235      291.303       50.992        0.031      334.343        4.249      859.500
11/03/2013  02:58:00     -117.934      216.054      -28.047       86.860       86.739       53.034     7544.589     7523.719     2812.596        3.962        0.894      246.146       42.095        0.029      334.403        4.350      859.468
11/03/2013  02:59:00     -176.488      254.083      -36.333      100.356      100.516       55.652    10071.372    10103.497     3097.152        6.015        1.164      309.364       54.539        0.031      334.318        4.208      859.441
11/03/2013  03:00:00     -108.747      278.030      -25.838       73.219      107.750       54.758     5361.084    11610.020     2998.451        5.488        0.998      298.541       54.602        0.033      334.346        4.254      859.411
11/03/2013  03:01:00      -76.970      174.402      -18.217       71.357       90.623       51.579     5091.889     8212.483     2660.400        2.632        0.798      190.632       43.863        0.053      334.354        4.270      859.412
11/03/2013  03:02:00     -109.507      169.324      -20.337       91.324       86.681       51.922     8340.078     7513.581     2695.914        2.981        0.927      201.649       55.304        0.075      334.396        4.338      859.421
11/03/2013  03:03:00     -109.928      147.078      -13.190       91.935       85.506       50.612     8452.088     7311.310     2561.570        2.610        0.916      183.619       45.892        0.062      334.328        4.226      859.448
11/03/2013  03:04:00     -153.462      202.709      -43.648       97.576      153.250       57.329     9521.171    23485.696     3286.613        5.141        1.815      254.247       76.148        0.090      334.259        4.110      859.487
11/03/2013  03:05:00     -163.120      294.392      -41.488      127.722      164.064       66.765    16312.938    26916.976     4457.581        8.133        2.384      336.563       66.971        0.040      334.272        4.131      859.514
11/03/2013  03:06:00     -139.957      292.797      -29.320       85.565      101.085       60.994     7321.437    10218.086     3720.226        6.372        1.063      324.528       56.690        0.031      334.324        4.217      859.540
11/03/2013  03:07:00     -130.239      259.781      -28.408       97.787      132.650       62.732     9562.347    17595.939     3935.256        5.817        1.555      290.600       74.248        0.065      334.307        4.191      859.582
11/03/2013  03:08:00     -200.582      237.613      -49.072      117.078      123.223       69.032    13707.328    15183.947     4765.356        6.637        1.683      310.955       82.630        0.071      334.281        4.147      859.592
11/03/2013  03:09:00     -154.856      225.428      -34.654      100.248      168.765       55.907    10049.624    28481.699     3125.621        5.882        2.083      273.492       61.772        0.051      334.259        4.112      859.582
11/03/2013  03:10:00     -100.578       88.674      -10.795       78.328       71.903       42.320     6135.292     5169.991     1790.991        1.559        0.655      134.086       30.064        0.050      334.308        4.195      859.569
11/03/2013  03:11:00     -131.244      245.124      -40.000       61.228       86.678       52.913     3748.914     7513.133     2799.784        4.648        0.703      278.048       42.258        0.023      334.258        4.107      859.573
11/03/2013  03:12:00     -170.644      218.225      -25.273       88.739      105.256       66.742     7874.563    11078.727     4454.516        5.039        1.170      277.022       52.093        0.035      334.270        4.128      859.557
11/03/2013  03:13:00     -168.247      245.529      -44.986       80.862      187.791       51.148     6538.637    35265.443     2616.143        6.751        2.221      297.643       56.007        0.035      334.262        4.115      859.558
11/03/2013  03:14:00     -197.987      230.416      -40.615       96.895      108.461       60.405     9388.606    11763.888     3648.770        5.937        1.240      303.793       54.892        0.033      334.234        4.069      859.580
11/03/2013  03:15:00     -189.384      185.912      -44.303       61.280       92.683       47.507     3755.209     8590.217     2256.946        4.350        0.730      265.386       40.411        0.023      334.246        4.089      859.601
11/03/2013  03:16:00     -203.047      189.500      -40.191      123.207      107.349       66.945    15179.930    11523.902     4481.650        5.496        1.559      277.738       70.347        0.064      334.288        4.158      859.599
11/03/2013  03:17:00     -249.641      277.310      -50.617      153.498      152.958       73.827    23561.726    23396.104     5450.409        9.709        2.620      373.124       81.919        0.048      334.237        4.072      859.614
11/03/2013  03:18:00     -246.242      234.020      -41.257      114.900      110.604       71.652    13201.943    12233.178     5133.989        7.383        1.528      339.706       73.861        0.047      334.234        4.069      859.634
11/03/2013  03:19:00     -227.616      230.911      -42.919      111.503      118.339       68.176    12432.995    14004.023     4648.011        6.902        1.554      324.236       76.038        0.055      334.231        4.064      859.643
11/03/2013  03:20:00     -196.190      230.786      -47.690      110.624      122.662       66.019    12237.577    15045.846     4358.533        6.283        1.582      302.907       72.493        0.057      334.233        4.068      859.697
11/03/2013  03:21:00     -247.239      312.442      -65.760      100.999      151.730       67.918    10200.738    23022.123     4612.844       10.045        1.892      398.431       64.081        0.026      334.197        4.006      859.737
11/03/2013  03:22:00     -208.906      203.624      -48.487      109.322      111.960       60.060    11951.285    12534.957     3607.242        5.777        1.405      291.726       64.646        0.049      334.248        4.092      859.788
11/03/2013  03:23:00     -181.299      232.852      -37.014      102.379      111.262       64.464    10481.510    12379.328     4155.569        5.773        1.351      295.109       64.969        0.048      334.262        4.114      859.830
11/03/2013  03:24:00     -198.051      247.155      -47.204      103.892      119.226       61.256    10793.626    14214.763     3752.338        6.564        1.438      316.717       62.698        0.039      334.223        4.051      859.842
11/03/2013  03:25:00     -180.617      347.196      -50.159      129.638      160.666       74.925    16806.069    25813.686     5613.771       10.195        2.412      391.366       89.227        0.052      334.176        3.972      859.824
11/03/2013  03:26:00     -147.610      199.741      -20.117       77.300      109.957       58.693     5975.304    12090.599     3444.833        4.180        1.076      248.365       46.372        0.035      334.226        4.053      859.813
11/03/2013  03:27:00     -258.839      252.978      -62.494      120.103      122.090       58.050    14424.837    14906.090     3369.796        8.380        1.635      361.933       58.576        0.026      334.165        3.953      859.825
11/03/2013  03:28:00     -134.890      168.847      -19.074       66.493       79.993       46.519     4421.369     6398.825     2164.036        3.002        0.649      216.113       35.948        0.028      334.240        4.077      859.865
11/03/2013  03:29:00     -165.926      174.790      -24.688      130.704      136.681       67.266    17083.509    18681.702     4524.771        4.948        2.014      241.004       72.914        0.092      334.233        4.069      859.899
11/03/2013  03:30:00     -140.624      185.183      -16.169       91.269      105.646       63.930     8329.981    11161.064     4087.075        3.895        1.179      232.526       50.808        0.048      334.215        4.038      859.904
11/03/2013  03:31:00     -155.847      188.666      -38.855       67.460       91.031       44.461     4550.792     8286.566     1976.767        3.810        0.741      244.710       41.982        0.029      334.202        4.015      859.911
11/03/2013  03:32:00     -153.011      188.809      -24.872      106.601      102.767       64.381    11363.803    10561.059     4144.941        4.287        1.303      243.025       58.775        0.058      334.232        4.063      859.909
11/03/2013  03:33:00     -227.502      273.093      -50.138      125.816      164.409       67.861    15829.548    27030.465     4605.146        8.815        2.373      355.439       69.365        0.038      334.163        3.951      859.901
11/03/2013  03:34:00     -150.160      247.684      -34.777       82.835      121.577       67.303     6861.567    14781.027     4529.748        5.563        1.309      289.647       61.036        0.044      334.207        4.023      859.912
11/03/2013  03:35:00     -163.454      152.994      -29.764      115.364      115.136       65.686    13308.794    13256.366     4314.680        4.094        1.544      223.885       71.434        0.102      334.237        4.074      859.940
11/03/2013  03:36:00     -295.413      256.372      -65.619      119.212      148.368       80.943    14211.449    22013.140     6551.812       10.003        2.139      391.147       78.936        0.041      334.173        3.967      859.984
11/03/2013  03:37:00     -245.065      204.838      -43.787      116.807      111.053       61.061    13643.944    12332.666     3728.429        6.681        1.485      319.398       54.423        0.029      334.206        4.020      860.027
11/03/2013  03:38:00     -284.293      151.196      -34.369      188.414       91.387       77.337    35499.731     8351.661     5980.989        7.734        2.492      321.998       88.189        0.075      334.203        4.018      860.054
11/03/2013  03:39:00     -191.957      123.614      -18.925      107.447      121.684       55.178    11544.870    14807.050     3044.586        4.094        1.470      228.315       47.897        0.044      334.234        4.068      860.058
11/03/2013  03:40:00     -230.993      166.179      -24.485      138.660      124.845       74.413    19226.464    15586.314     5537.308        6.095        2.018      284.558       73.908        0.067      334.199        4.011      860.066
11/03/2013  03:41:00     -233.319      251.522      -40.355       98.989      122.663       64.660     9798.901    15046.220     4180.912        7.417        1.451      343.076       52.925        0.024      334.197        4.006      860.079
11/03/2013  03:42:00     -239.824      274.026      -43.682      135.111      148.107       87.573    18254.922    21935.828     7669.003        9.118        2.393      364.151       74.421        0.042      334.198        4.008      860.090
11/03/2013  03:43:00     -214.548      250.393      -44.950      117.456      133.904       67.419    13795.817    17930.201     4545.306        7.350        1.814      329.739       65.119        0.039      334.193        3.999      860.099
11/03/2013  03:44:00     -203.614      238.668      -37.757      127.915      118.836       67.560    16362.210    14121.961     4564.307        6.744        1.752      313.722       75.872        0.058      334.200        4.013      860.103
11/03/2013  03:45:00     -211.653      275.874      -46.905      112.204      137.030       64.978    12589.752    18777.268     4222.191        7.934        1.779      347.712       65.438        0.035      334.191        3.996      860.094
11/03/2013  03:46:00     -196.713      202.887      -37.841      104.977      127.615       65.930    11020.234    16285.675     4346.735        5.647        1.583      282.594       61.824        0.048      334.203        4.016      860.085
11/03/2013  03:47:00     -185.264      190.682      -38.216       96.688      127.861       56.171     9348.482    16348.544     3155.214        5.049        1.443      265.861       55.845        0.044      334.204        4.021      860.050
11/03/2013  03:48:00     -143.779      226.437      -41.549       83.875       76.109       44.026     7034.949     5792.577     1938.305        4.422        0.738      268.228       43.215        0.026      334.174        3.968      860.026
11/03/2013  03:49:00     -155.718      259.876      -36.343       95.572      138.569       63.321     9134.042    19201.357     4009.488        6.272        1.617      302.959       57.976        0.037      334.183        3.983      860.004
11/03/2013  03:50:00     -152.165      205.215      -28.354      105.033       93.302       60.339    11031.934     8705.240     3640.795        4.472        1.169      255.474       58.706        0.053      334.177        3.974      860.031
11/03/2013  03:51:00     -222.891      209.755      -37.174      124.040      121.075       81.816    15385.964    14659.186     6693.801        6.589        1.837      306.068       87.265        0.081      334.131        3.897      860.040
11/03/2013  03:52:00     -138.568      281.660      -38.623       99.286      113.160       75.403     9857.803    12805.194     5685.656        6.418        1.417      313.900       65.371        0.043      334.123        3.886      860.049
11/03/2013  03:53:00     -144.768      220.061      -24.786      121.744       94.630       56.143    14821.607     8954.802     3151.981        4.846        1.346      263.409       44.804        0.029      334.182        3.980      860.047
11/03/2013  03:54:00      -90.681      224.230      -21.027       65.532       94.581       55.428     4294.383     8945.638     3072.228        3.763        0.816      241.872       43.274        0.032      334.206        4.022      860.029
11/03/2013  03:55:00      -89.490      187.600      -24.141      104.207      110.218       66.072    10859.157    12147.903     4365.524        3.557        1.369      207.851       74.661        0.129      334.197        4.009      860.015
11/03/2013  03:56:00     -107.884      237.420      -32.755       92.247      118.436       63.192     8509.425    14027.193     3993.290        4.780        1.326      260.781       64.014        0.060      334.184        3.986      859.997
11/03/2013  03:57:00     -158.807      234.362      -24.392       82.196      110.309       73.173     6756.152    12168.138     5354.345        5.251        1.214      283.099       66.241        0.055      334.153        3.935      860.017
11/03/2013  03:58:00     -173.449      241.637      -32.376      107.585      115.332       52.546    11574.555    13301.483     2761.047        5.857        1.382      297.444       50.875        0.029      334.114        3.870      860.043
11/03/2013  03:59:00     -187.876      239.649      -34.921       99.329      126.842       65.689     9866.165    16088.786     4314.980        6.210        1.513      304.515       50.183        0.027      334.109        3.859      860.072
11/03/2013  04:00:00     -178.518      347.559      -49.717      101.710      145.038       67.713    10345.008    21035.955     4585.033        9.555        1.798      390.725       81.716        0.044      334.086        3.825      860.098
11/03/2013  04:01:00     -258.586      304.036      -51.080      114.854      136.641       86.388    13191.407    18670.740     7462.888       10.061        1.966      399.130       80.881        0.041      334.066        3.790      860.099
11/03/2013  04:02:00     -158.419      244.292      -28.458       93.320      110.373       60.846     8708.649    12182.137     3702.187        5.508        1.230      291.162       59.120        0.041      334.128        3.891      860.108
11/03/2013  04:03:00     -115.385      132.426       -9.796       91.404       85.368       54.027     8354.773     7287.633     2918.884        2.475        0.928      175.643       51.672        0.087      334.192        4.000      860.124
11/03/2013  04:04:00     -163.823      271.400      -40.794       81.264      129.424       51.521     6603.893    16750.523     2654.409        6.408        1.300      317.010       49.691        0.025      334.122        3.883      860.166
11/03/2013  04:05:00     -138.362      259.902      -32.300       69.212      114.357       48.230     4790.277    13077.555     2326.151        5.396        1.010      294.437       38.801        0.017      334.116        3.873      860.175
11/03/2013  04:06:00     -179.089      271.599      -45.252      128.536      127.230       67.336    16521.580    16187.392     4534.095        7.256        1.862      325.329       53.850        0.027      334.105        3.855      860.167
11/03/2013  04:07:00      -97.978      239.736      -14.219       91.942      145.988       63.464     8453.272    21312.491     4027.689        5.053        1.690      258.985       53.113        0.042      334.148        3.925      860.127
11/03/2013  04:08:00      -55.050      268.095      -25.731       59.231      110.756       52.119     3508.358    12267.000     2716.411        4.703        0.925      273.688       48.204        0.031      334.114        3.870      860.117
11/03/2013  04:09:00     -155.188      326.288      -46.535       95.402      126.287       65.992     9101.605    15948.498     4354.904        8.105        1.470      361.314       73.382        0.041      334.077        3.809      860.115
11/03/2013  04:10:00     -143.318      296.790      -33.577       98.905      131.876       59.550     9782.151    17391.331     3546.157        7.023        1.536      329.582       66.215        0.040      334.103        3.852      860.114
11/03/2013  04:11:00     -106.025      432.434      -47.577       96.144      117.909       59.620     9243.648    13902.475     3554.546       11.360        1.335      445.242       51.793        0.014      334.054        3.771      860.107
11/03/2013  04:12:00     -107.167      342.444      -37.044      118.847      127.849       70.968    14124.702    16345.316     5036.420        8.281        1.775      358.821       73.135        0.042      334.068        3.795      860.096
11/03/2013  04:13:00     -163.448      299.162      -41.481       99.339      139.468       57.748     9868.271    19451.234     3334.805        7.529        1.633      340.900       61.790        0.033      334.060        3.780      860.091
11/03/2013  04:14:00      -65.015      248.897      -34.655       82.158      123.912       51.450     6749.925    15354.184     2647.136        4.606        1.238      257.249       52.951        0.042      334.102        3.849      860.096
11/03/2013  04:15:00     -119.840      413.202      -41.375      109.930      130.050       71.676    12084.626    16912.940     5137.445       11.047        1.707      430.230       67.858        0.025      334.052        3.768      860.100
11/03/2013  04:16:00     -114.651      290.018      -25.723       97.537      117.992       57.284     9513.408    13922.139     3281.492        6.231        1.336      311.858       63.323        0.041      334.108        3.860      860.106
11/03/2013  04:17:00      -91.336      305.030      -41.894       93.752      140.400       49.999     8789.399    19712.283     2499.894        6.707        1.550      318.411       53.837        0.029      334.104        3.853      860.102
11/03/2013  04:18:00      -74.874      400.282      -46.695       95.050      129.025       57.979     9034.564    16647.494     3361.594        9.852        1.452      407.224       57.214        0.020      334.073        3.801      860.094
11/03/2013  04:19:00     -110.180      287.881      -21.600      105.161      133.787       71.101    11058.856    17899.005     5055.404        6.474        1.701      308.245       73.188        0.056      334.107        3.858      860.066
11/03/2013  04:20:00     -121.899      176.838      -31.600       80.725      106.412       52.702     6516.495    11323.550     2777.550        3.387        1.031      214.781       51.297        0.057      334.139        3.911      860.095
11/03/2013  04:21:00     -142.756      304.919      -39.531       91.476      109.868       70.771     8367.906    12071.054     5008.539        7.018        1.272      336.682       63.147        0.035      334.094        3.835      860.118
11/03/2013  04:22:00      -97.016      336.920      -35.657       82.662      124.479       58.642     6833.076    15494.963     3438.940        7.498        1.288      350.610       43.188        0.015      334.112        3.866      860.138
11/03/2013  04:23:00     -183.583      294.835      -57.862       96.676      107.704       52.392     9346.259    11600.055     2744.918        7.383        1.185      347.319       48.116        0.019      334.078        3.808      860.183
11/03/2013  04:24:00     -109.294      316.988      -20.402       98.565      109.807       64.189     9715.016    12057.471     4120.286        6.936        1.295      335.300       57.565        0.029      334.118        3.875      860.219
11/03/2013  04:25:00     -141.669      213.819      -18.043       92.048      102.552       58.168     8472.857    10516.953     3383.472        4.424        1.119      256.493       48.352        0.036      334.145        3.920      860.255
11/03/2013  04:26:00      -81.055      363.833      -29.339       80.501      159.743       63.843     6480.482    25517.842     4075.918        8.793        1.804      372.752       68.525        0.034      334.100        3.845      860.261
11/03/2013  04:27:00      -46.427      303.401      -27.977       67.801      113.624       41.358     4596.950    12910.410     1710.448        5.710        0.961      306.933       47.188        0.024      334.114        3.868      860.259
11/03/2013  04:28:00      -74.026      151.866       -7.579       76.312       83.935       39.988     5823.537     7045.121     1599.006        2.153        0.723      168.947       39.146        0.054      334.196        4.008      860.239
11/03/2013  04:29:00      -58.697      229.248       -9.739       66.545      112.579       60.704     4428.267    12674.002     3684.939        3.844        1.039      236.643       60.276        0.065      334.172        3.964      860.253
11/03/2013  04:30:00     -126.542      221.703      -25.515       89.075       78.959       51.018     7934.416     6234.600     2602.819        4.129        0.839      255.275       48.729        0.036      334.147        3.924      860.271
11/03/2013  04:31:00     -160.342      323.165      -52.168      110.591      121.106       64.875    12230.477    14666.688     4208.793        8.198        1.555      360.757       62.820        0.030      334.060        3.779      860.269
11/03/2013  04:32:00     -129.759      390.841      -44.769      115.112      129.996       72.665    13250.763    16898.961     5280.161       10.351        1.771      411.818       70.867        0.030      334.010        3.699      860.255
11/03/2013  04:33:00      -72.398      377.881      -35.436      116.029      136.576       75.862    13462.689    18652.969     5755.085        9.357        1.894      384.754       78.432        0.042      333.995        3.672      860.216
11/03/2013  04:34:00     -115.867      335.727      -42.213       71.296       94.232       45.751     5083.074     8879.587     2093.114        7.199        0.803      355.159       43.605        0.015      334.022        3.717      860.194
11/03/2013  04:35:00      -45.393      195.888      -15.359       82.050      115.668       57.999     6732.125    13379.082     3363.835        3.207        1.174      201.078       58.658        0.085      334.086        3.824      860.195
11/03/2013  04:36:00      -33.583      283.029      -30.524       58.775       82.452       39.096     3454.467     6798.307     1528.523        4.697        0.589      285.015       42.069        0.022      334.029        3.729      860.186
11/03/2013  04:37:00       -1.201      116.939       20.663       60.890      108.568       55.793     3707.617    11786.982     3112.889        1.635        0.930      116.945       52.570        0.202      334.139        3.913      860.182
11/03/2013  04:38:00      -44.525      164.074      -22.099       70.007       89.797       45.136     4900.963     8063.507     2037.216        2.219        0.750      170.008       52.119        0.094      334.078        3.813      860.181
11/03/2013  04:39:00     -140.020      164.891      -24.231      107.873      115.005       56.124    11636.563    13226.193     3149.883        3.769        1.401      216.321       43.328        0.040      334.043        3.752      860.192
11/03/2013  04:40:00     -148.190      190.095      -20.585       99.050       97.738       65.522     9810.838     9552.702     4293.128        4.108        1.183      241.032       47.249        0.038      334.028        3.726      860.182
11/03/2013  04:41:00      -81.827      157.743      -24.997       93.958       95.220       53.314     8828.085     9066.864     2842.358        2.647        1.037      177.704       39.815        0.050      334.075        3.806      860.200
11/03/2013  04:42:00      -92.693      312.429      -22.090       83.908      111.394       54.057     7040.567    12408.728     2922.128        6.453        1.119      325.889       49.480        0.023      334.025        3.722      860.216
11/03/2013  04:43:00     -128.525      251.916      -16.687       84.866      120.991       64.013     7202.207    14638.826     4097.617        5.309        1.297      282.808       50.462        0.032      334.025        3.720      860.225
11/03/2013  04:44:00     -111.041      242.915       -6.476      114.460      153.373       73.972    13101.149    23523.381     5471.836        5.673        2.105      267.092       82.270        0.095      334.040        3.748      860.222
11/03/2013  04:45:00     -124.584      192.884      -36.421      106.283       94.889       57.732    11296.071     9003.975     3332.962        3.884        1.182      229.620       59.355        0.067      334.052        3.767      860.221
11/03/2013  04:46:00     -105.708      152.075      -10.125       97.997      125.689       49.412     9603.336    15797.825     2441.537        3.112        1.392      185.205       51.130        0.076      334.110        3.864      860.240
11/03/2013  04:47:00     -145.656      262.565      -38.819      108.423      152.272       62.520    11755.626    23186.797     3908.796        6.525        1.943      300.260       78.025        0.068      334.048        3.761      860.285
11/03/2013  04:48:00     -156.110      185.466      -30.613      109.381      150.735       59.322    11964.194    22721.131     3519.107        4.895        1.910      242.421       68.866        0.081      334.070        3.796      860.311
11/03/2013  04:49:00     -266.194      237.850      -55.099      110.318      115.238       63.138    12170.170    13279.742     3986.374        7.995        1.472      356.976       65.133        0.033      334.000        3.681      860.323
11/03/2013  04:50:00     -250.739      251.912      -51.414      101.568      116.790       49.449    10316.069    13639.881     2445.208        7.768        1.320      355.428       42.828        0.015      334.005        3.690      860.327
11/03/2013  04:51:00     -160.128      154.298      -30.065       90.854      131.390       61.325     8254.516    17263.323     3760.807        3.981        1.464      222.371       68.819        0.096      334.034        3.739      860.319
11/03/2013  04:52:00     -155.291      162.625      -22.118       85.395      104.238       55.010     7292.373    10865.564     3026.068        3.611        1.059      224.860       45.642        0.041      334.042        3.750      860.303
11/03/2013  04:53:00     -176.034       94.430      -33.575      114.623       78.625       54.684    13138.393     6181.926     2990.311        3.167        1.116      199.762       69.648        0.122      334.053        3.770      860.291
11/03/2013  04:54:00     -123.158       55.847      -17.632      108.066       95.950       59.790    11678.217     9206.487     3574.863        2.152        1.223      135.229       42.410        0.098      334.074        3.805      860.271
11/03/2013  04:55:00     -198.848      -30.353      -34.512       67.974       55.599       39.695     4620.403     3091.276     1575.660        2.547        0.464      201.151       28.131        0.020      334.051        3.764      860.283
11/03/2013  04:56:00     -213.146      -41.753      -13.923      152.900       98.062       49.862    23378.537     9616.213     2486.267        4.142        1.774      217.197       57.498        0.070      334.059        3.779      860.274
11/03/2013  04:57:00      -78.030       32.581        5.989       85.846       78.249       45.195     7369.581     6122.954     2042.627        1.136        0.777       84.559       35.033        0.172      334.054        3.771      860.294
11/03/2013  04:58:00     -204.709       91.799      -27.084      122.924       67.546       49.178    15110.211     4562.467     2418.514        3.658        1.105      224.350       54.263        0.058      334.036        3.741      860.312
11/03/2013  04:59:00     -171.214       17.780      -29.482       92.355       81.660       48.937     8529.495     6668.387     2394.836        2.404        0.880      172.134       38.310        0.050      334.058        3.779      860.318
11/03/2013  05:00:00     -271.815      -16.642       -9.107      115.943      120.687       53.598    13442.881    14565.320     2872.714        5.256        1.544      272.324       47.801        0.031      333.977        3.642      860.336
11/03/2013  05:01:00     -156.910      126.281      -27.717       96.295      147.354       71.359     9272.761    21713.148     5092.061        3.870        1.804      201.414       59.578        0.087      333.999        3.680      860.366
11/03/2013  05:02:00     -118.975      186.176      -11.908       75.861      105.039       55.529     5754.816    11033.117     3083.441        3.441        0.994      220.945       58.199        0.069      334.044        3.755      860.365
11/03/2013  05:03:00      -98.355       42.265       -3.112       74.600       61.186       45.113     5565.102     3743.742     2035.147        1.140        0.567      107.052       32.129        0.090      334.021        3.719      860.361
11/03/2013  05:04:00     -123.724       21.438       -9.086      173.154       77.720       58.930    29982.270     6040.426     3472.786        2.767        1.975      125.567       70.766        0.318      333.975        3.641      860.357
11/03/2013  05:05:00     -107.937      147.853      -15.674       70.897      114.165       58.666     5026.355    13033.739     3441.716        2.763        1.075      183.060       56.980        0.097      334.008        3.695      860.363
11/03/2013  05:06:00     -136.258      191.748      -46.981      117.501      107.037       65.138    13806.558    11456.890     4242.972        4.352        1.475      235.231       60.728        0.067      333.978        3.646      860.372
11/03/2013  05:07:00     -148.418      227.577      -32.448      107.723       92.548       56.967    11604.191     8565.040     3245.210        4.914        1.171      271.697       60.629        0.050      333.910        3.531      860.365
11/03/2013  05:08:00     -109.014      249.830      -26.159       54.013       67.711       46.464     2917.357     4584.735     2158.865        4.232        0.483      272.578       29.496        0.012      333.916        3.541      860.365
11/03/2013  05:09:00     -114.701      251.157      -27.162       65.554       93.808       42.995     4297.306     8799.967     1848.574        4.596        0.747      276.109       43.843        0.025      333.892        3.503      860.380
11/03/2013  05:10:00     -106.700       70.176      -15.283       65.589       84.786       40.361     4301.851     7188.657     1628.978        1.483        0.656      127.709       27.257        0.046      333.964        3.624      860.416
11/03/2013  05:11:00      -59.086       98.325        7.026       78.175       63.676       43.606     6111.305     4054.613     1901.493        1.264        0.603      114.713       31.772        0.077      333.984        3.656      860.434
11/03/2013  05:12:00     -129.602      173.895      -28.316       86.348      105.717       62.827     7455.910    11176.057     3947.207        3.520        1.129      216.878       59.003        0.074      333.890        3.499      860.452
11/03/2013  05:13:00     -108.647      200.159      -15.259       95.850      125.394       55.187     9187.158    15723.746     3045.576        4.002        1.398      227.745       49.516        0.047      333.884        3.489      860.441
11/03/2013  05:14:00     -237.530      219.579      -54.252       70.681       94.817       47.960     4995.873     8990.330     2300.125        6.193        0.814      323.474       42.881        0.018      333.866        3.457      860.439
11/03/2013  05:15:00     -145.378       93.866      -21.082       72.348      104.276       48.370     5234.205    10873.556     2339.639        2.442        0.922      173.048       54.848        0.100      333.850        3.432      860.448
11/03/2013  05:16:00     -149.642      208.498      -30.329       91.464       77.471       49.119     8365.692     6001.696     2412.721        4.178        0.839      256.641       41.603        0.026      333.893        3.503      860.439
11/03/2013  05:17:00     -232.105      135.018      -32.751       81.830      102.529       54.470     6696.093    10512.140     2966.957        4.667        1.009      268.520       48.997        0.033      333.876        3.474      860.446
11/03/2013  05:18:00     -150.746      149.778      -18.966       89.144       86.025       55.078     7946.591     7400.261     3033.587        3.195        0.919      212.504       60.511        0.081      333.902        3.520      860.471
11/03/2013  05:19:00     -196.624      198.139      -22.117      103.942      118.510       66.725    10803.981    14044.664     4452.237        5.385        1.465      279.142       63.030        0.051      333.847        3.426      860.506
11/03/2013  05:20:00     -151.538      202.628      -26.507       75.560      121.303       60.443     5709.343    14714.331     3653.353        4.440        1.204      253.026       46.088        0.033      333.882        3.485      860.505
11/03/2013  05:21:00     -218.597      184.451      -53.401       87.351       98.264       55.956     7630.227     9655.879     3131.118        5.253        1.021      286.019       61.412        0.046      333.849        3.431      860.514
11/03/2013  05:22:00      -96.988       57.801      -14.494       57.307       84.993       34.882     3284.139     7223.870     1216.772        1.234        0.586      112.906       28.741        0.065      333.924        3.558      860.518
11/03/2013  05:23:00     -110.354       78.447      -16.207       66.482       88.822       49.256     4419.835     7889.341     2426.182        1.666        0.737      135.396       51.511        0.145      333.934        3.573      860.541
11/03/2013  05:24:00     -148.351      138.949      -27.275       72.713       79.497       44.780     5287.148     6319.761     2005.245        2.783        0.681      203.261       40.070        0.039      333.905        3.523      860.561
11/03/2013  05:25:00     -184.356      237.408      -35.263      110.019      102.023       67.150    12104.282    10408.793     4509.120        5.930        1.351      300.583       68.329        0.052      333.878        3.479      860.565
11/03/2013  05:26:00     -211.306      159.942      -31.679      104.373       83.177       58.294    10893.774     6918.416     3398.185        4.622        1.061      265.012       58.191        0.048      333.885        3.490      860.576
11/03/2013  05:27:00     -115.156      124.458      -13.878       77.320       74.775       42.559     5978.331     5591.239     1811.247        2.116        0.669      169.560       34.672        0.042      333.912        3.536      860.584
11/03/2013  05:28:00     -126.698      132.795      -18.752       73.592       81.778       46.881     5415.789     6687.584     2197.839        2.417        0.715      183.540       43.911        0.057      333.954        3.607      860.593
11/03/2013  05:29:00     -150.087      104.665      -24.057       55.387       78.752       37.373     3067.725     6201.905     1396.707        2.236        0.533      182.977       35.860        0.038      333.917        3.545      860.581
11/03/2013  05:30:00      -93.555      107.191      -18.396       48.230      125.882       38.952     2326.092    15846.262     1517.231        2.013        0.984      142.276       30.269        0.045      333.991        3.667      860.566
11/03/2013  05:31:00      -99.352      -15.553       -2.568       73.840       67.844       38.220     5452.302     4602.844     1460.777        1.082        0.576      100.562       24.318        0.058      334.023        3.721      860.543
11/03/2013  05:32:00      -43.986       71.424        4.328       42.122       58.247       35.386     1774.276     3392.691     1252.161        0.674        0.321       83.882       39.895        0.226      334.029        3.732      860.535
11/03/2013  05:33:00     -143.227       92.085      -26.030       85.682       53.948       32.443     7341.333     2910.361     1052.560        2.049        0.565      170.275       28.942        0.029      334.005        3.690      860.530
11/03/2013  05:34:00     -129.884       85.252      -13.783       81.295       69.843       40.636     6608.910     4878.075     1651.264        1.873        0.657      155.363       41.358        0.071      334.023        3.722      860.527
11/03/2013  05:35:00     -190.104      161.401      -35.202      103.790      110.583       53.751    10772.284    12228.707     2889.179        4.466        1.295      249.379       41.235        0.027      333.983        3.652      860.512
11/03/2013  05:36:00     -182.896      222.315      -41.720       84.073       79.146       52.754     7068.275     6264.031     2782.985        5.036        0.806      287.880       47.611        0.027      333.958        3.610      860.496
11/03/2013  05:37:00     -122.961      111.495      -18.800       96.842      117.570       51.289     9378.335    13822.637     2630.515        2.686        1.292      165.983       40.171        0.059      334.036        3.742      860.484
11/03/2013  05:38:00     -185.135      130.404      -32.576       88.023       70.093       48.680     7748.107     4913.019     2369.700        3.368        0.752      226.451       44.557        0.039      333.983        3.654      860.482
11/03/2013  05:39:00     -148.274      254.419      -34.965       86.245       97.311       48.891     7438.276     9469.466     2390.318        5.361        0.965      294.473       47.278        0.026      333.964        3.620      860.484
11/03/2013  05:40:00     -143.697      131.840      -28.711       59.919       83.841       38.263     3590.304     7029.314     1464.049        2.547        0.604      195.014       32.512        0.028      334.002        3.685      860.477
11/03/2013  05:41:00     -209.051      149.811      -31.837       86.278       99.537       57.668     7443.825     9907.538     3325.607        4.391        1.034      257.188       51.867        0.041      333.936        3.575      860.474
11/03/2013  05:42:00      -94.081      137.454      -25.597       66.676       69.003       42.191     4445.715     4761.371     1780.110        1.969        0.549      166.568       36.361        0.048      333.999        3.681      860.474
11/03/2013  05:43:00     -193.455      200.184      -36.037       99.454       99.925       52.152     9891.076     9984.926     2719.829        5.069        1.130      278.385       46.279        0.028      333.929        3.562      860.476
11/03/2013  05:44:00     -114.749      237.840      -16.158       77.171      103.272       62.268     5955.362    10665.145     3877.324        4.524        1.025      264.074       48.237        0.033      333.975        3.638      860.477
11/03/2013  05:45:00      -76.013      125.031       -5.967       77.554       94.259       48.612     6014.647     8884.798     2363.091        1.935        0.863      146.324       43.071        0.087      334.031        3.734      860.488
11/03/2013  05:46:00     -120.629      142.597      -21.214       87.821      163.385       54.730     7712.501    26694.596     2995.385        3.636        1.870      186.776       64.021        0.117      333.973        3.636      860.493
11/03/2013  05:47:00     -202.743      127.629      -42.465      100.697       93.050       52.405    10139.790     8658.354     2746.242        4.037        1.077      239.571       54.184        0.051      333.932        3.568      860.513
11/03/2013  05:48:00     -140.785       59.222      -12.540       82.593       91.535       45.793     6821.584     8378.638     2097.019        2.039        0.865      152.734       30.283        0.039      333.930        3.567      860.526
11/03/2013  05:49:00     -140.630       34.087      -16.851       95.933      144.626       62.044     9203.121    20916.808     3849.469        2.759        1.698      144.702       57.518        0.158      333.920        3.549      860.544
11/03/2013  05:50:00     -134.552       74.745      -17.910       85.991       85.721       54.526     7394.435     7348.030     2973.075        2.086        0.886      153.919       41.212        0.072      333.898        3.513      860.566
11/03/2013  05:51:00     -102.650       83.913       -6.463      100.803       81.459       60.303    10161.340     6635.622     3636.396        1.902        1.022      132.584       51.625        0.152      333.942        3.587      860.589
11/03/2013  05:52:00     -107.928       50.290      -16.378      107.356       66.547       49.983    11525.363     4428.542     2498.344        1.645        0.923      119.070       58.140        0.238      333.960        3.617      860.623
11/03/2013  05:53:00      -77.508       18.417      -26.138       69.113       46.342       34.535     4776.611     2147.566     1192.643        0.757        0.406       79.666       25.257        0.101      333.963        3.621      860.636
11/03/2013  05:54:00     -153.225      165.461      -35.017      106.818       70.073       54.898    11410.116     4910.202     3013.833        3.570        0.967      225.512       52.903        0.055      333.867        3.460      860.666
11/03/2013  05:55:00     -120.464      163.268      -21.419       83.119      109.440       45.023     6908.822    11977.097     2027.060        3.127        1.046      202.899       57.869        0.081      333.901        3.518      860.674
11/03/2013  05:56:00     -127.275      188.601      -23.875       68.080       94.338       49.917     4634.821     8899.695     2491.664        3.418        0.801      227.529       45.045        0.039      333.851        3.433      860.686
11/03/2013  05:57:00     -130.136      178.701      -30.572       75.456       68.072       42.467     5693.682     4633.753     1803.472        3.097        0.607      221.064       34.110        0.024      333.908        3.526      860.713
11/03/2013  05:58:00     -101.560      192.791      -17.780      107.988       95.665       53.812    11661.401     9151.748     2895.706        3.575        1.185      217.906       56.866        0.068      333.868        3.460      860.732
11/03/2013  05:59:00     -133.368      229.467      -32.924       80.299       90.165       47.752     6447.943     8129.796     2280.297        4.419        0.843      265.410       50.048        0.036      333.746        3.259      860.752
11/03/2013  06:00:00     -102.856      224.855      -34.138       64.592       83.874       42.899     4172.077     7034.931     1840.334        3.767        0.652      247.264       44.161        0.032      333.802        3.351      860.767
11/03/2013  06:01:00      -69.450      214.760      -22.454       71.605       60.900       48.944     5127.228     3708.765     2395.556        3.134        0.562      225.710       42.222        0.035      333.831        3.400      860.776
11/03/2013  06:02:00      -65.372      268.050      -23.893       67.698       92.491       44.546     4582.964     8554.658     1984.337        4.591        0.756      275.907       48.204        0.031      333.800        3.347      860.779
11/03/2013  06:03:00     -210.831      277.380      -64.990       85.249       70.404       39.941     7267.373     4956.724     1595.263        6.971        0.691      348.410       40.298        0.013      333.740        3.248      860.770
11/03/2013  06:04:00      -89.448      195.973      -30.155       63.072       78.452       51.262     3978.070     6154.788     2627.789        3.004        0.638      215.421       48.173        0.050      333.773        3.305      860.768
11/03/2013  06:05:00      -97.100      216.681      -22.389       81.411       99.927       53.540     6627.752     9985.347     2866.549        3.818        0.974      237.443       61.644        0.067      333.809        3.363      860.752
11/03/2013  06:06:00     -173.411      194.931      -26.125       96.424      105.352       58.196     9297.527    11099.121     3386.804        4.626        1.189      260.901       56.744        0.047      333.753        3.270      860.740
11/03/2013  06:07:00     -217.372      265.181      -44.683       81.868      165.644       60.900     6702.363    27437.835     3708.862        7.870        1.892      342.887       62.770        0.034      333.702        3.184      860.735
11/03/2013  06:08:00     -129.276      162.610      -20.048       87.353       81.730       52.246     7630.530     6679.830     2729.631        3.030        0.852      207.736       42.365        0.042      333.742        3.252      860.715
11/03/2013  06:09:00     -171.478      109.249      -36.273      108.897      100.691       46.740    11858.544    10138.612     2184.609        3.341        1.209      203.322       44.423        0.048      333.767        3.293      860.720
11/03/2013  06:10:00     -190.561      207.213      -45.708       66.817       98.659       46.871     4464.523     9733.589     2196.863        4.886        0.820      281.515       44.357        0.025      333.713        3.202      860.732
11/03/2013  06:11:00     -199.394      129.482      -40.136      116.397       78.744       38.334    13548.324     6200.619     1469.511        3.967        1.061      237.747       39.954        0.028      333.740        3.250      860.730
11/03/2013  06:12:00     -246.149      286.078      -58.339      113.398      190.505       69.392    12859.217    36292.024     4815.270        9.989        2.698      377.398       74.268        0.039      333.640        3.083      860.738
11/03/2013  06:13:00     -251.974      322.227      -61.580      114.006      162.500       63.552    12997.291    26406.341     4038.814       10.727        2.172      409.049       64.042        0.025      333.625        3.059      860.757
11/03/2013  06:14:00     -152.151      224.099      -30.870       80.990       96.884       57.610     6559.309     9386.534     3318.950        4.679        0.963      270.869       53.485        0.039      333.689        3.165      860.771
11/03/2013  06:15:00     -132.521      147.151      -18.414      107.289       98.990       56.600    11510.836     9799.115     3203.557        3.203        1.226      198.028       55.387        0.078      333.714        3.207      860.788
11/03/2013  06:16:00     -195.700      214.465      -29.705      116.779       89.681       75.460    13637.275     8042.617     5694.235        5.627        1.369      290.333       70.189        0.058      333.641        3.086      860.788
11/03/2013  06:17:00     -197.899      293.901      -34.653      166.664      128.407       84.019    27776.836    16488.409     7059.146        8.903        2.566      354.319       95.384        0.072      333.551        2.938      860.792
11/03/2013  06:18:00     -183.660      308.850      -47.864      126.973      127.938       74.959    16122.021    16368.034     5618.848        8.475        1.905      359.331       71.637        0.040      333.541        2.919      860.798
11/03/2013  06:19:00     -158.144      217.863      -23.298      119.734      129.121       79.944    14336.199    16672.271     6391.004        5.520        1.870      269.210       87.161        0.105      333.582        2.989      860.815
11/03/2013  06:20:00     -205.790      314.096      -50.394      110.081      133.017       67.007    12117.886    17693.502     4489.921        8.892        1.715      375.507       70.422        0.035      333.514        2.874      860.799
11/03/2013  06:21:00     -169.474      300.477      -43.115      106.292      134.354       73.368    11297.989    18051.047     5382.923        7.779        1.737      344.975       70.200        0.041      333.530        2.902      860.789
11/03/2013  06:22:00     -158.328      191.935       -8.417      130.570      127.361       63.612    17048.404    16220.792     4046.425        4.964        1.866      248.811       63.002        0.064      333.570        2.969      860.790
11/03/2013  06:23:00     -186.909      274.096      -36.558      111.600      108.336       72.458    12454.499    11736.760     5250.165        7.042        1.472      331.758       69.429        0.044      333.488        2.831      860.810
11/03/2013  06:24:00     -188.279      334.511      -53.213      116.998      133.096       55.083    13688.523    17714.545     3034.192        9.230        1.722      383.857       60.951        0.025      333.463        2.791      860.821
11/03/2013  06:25:00     -154.025      315.642      -40.559      121.245      133.573       66.169    14700.249    17841.614     4378.291        8.095        1.846      351.218       69.474        0.039      333.495        2.843      860.847
11/03/2013  06:26:00     -150.940      229.748      -25.933      108.549      104.833       66.093    11782.923    10989.929     4368.309        5.169        1.357      274.894       69.694        0.064      333.512        2.873      860.874
11/03/2013  06:27:00      -63.649      177.431      -23.588       53.668       75.348       41.729     2880.287     5677.337     1741.306        2.319        0.515      188.502       44.212        0.055      333.609        3.033      860.873
11/03/2013  06:28:00      -90.919      185.047       -2.686       76.166      122.183       53.689     5801.310    14928.692     2882.512        3.306        1.181      206.176       36.457        0.031      333.608        3.032      860.884
11/03/2013  06:29:00     -147.680      202.129      -17.404       84.912      104.021       64.217     7209.976    10820.442     4123.773        4.256        1.108      250.331       58.746        0.055      333.495        2.845      860.892
11/03/2013  06:30:00     -161.893      212.161      -33.661      101.089      132.659       50.178    10219.084    17598.454     2517.802        5.134        1.517      266.874       52.000        0.038      333.535        2.910      860.891
11/03/2013  06:31:00     -188.626      252.771      -53.014       88.398       99.312       56.749     7814.291     9862.958     3220.482        6.159        1.045      315.393       41.913        0.018      333.507        2.861      860.902
11/03/2013  06:32:00     -103.720      293.667      -28.147       78.942      111.818       53.681     6231.772    12503.293     2881.654        5.970        1.081      311.445       54.728        0.031      333.532        2.906      860.912
11/03/2013  06:33:00     -180.743      147.922      -30.520      100.429       69.098       53.495    10085.965     4774.490     2861.687        3.660        0.886      233.557       54.028        0.054      333.565        2.960      860.924
11/03/2013  06:34:00     -178.340      228.671      -37.706       77.853      110.525       43.411     6061.099    12215.713     1884.532        5.284        1.008      289.993       51.452        0.031      333.511        2.869      860.953
11/03/2013  06:35:00     -102.385      150.159      -19.204       74.113       70.294       50.071     5492.759     4941.224     2507.146        2.317        0.647      181.743       55.353        0.093      333.561        2.954      860.969
11/03/2013  06:36:00     -120.402      174.258      -25.676       72.116       68.258       48.493     5200.773     4659.185     2351.602        2.886        0.611      211.808       48.108        0.052      333.551        2.937      860.964
11/03/2013  06:37:00     -143.306      165.830      -16.796       71.087       75.280       51.524     5053.360     5667.127     2654.698        3.084        0.669      219.172       42.473        0.038      333.543        2.923      860.951
11/03/2013  06:38:00     -104.250      184.741      -22.895       85.335       95.853       53.495     7282.132     9187.852     2861.761        3.242        0.967      212.126       49.092        0.054      333.559        2.951      860.940
11/03/2013  06:39:00     -114.613      300.860      -35.038       74.484       96.871       51.059     5547.909     9383.999     2606.982        6.121        0.877      321.951       44.594        0.019      333.489        2.833      860.954
11/03/2013  06:40:00     -138.385      264.030      -34.891       65.463       98.078       50.500     4285.373     9619.343     2550.277        5.326        0.823      298.098       39.940        0.018      333.474        2.809      860.977
11/03/2013  06:41:00     -164.667      139.796      -27.090      109.549       85.726       56.103    12000.918     7348.963     3147.517        3.494        1.125      216.005       58.614        0.074      333.500        2.853      861.002
11/03/2013  06:42:00     -199.467      196.725      -34.364      136.703      132.108       66.189    18687.814    17452.446     4381.006        6.009        2.026      280.157       77.569        0.077      333.453        2.775      861.016
11/03/2013  06:43:00     -275.373      201.225      -48.733       98.832      176.888       76.812     9767.806    31289.293     5900.042        8.282        2.348      341.059       87.981        0.067      333.427        2.732      861.032
11/03/2013  06:44:00     -204.482      222.955      -46.030       95.382       96.336       62.889     9097.704     9280.677     3954.967        5.798        1.117      302.526       60.590        0.040      333.485        2.826      861.028
11/03/2013  06:45:00     -160.717      194.810      -25.463       82.246      105.482       57.004     6764.325    11126.519     3249.493        4.278        1.057      252.549       49.332        0.038      333.463        2.791      861.019
11/03/2013  06:46:00     -247.517      260.408      -63.973       83.653       92.366       52.184     6997.796     8531.403     2723.217        7.571        0.913      359.273       45.197        0.016      333.463        2.790      861.017
11/03/2013  06:47:00     -208.314      269.847      -43.891      109.683      124.341       59.234    12030.287    15460.774     3508.654        7.456        1.550      340.899       63.237        0.034      333.441        2.755      861.026
11/03/2013  06:48:00     -205.156      187.621      -34.976       87.700       96.788       62.713     7691.336     9367.909     3932.896        4.975        1.050      278.012       54.706        0.039      333.456        2.778      861.008
11/03/2013  06:49:00     -155.897      236.182      -40.669       83.356      112.692       59.453     6948.222    12699.394     3534.643        5.246        1.159      282.994       54.622        0.037      333.453        2.775      860.994
11/03/2013  06:50:00     -221.858      238.891      -55.051      122.904      100.072       56.628    15105.410    10014.342     3206.716        6.882        1.416      326.021       52.871        0.026      333.435        2.745      860.967
11/03/2013  06:51:00     -132.026      207.275      -31.892       96.187      108.413       59.766     9251.916    11753.400     3571.921        4.299        1.229      245.751       43.406        0.031      333.469        2.801      860.975
11/03/2013  06:52:00     -202.206      203.101      -45.176      104.140      124.023       57.335    10845.198    15381.719     3287.343        5.684        1.476      286.595       71.668        0.063      333.458        2.783      860.970
11/03/2013  06:53:00     -249.412      245.543      -64.279      128.628      100.446       64.411    16545.194    10089.445     4148.727        7.870        1.539      349.996       64.737        0.034      333.433        2.739      860.988
11/03/2013  06:54:00     -185.880      225.674      -35.664       83.642      101.514       60.646     6995.989    10305.086     3677.909        5.386        1.049      292.370       52.583        0.032      333.446        2.763      861.017
11/03/2013  06:55:00     -176.355      336.824      -46.311       76.077      106.411       61.474     5787.699    11323.260     3779.020        8.379        1.044      380.199       61.128        0.026      333.420        2.719      861.052
11/03/2013  06:56:00     -178.409      170.969      -41.343       54.769       65.857       41.195     2999.643     4337.104     1697.024        3.590        0.452      247.103       33.071        0.018      333.491        2.836      861.054
11/03/2013  06:57:00     -172.750      172.236      -38.912      115.883      110.189       63.406    13428.878    12141.706     4020.379        4.530        1.480      243.942       64.876        0.071      333.497        2.849      861.041
11/03/2013  06:58:00     -202.090       87.092      -24.738      137.646      110.455       63.691    18946.466    12200.231     4056.507        4.211        1.760      220.058       51.306        0.054      333.433        2.741      861.053
11/03/2013  06:59:00     -110.216       61.880        0.863       62.841       71.775       40.017     3948.943     5151.678     1601.327        1.334        0.535      126.399       33.237        0.069      333.518        2.884      861.080
11/03/2013  07:00:00     -260.411      264.397      -61.026      114.685      164.073       64.161    13152.605    26919.804     4116.626        9.281        2.209      371.106       67.190        0.033      333.416        2.712      861.099
11/03/2013  07:01:00     -243.460      185.669      -40.601      112.915      129.133       68.683    12749.866    16675.265     4717.379        6.476        1.707      306.179       75.202        0.060      333.425        2.727      861.132
11/03/2013  07:02:00     -134.724      175.284      -16.486       78.736      122.611       54.966     6199.361    15033.520     3021.215        3.670        1.213      221.077       43.198        0.038      333.491        2.838      861.150
11/03/2013  07:03:00     -124.946      113.351      -24.218       53.337       73.998       41.618     2844.866     5475.679     1732.085        1.955        0.503      168.700       31.000        0.034      333.508        2.865      861.156
11/03/2013  07:04:00     -127.372      149.449      -22.292       69.340       89.994       52.172     4808.086     8098.985     2721.878        2.734        0.781      196.364       48.749        0.062      333.518        2.882      861.130
11/03/2013  07:05:00     -147.964      202.933      -16.085       91.268       80.917       51.045     8329.793     6547.498     2605.597        4.041        0.874      251.147       49.829        0.039      333.510        2.868      861.129
11/03/2013  07:06:00      -91.475      135.916      -13.773       55.019       93.902       43.007     3027.141     8817.612     1849.572        2.036        0.685      163.832       45.520        0.077      333.523        2.891      861.132
11/03/2013  07:07:00     -134.891      131.984      -22.124       80.193       84.923       46.401     6430.924     7211.858     2153.067        2.595        0.790      188.720       48.337        0.066      333.527        2.897      861.138
11/03/2013  07:08:00     -200.237      198.825      -28.639       83.920      127.457       60.026     7042.639    16245.311     3603.116        5.366        1.345      282.181       60.698        0.046      333.466        2.795      861.162
11/03/2013  07:09:00     -148.959      274.096      -33.391       92.278      152.890       59.254     8515.196    23375.472     3511.055        6.691        1.770      311.957       59.908        0.037      333.452        2.772      861.202
11/03/2013  07:10:00     -163.744      195.743      -29.876       86.096      105.651       57.509     7412.588    11162.148     3307.329        4.395        1.094      255.201       61.185        0.057      333.441        2.754      861.232
11/03/2013  07:11:00     -242.256      228.093      -53.359      101.695       95.077       59.203    10341.858     9039.563     3504.940        6.822        1.144      332.737       59.548        0.032      333.453        2.774      861.237
11/03/2013  07:12:00     -192.795      219.099      -46.010       64.239      102.193       42.297     4126.617    10443.469     1789.032        5.182        0.818      291.847       39.342        0.018      333.463        2.789      861.245
11/03/2013  07:13:00     -124.684      221.336      -24.043       69.063      130.951       48.393     4769.734    17148.135     2341.884        4.468        1.213      254.039       54.382        0.046      333.505        2.861      861.256
11/03/2013  07:14:00     -145.613      219.606      -34.197       49.443       74.719       39.383     2444.633     5582.975     1551.034        4.009        0.479      263.496       28.401        0.012      333.529        2.900      861.277
11/03/2013  07:15:00     -170.485      138.148      -23.312       65.198       95.010       41.987     4250.716     9026.953     1762.913        3.186        0.752      219.431       42.707        0.038      333.546        2.929      861.291
11/03/2013  07:16:00     -146.301      167.753      -26.265       83.101       92.639       47.054     6905.844     8581.979     2214.100        3.397        0.885      222.587       47.106        0.045      333.548        2.932      861.299
11/03/2013  07:17:00     -135.564      125.941      -26.770       84.174       72.775       46.696     7085.247     5296.268     2180.547        2.476        0.728      185.037       44.605        0.058      333.558        2.949      861.313
11/03/2013  07:18:00     -160.951       81.492      -18.838      115.503       75.752       56.432    13341.046     5738.400     3184.604        2.758        1.113      180.405       64.970        0.130      333.597        3.014      861.331
11/03/2013  07:19:00     -172.438      164.329      -37.176       79.704       88.453       52.313     6352.788     7823.980     2736.605        3.751        0.846      238.199       56.161        0.056      333.571        2.969      861.358
11/03/2013  07:20:00     -149.912      143.145      -24.127       57.452       73.697       44.605     3300.685     5431.237     1989.607        2.713        0.536      207.278       40.128        0.037      333.590        3.003      861.379
11/03/2013  07:21:00     -115.056      165.211      -28.489       72.326      108.624       47.437     5231.040    11799.147     2250.276        3.031        0.964      201.327       44.224        0.048      333.625        3.061      861.387
11/03/2013  07:22:00     -196.566      172.048      -40.900       75.265       86.742       51.603     5664.762     7524.173     2662.868        4.288        0.793      261.225       50.783        0.038      333.588        2.998      861.371
11/03/2013  07:23:00      -95.862       91.863      -10.472      101.862       89.091       49.704    10375.820     7937.216     2470.457        1.926        1.039      132.772       46.334        0.122      333.649        3.101      861.363
11/03/2013  07:24:00      -99.793      130.901      -20.333       50.918       81.200       37.120     2592.615     6593.505     1377.872        1.903        0.528      164.602       29.201        0.031      333.630        3.068      861.363
11/03/2013  07:25:00     -116.404      209.368      -25.191       56.298       59.061       43.386     3169.495     3488.213     1882.326        3.328        0.427      239.551       37.011        0.024      333.638        3.080      861.364
11/03/2013  07:26:00      -83.512      184.168      -13.802       53.793       70.788       42.641     2893.705     5010.915     1818.277        2.540        0.486      202.218       40.480        0.040      333.622        3.055      861.362
11/03/2013  07:27:00     -143.042      223.840      -39.721       73.674       77.926       35.124     5427.887     6072.524     1233.707        4.244        0.637      265.641       24.942        0.009      333.602        3.019      861.354
11/03/2013  07:28:00      -91.537      108.037       -5.079       81.915       74.204       45.955     6710.045     5506.208     2111.850        1.720        0.716      141.602       38.291        0.073      333.684        3.160      861.326
11/03/2013  07:29:00     -117.443      151.395      -29.084       84.489       65.354       43.842     7138.437     4271.154     1922.154        2.544        0.667      191.607       44.822        0.055      333.628        3.064      861.300
11/03/2013  07:30:00     -133.536      171.511      -18.850       80.240       79.853       51.962     6438.428     6376.453     2699.999        3.156        0.776      217.366       38.963        0.032      333.644        3.092      861.280
11/03/2013  07:31:00      -54.754      123.105        3.550       60.262      100.598       41.371     3631.490    10119.899     1711.582        1.681        0.773      134.733       45.008        0.112      333.702        3.190      861.253
11/03/2013  07:32:00     -130.586      102.207      -18.886       85.034       63.311       43.838     7230.722     4008.252     1921.802        2.051        0.658      165.828       31.180        0.035      333.674        3.141      861.243
11/03/2013  07:33:00     -166.733      216.181      -38.701       72.721       86.855       46.599     5288.307     7543.711     2171.448        4.552        0.750      273.009       48.123        0.031      333.613        3.038      861.254
11/03/2013  07:34:00     -106.068      146.628      -21.922       62.780       72.238       53.599     3941.377     5218.325     2872.829        2.263        0.602      180.970       50.321        0.077      333.644        3.093      861.256
11/03/2013  07:35:00     -134.757      144.822      -26.503       68.048       73.492       43.875     4630.581     5401.011     1925.057        2.589        0.598      197.821       40.630        0.042      333.622        3.057      861.259
11/03/2013  07:36:00      -77.123      201.227      -29.062       77.193      109.052       46.247     5958.692    11892.262     2138.797        3.363        0.999      215.500       30.976        0.021      333.611        3.036      861.263
11/03/2013  07:37:00     -114.022      140.219      -15.780       60.433       78.295       43.823     3652.115     6130.161     1920.488        2.231        0.585      180.727       31.645        0.031      333.646        3.097      861.273
11/03/2013  07:38:00      -60.758      137.422        2.528       76.768      106.463       47.380     5893.343    11334.432     2244.891        2.102        0.974      150.254       60.853        0.164      333.706        3.193      861.283
11/03/2013  07:39:00      -52.618      115.173       -1.368       54.930       73.051       41.599     3017.279     5336.435     1730.453        1.306        0.504      126.623       44.199        0.122      333.842        3.421      861.302
11/03/2013  07:40:00      -49.456      203.834      -21.616       74.625       57.629       37.805     5568.909     3321.084     1429.183        2.739        0.516      209.748       28.296        0.018      333.717        3.213      861.320
11/03/2013  07:41:00       -9.735      126.987      -14.155       68.873       95.854       39.951     4743.493     9187.946     1596.079        1.597        0.776      127.359       51.509        0.164      333.732        3.239      861.332
11/03/2013  07:42:00       -4.389      242.848      -31.726       47.820       70.575       39.296     2286.719     4980.776     1544.202        3.440        0.441      242.888       34.916        0.021      333.632        3.071      861.314
11/03/2013  07:43:00      -24.781      123.910       -1.466       46.838       69.029       41.114     2193.826     4764.938     1690.360        1.231        0.432      126.364       36.061        0.081      333.796        3.345      861.296
11/03/2013  07:44:00      -51.867      166.254      -16.676       72.485       79.989       40.325     5254.141     6398.226     1626.145        2.194        0.664      174.157       45.496        0.068      333.696        3.178      861.296
11/03/2013  07:45:00      -31.801      214.563      -21.049       60.183       68.266       41.964     3621.943     4660.270     1760.953        2.877        0.502      216.907       39.473        0.033      333.695        3.176      861.294
11/03/2013  07:46:00      -25.744      224.746      -17.249       47.062      115.334       45.936     2214.839    13301.868     2110.136        3.455        0.881      226.216       55.453        0.060      333.697        3.180      861.303
11/03/2013  07:47:00      -15.034      261.125      -16.190       48.809       92.271       44.154     2382.298     8513.858     1949.614        4.076        0.642      261.557       41.456        0.025      333.652        3.103      861.318
11/03/2013  07:48:00      -31.405      344.094      -34.797       37.282       68.904       30.303     1389.941     4747.698      918.266        6.383        0.353      345.524       30.265        0.008      333.598        3.014      861.305
11/03/2013  07:49:00      -31.962      283.241      -32.886       72.998       64.696       36.548     5328.763     4185.571     1335.766        4.659        0.543      285.039       33.782        0.014      333.654        3.105      861.313
11/03/2013  07:50:00      -35.067      256.610      -19.798       47.298       80.053       47.825     2237.095     6408.522     2287.254        3.920        0.547      258.995       47.118        0.033      333.719        3.215      861.318
11/03/2013  07:51:00      -17.103      287.709      -33.139       51.801       67.585       35.376     2683.362     4567.722     1251.428        4.633        0.425      288.217       26.930        0.009      333.670        3.131      861.318
11/03/2013  07:52:00        2.256      291.517      -34.802       42.844       78.488       42.254     1835.626     6160.379     1785.373        4.799        0.489      291.526       33.311        0.013      333.694        3.173      861.293
11/03/2013  07:53:00      -15.965      245.652      -34.343       52.934       70.483       30.166     2802.045     4967.859      909.962        3.523        0.434      246.170       25.180        0.010      333.719        3.214      861.295
11/03/2013  07:54:00      -31.699      226.015      -24.306       48.623      122.272       35.059     2364.188    14950.426     1229.101        3.561        0.927      228.227       50.133        0.048      333.806        3.360      861.295
11/03/2013  07:55:00      -41.714      227.870      -26.251       69.465       59.430       38.405     4825.392     3531.946     1474.931        3.209        0.492      231.657       34.602        0.022      333.815        3.374      861.299
11/03/2013  07:56:00      -57.101      241.851      -26.640       56.220       54.770       39.494     3160.685     2999.723     1559.804        3.509        0.386      248.500       35.878        0.021      333.789        3.329      861.317
11/03/2013  07:57:00      -27.599      190.057       -9.670       47.954       50.342       32.925     2299.582     2534.358     1084.068        2.145        0.296      192.050       21.653        0.013      333.890        3.502      861.321
11/03/2013  07:58:00       10.538      161.860       -1.238       55.142       89.726       47.140     3040.613     8050.698     2222.167        1.981        0.666      162.203       52.453        0.105      333.937        3.577      861.364
11/03/2013  07:59:00       42.162      173.907      -17.487       60.104       81.746       44.862     3612.505     6682.489     2012.615        2.232        0.615      178.945       46.309        0.067      334.014        3.705      861.415
11/03/2013  08:00:00        5.970      118.441       -1.286       67.254       67.398       32.386     4523.053     4542.431     1048.880        1.209        0.506      118.591       33.737        0.081      334.066        3.793      861.456
11/03/2013  08:01:00       46.535       50.656       22.306       52.726       31.614       29.156     2780.020      999.417      850.068        0.493        0.231       68.786       13.934        0.041      334.178        3.979      861.470
11/03/2013  08:02:00       30.718       96.404      -17.704       54.274       87.408       40.746     2945.685     7640.096     1660.257        1.140        0.612      101.179       46.924        0.215      334.097        3.844      861.484
11/03/2013  08:03:00      -65.459      229.337      -18.094       51.305       90.545       38.465     2632.164     8198.458     1479.547        3.476        0.616      238.496       46.671        0.038      334.035        3.738      861.493
11/03/2013  08:04:00       13.917      172.011        3.900       44.809       69.781       48.511     2007.805     4869.404     2353.270        1.951        0.462      172.573       40.870        0.056      334.086        3.825      861.530
11/03/2013  08:05:00       16.889      156.574       -9.132       40.633       69.956       45.853     1651.046     4893.864     2102.501        1.676        0.432      157.482       42.496        0.073      334.033        3.738      861.546
11/03/2013  08:06:00      -46.629      240.310      -20.902       61.380       97.284       49.567     3767.505     9464.108     2456.847        3.802        0.784      244.792       52.312        0.046      333.988        3.661      861.571
11/03/2013  08:07:00     -108.710      162.524      -24.196       65.682       86.264       37.766     4314.130     7441.438     1426.296        2.600        0.659      195.530       42.535        0.047      334.140        3.913      861.581
11/03/2013  08:08:00     -112.407      192.761      -30.491       47.113       59.730       42.680     2219.632     3567.644     1821.548        2.916        0.380      223.141       34.633        0.024      333.958        3.611      861.607
11/03/2013  08:09:00      -58.673      138.757       -9.462       52.356       59.519       41.456     2741.161     3542.458     1718.626        1.539        0.400      150.652       37.791        0.063      334.210        4.032      861.621
11/03/2013  08:10:00      -31.985      226.428      -19.155       43.611       77.706       37.124     1901.925     6038.274     1378.170        3.099        0.466      228.676       38.809        0.029      334.066        3.790      861.624
11/03/2013  08:11:00       -2.725      189.398      -17.546       56.137       83.796       34.827     3151.418     7021.781     1212.937        2.378        0.569      189.418       40.723        0.046      334.125        3.888      861.622
11/03/2013  08:12:00       22.462      137.230      -19.757       33.210       53.751       37.529     1102.916     2889.170     1408.393        1.256        0.270      139.056       29.186        0.044      334.142        3.920      861.586
11/03/2013  08:13:00       39.732       63.287       -0.807       45.257       45.052       28.867     2048.151     2029.674      833.320        0.525        0.246       74.725       23.898        0.102      334.151        3.934      861.546
11/03/2013  08:14:00       -4.580      152.119      -15.675       47.739       89.214       29.137     2279.020     7959.099      848.977        1.725        0.554      152.188       38.296        0.063      334.044        3.756      861.530
11/03/2013  08:15:00       -7.237      222.791      -19.351       36.666       60.927       32.672     1344.368     3712.134     1067.460        2.809        0.306      222.908       29.817        0.018      334.044        3.754      861.516
11/03/2013  08:16:00      -56.100      241.662      -24.268       42.041       67.961       35.710     1767.446     4618.730     1275.207        3.490        0.383      248.088       31.911        0.017      334.004        3.686      861.515
11/03/2013  08:17:00      -37.492      183.778      -15.723       32.651       62.881       30.902     1066.116     3954.012      954.952        2.070        0.299      187.564       29.783        0.025      334.087        3.826      861.506
11/03/2013  08:18:00      -14.392      225.059      -25.771       45.138       74.235       33.692     2037.456     5510.900     1135.146        3.010        0.434      225.518       32.713        0.021      334.012        3.701      861.488
11/03/2013  08:19:00      -37.267      235.258      -33.399       72.108       66.376       33.929     5199.501     4405.729     1151.189        3.430        0.538      238.191       32.736        0.019      334.018        3.710      861.489
11/03/2013  08:20:00      -20.635       72.072        8.435       44.145       56.778       29.443     1948.780     3223.797      866.910        0.586        0.302       74.968       31.009        0.171      334.291        4.167      861.501
11/03/2013  08:21:00       21.425       82.910       14.128       64.242       53.693       46.560     4127.065     2882.887     2167.859        0.835        0.459       85.634       44.551        0.271      334.277        4.144      861.511
11/03/2013  08:22:00       17.595      166.910      -13.227       36.715       75.141       39.504     1347.997     5646.215     1560.533        1.845        0.428      167.834       44.452        0.070      334.136        3.907      861.516
11/03/2013  08:23:00      -11.707      128.432        3.687       45.550       56.684       38.887     2074.782     3213.044     1512.182        1.172        0.340      128.965       33.813        0.069      334.260        4.114      861.509
11/03/2013  08:24:00       75.644      132.448        6.623       72.938       91.710       65.581     5320.021     8410.716     4300.909        2.067        0.902      152.527       61.623        0.163      334.229        4.062      861.501
11/03/2013  08:25:00      128.181      107.460       11.031       74.698       56.231       46.934     5579.765     3161.940     2202.812        1.952        0.547      167.267       24.858        0.022      334.158        3.943      861.508
11/03/2013  08:26:00       55.178       96.068       -1.301       47.810       56.315       47.083     2285.840     3171.332     2216.845        0.997        0.384      110.786       42.460        0.147      334.240        4.081      861.512
11/03/2013  08:27:00       50.265      109.373        7.554       59.193       89.853       51.698     3503.869     8073.536     2672.643        1.440        0.713      120.370       50.033        0.173      334.240        4.081      861.514
11/03/2013  08:28:00       18.557      177.209      -13.170       46.543       80.362       42.140     2166.278     6458.030     1775.796        2.116        0.520      178.178       54.408        0.093      334.041        3.749      861.519
11/03/2013  08:29:00       29.753       58.037        2.471       33.356       36.326       32.084     1112.604     1319.549     1029.357        0.386        0.173       65.219       21.730        0.111      334.212        4.036      861.522
11/03/2013  08:30:00       72.248      131.546       -1.873       53.193       99.558       56.731     2829.493     9911.839     3218.376        1.924        0.798      150.081       61.825        0.170      334.101        3.850      861.523
11/03/2013  08:31:00       41.766      127.172        5.139       68.943       90.214       61.016     4753.173     8138.592     3722.958        1.728        0.831      133.855       57.943        0.187      334.121        3.882      861.522
11/03/2013  08:32:00       17.504      124.178        6.061       61.895       78.411       42.281     3830.939     6148.215     1787.688        1.376        0.588      125.405       42.773        0.116      334.210        4.032      861.524
11/03/2013  08:33:00       88.481       47.092        5.103       48.764       30.323       27.692     2377.900      919.491      766.821        0.707        0.203      100.232       13.111        0.017      334.269        4.132      861.518
11/03/2013  08:34:00       35.798       32.897        0.964       66.822       44.642       35.854     4465.187     1992.869     1285.508        0.505        0.387       48.618       29.559        0.370      334.331        4.233      861.504
11/03/2013  08:35:00        5.272       19.383       11.794       27.528       27.450       19.367      757.799      753.525      375.068        0.121        0.094       20.088       11.552        0.331      334.439        4.413      861.475
11/03/2013  08:36:00       -3.808       38.089        1.604       19.035       47.364       19.204      362.349     2243.377      368.797        0.222        0.149       38.279       26.369        0.475      334.494        4.504      861.434
11/03/2013  08:37:00       25.032      107.935      -13.017       38.984       90.054       36.193     1519.782     8109.740     1309.952        1.169        0.547      110.800       45.962        0.172      334.264        4.120      861.370
11/03/2013  08:38:00      -42.662      117.274      -12.442       73.895       81.540       36.956     5460.404     6648.730     1365.767        1.460        0.674      124.793       40.440        0.105      334.209        4.029      861.306
11/03/2013  08:39:00      -77.949      136.978      -16.795       48.104       61.396       36.690     2313.992     3769.455     1346.165        1.627        0.371      157.604       35.940        0.052      334.313        4.203      861.256
11/03/2013  08:40:00     -165.539      157.765      -38.557       66.050       64.282       39.918     4362.614     4132.172     1593.473        3.193        0.504      228.677       37.124        0.026      334.181        3.981      861.228
11/03/2013  08:41:00      -91.170      154.180      -17.499       50.297       45.327       35.406     2529.782     2054.523     1253.600        1.911        0.292      179.119       29.397        0.027      334.395        4.338      861.225
11/03/2013  08:42:00     -111.290      153.895      -28.282       42.572       50.292       32.240     1812.342     2529.258     1039.413        2.112        0.269      189.919       19.109        0.010      334.252        4.101      861.228
11/03/2013  08:43:00      -80.543       64.602      -13.126       55.346       44.327       32.414     3063.209     1964.856     1050.682        0.845        0.304      103.250       32.926        0.102      334.445        4.423      861.267
11/03/2013  08:44:00     -112.449       70.889       -8.191       77.667       53.745       32.934     6032.091     2888.533     1084.639        1.387        0.500      132.929       33.860        0.065      334.482        4.483      861.318
11/03/2013  08:45:00      -87.551      184.901      -24.676       54.339       74.993       36.708     2952.676     5623.998     1347.503        2.619        0.496      204.581       38.677        0.036      334.392        4.332      861.366
11/03/2013  08:46:00      -40.091      187.224      -14.124       34.309       89.264       33.838     1177.090     7968.077     1145.020        2.357        0.515      191.468       39.991        0.044      334.349        4.261      861.402
11/03/2013  08:47:00      -20.648      204.427      -17.441       35.707       76.024       33.401     1275.005     5779.681     1115.629        2.534        0.409      205.467       37.378        0.033      334.357        4.272      861.422
11/03/2013  08:48:00      -43.681      130.656       -9.851       50.069       66.266       32.503     2506.898     4391.209     1056.454        1.351        0.398      137.765       35.382        0.066      334.548        4.593      861.428
11/03/2013  08:49:00       -7.270      124.615        0.476       45.716       69.618       36.260     2089.915     4846.690     1314.757        1.192        0.413      124.827       37.969        0.093      334.601        4.681      861.427
11/03/2013  08:50:00       -0.957      139.694       -0.410       54.587       86.300       41.058     2979.746     7447.657     1685.792        1.581        0.606      139.697       38.017        0.074      334.712        4.863      861.419
11/03/2013  08:51:00       19.615      161.904       -7.192       68.102      116.705       56.130     4637.828    13620.023     3150.574        2.403        1.070      163.088       58.314        0.128      334.436        4.406      861.406
11/03/2013  08:52:00      -49.543      273.110      -28.917       53.519       69.777       33.143     2864.334     4868.850     1098.449        4.335        0.442      277.567       32.220        0.013      334.208        4.024      861.408
11/03/2013  08:53:00      -22.126      204.831      -25.327       42.094       63.092       28.569     1771.884     3980.579      816.166        2.483        0.328      206.022       32.782        0.025      334.307        4.189      861.414
11/03/2013  08:54:00       -3.565      118.248        3.207       58.786      117.940       37.749     3455.778    13909.781     1425.006        1.639        0.940      118.302       54.626        0.213      334.595        4.669      861.435
11/03/2013  08:55:00      -12.024      151.425      -18.801       41.174       50.642       31.163     1695.307     2564.627      971.112        1.433        0.262      151.902       31.385        0.043      334.464        4.453      861.465
11/03/2013  08:56:00      -90.894       73.527        6.639       86.282       60.879       54.628     7444.554     3706.289     2984.185        1.392        0.707      116.910       51.158        0.191      334.847        5.087      861.498
11/03/2013  08:57:00       -8.860      156.977      -13.846       47.655       73.974       36.764     2271.037     5472.163     1351.610        1.700        0.455      157.227       41.097        0.068      334.565        4.620      861.505
11/03/2013  08:58:00       -4.261      134.778       -5.768       28.557       62.878       34.777      815.526     3953.590     1209.424        1.210        0.299      134.845       39.481        0.086      334.685        4.821      861.494
11/03/2013  08:59:00      -22.469      197.867      -19.765       40.800       83.057       40.955     1664.619     6898.508     1677.285        2.514        0.512      199.138       47.475        0.057      334.618        4.707      861.492
11/03/2013  09:00:00       61.319      226.643      -21.804       78.885      160.085       74.795     6222.819    25627.151     5594.236        4.652        1.872      234.792       89.227        0.144      334.518        4.541      861.498
11/03/2013  09:01:00       94.671      120.552       -6.080       67.106       79.154       58.142     4503.266     6265.325     3380.476        1.884        0.707      153.282       53.009        0.120      334.546        4.588      861.523
11/03/2013  09:02:00       43.901       81.708        2.981       64.825       64.210       49.696     4202.243     4122.878     2469.699        0.970        0.540       92.755       44.318        0.228      334.632        4.731      861.536
11/03/2013  09:03:00       46.877       84.179       12.276       69.876       61.866       51.498     4882.629     3827.377     2652.025        1.040        0.568       96.351       35.955        0.139      334.703        4.849      861.543
11/03/2013  09:04:00      143.630      104.740       24.107       77.234       65.502       47.012     5965.074     4290.471     2210.143        2.232        0.623      177.764       35.072        0.039      334.475        4.469      861.527
11/03/2013  09:05:00      161.077      110.869       18.161       75.224       58.076       45.642     5658.644     3372.785     2083.177        2.484        0.556      195.544       23.621        0.015      334.460        4.444      861.500
11/03/2013  09:06:00      141.067      118.428       18.929      107.639       82.219       53.379    11586.154     6759.889     2849.326        2.774        1.060      184.187       51.074        0.077      334.505        4.519      861.484
11/03/2013  09:07:00      194.728      124.265        4.926       77.222       60.919       55.804     5963.281     3711.090     3114.142        3.308        0.639      230.999       34.472        0.022      334.433        4.397      861.455
11/03/2013  09:08:00      185.948      102.231       20.153       77.098       58.213       54.094     5944.042     3388.717     2926.150        2.884        0.613      212.197       36.499        0.030      334.568        4.623      861.436
11/03/2013  09:09:00      126.040       99.653       78.407      103.690       61.589       67.398    10751.631     3793.247     4542.521        2.552        0.954      160.676       68.264        0.181      334.535        4.567      861.402
11/03/2013  09:10:00      176.664      127.835      100.471       97.564       78.937       71.218     9518.788     6231.110     5071.949        3.923        1.041      218.065       64.392        0.087      334.477        4.471      861.396
11/03/2013  09:11:00       84.036       85.752       36.527       75.387       55.345       64.216     5683.268     3063.070     4123.752        1.431        0.644      120.064       43.612        0.132      334.528        4.559      861.403
11/03/2013  09:12:00       70.934      102.103      -16.257       47.962       38.860       38.191     2300.363     1510.128     1458.586        1.049        0.263      124.325       23.882        0.037      334.616        4.707      861.422
11/03/2013  09:13:00       79.143       90.563      -11.022       66.922       51.874       41.879     4478.491     2690.961     1753.828        1.175        0.446      120.272       31.315        0.068      334.758        4.942      861.430
11/03/2013  09:14:00      151.860       90.266       10.153       89.915       76.311       53.350     8084.770     5823.320     2846.217        2.403        0.838      176.662       46.971        0.071      334.624        4.718      861.442
11/03/2013  09:15:00       93.683      104.473       -7.115       61.423       61.903       47.131     3772.821     3831.983     2221.301        1.478        0.491      140.325       40.009        0.081      334.562        4.615      861.451
11/03/2013  09:16:00       34.535      181.243      -13.634       56.512       81.034       51.815     3193.606     6566.438     2684.798        2.333        0.622      184.504       51.012        0.076      334.556        4.605      861.465
11/03/2013  09:17:00       34.518      175.912      -10.151       58.197       87.630       58.583     3386.910     7679.010     3431.950        2.337        0.725      179.266       48.124        0.072      334.580        4.646      861.478
11/03/2013  09:18:00       89.570      145.249       -6.210       87.417       76.934       51.053     7641.765     5918.879     2606.398        2.266        0.808      170.645       52.814        0.096      334.545        4.586      861.490
11/03/2013  09:19:00       36.101      127.785       -8.434       53.336       65.354       44.543     2844.728     4271.134     1984.040        1.340        0.455      132.787       43.899        0.109      334.671        4.795      861.519
11/03/2013  09:20:00      -17.389       73.368      -13.751       32.803       38.670       24.977     1076.052     1495.357      623.869        0.453        0.160       75.401       19.882        0.070      334.542        4.584      861.549
11/03/2013  09:21:00     -100.114       90.517      -15.884       58.999       97.157       34.226     3480.891     9439.561     1171.445        1.628        0.705      134.967       31.735        0.055      334.600        4.677      861.560
11/03/2013  09:22:00      -28.172      121.871       -3.892       35.803       82.504       31.353     1281.871     6806.844      983.008        1.237        0.454      125.085       40.515        0.105      334.809        5.027      861.567
11/03/2013  09:23:00      -40.264      108.839      -10.104       50.455       67.751       37.987     2545.695     4590.197     1443.028        1.107        0.429      116.048       41.883        0.130      334.951        5.260      861.557
11/03/2013  09:24:00       -8.670      125.585        7.348       64.832       72.503       51.435     4203.225     5256.747     2645.604        1.400        0.605      125.884       42.033        0.111      335.013        5.365      861.554
11/03/2013  09:25:00       -1.063      292.555      -29.114       56.618      133.578       48.812     3205.567    17842.981     2382.649        5.493        1.172      292.557       65.662        0.050      334.605        4.686      861.551
11/03/2013  09:26:00      -60.594      267.972      -29.984       76.908       64.820       41.102     5914.815     4201.695     1689.397        4.409        0.590      274.737       31.044        0.013      334.630        4.724      861.542
11/03/2013  09:27:00     -125.690      133.187      -30.743       48.715       81.537       32.446     2373.106     6648.306     1052.751        2.228        0.504      183.130       29.269        0.026      334.475        4.469      861.552
11/03/2013  09:28:00      -16.477       56.241        6.820       63.885       35.364       39.231     4081.304     1250.613     1539.042        0.517        0.344       58.605       39.803        0.461      335.004        5.351      861.550
11/03/2013  09:29:00      -47.888       44.271       -6.904       29.349       31.878       20.211      861.371     1016.194      408.494        0.329        0.114       65.216       17.282        0.070      334.805        5.020      861.555
11/03/2013  09:30:00       34.281       90.242       -9.210       57.356       80.287       40.518     3289.754     6446.058     1641.675        1.039        0.569       96.534       49.330        0.261      334.855        5.103      861.564
11/03/2013  09:31:00       -0.004      162.449      -23.011       37.087       72.130       31.892     1375.482     5202.785     1017.085        1.726        0.380      162.449       38.284        0.056      334.647        4.757      861.564
11/03/2013  09:32:00      -25.431      109.033        2.671       50.148       85.631       38.070     2514.843     7332.704     1449.358        1.192        0.565      111.959       43.402        0.150      334.955        5.268      861.574
11/03/2013  09:33:00      -37.104      203.702      -27.328       83.158       56.657       36.529     6915.237     3209.961     1334.366        2.754        0.573      207.053       29.075        0.020      334.661        4.778      861.576
11/03/2013  09:34:00      -52.740      103.418      -14.376       62.626       52.060       31.410     3921.997     2710.203      986.579        1.065        0.381      116.089       31.611        0.074      334.821        5.046      861.578
11/03/2013  09:35:00      -56.866      197.137      -15.765       87.935       94.280       46.266     7732.551     8888.637     2140.512        3.055        0.938      205.175       49.870        0.059      334.748        4.922      861.583
11/03/2013  09:36:00     -131.016      157.085      -24.326       65.822       70.583       38.698     4332.505     4981.931     1497.534        2.662        0.541      204.550       39.696        0.038      334.766        4.953      861.599
11/03/2013  09:37:00      -79.684      158.865      -12.304       56.755       76.830       41.401     3221.138     5902.901     1714.016        2.129        0.542      177.729       44.725        0.063      334.759        4.942      861.632
11/03/2013  09:38:00      -35.004      224.230      -15.987       43.931       56.270       32.902     1929.926     3166.271     1082.571        2.897        0.309      226.946       28.366        0.016      334.690        4.825      861.645
11/03/2013  09:39:00     -104.719       79.763      -10.484       56.560       63.015       29.504     3199.014     3970.931      870.490        1.274        0.402      131.637       29.683        0.051      334.835        5.068      861.668
11/03/2013  09:40:00      -32.795      209.872      -37.656       58.000       69.808       24.733     3363.978     4873.168      611.702        2.769        0.442      212.419       29.793        0.020      334.721        4.878      861.686
11/03/2013  09:41:00       21.773      100.794        6.501       52.225       80.988       47.602     2727.493     6559.022     2265.973        1.111        0.578      103.119       46.532        0.204      334.929        5.226      861.669
11/03/2013  09:42:00      134.574      102.967        6.663       66.868       61.160       48.256     4471.394     3740.511     2328.658        1.965        0.527      169.447       41.719        0.061      334.779        4.974      861.639
11/03/2013  09:43:00       56.855       92.731       -0.009       91.250       52.395       47.291     8326.627     2745.231     2236.476        1.257        0.665      108.773       41.082        0.143      334.981        5.311      861.614
11/03/2013  09:44:00        5.866      104.246      -13.808       34.275       43.818       28.780     1174.752     1920.009      828.284        0.751        0.196      104.411       18.806        0.032      335.013        5.365      861.609
11/03/2013  09:45:00       14.367      161.706      -19.278       29.966       62.011       32.285      897.985     3845.304     1042.298        1.626        0.289      162.343       36.074        0.049      334.916        5.203      861.611
11/03/2013  09:46:00      -95.110       99.336      -18.075       75.475       72.932       42.768     5696.440     5319.056     1829.137        1.604        0.642      137.527       50.212        0.133      334.861        5.113      861.628
11/03/2013  09:47:00      -15.506      138.822      -13.645       46.988       58.835       31.822     2207.825     3461.532     1012.656        1.319        0.334      139.685       30.196        0.047      334.886        5.154      861.649
11/03/2013  09:48:00      -34.244      167.285        7.979       42.169       68.536       42.060     1778.199     4697.148     1769.071        1.873        0.412      170.754       36.275        0.045      335.096        5.500      861.672
11/03/2013  09:49:00     -111.636      135.011      -18.952       44.865       61.367       36.292     2012.878     3765.891     1317.086        1.907        0.355      175.187       22.064        0.016      334.869        5.126      861.677
11/03/2013  09:50:00     -108.461       54.013      -20.701       54.849       48.146       29.341     3008.383     2318.026      860.922        1.065        0.309      121.166       28.383        0.055      334.696        4.839      861.677
11/03/2013  09:51:00      -20.449      143.432      -10.453       32.480       58.829       32.965     1054.950     3460.813     1086.659        1.335        0.280      144.882       33.771        0.054      334.894        5.167      861.657
11/03/2013  09:52:00       -5.411      190.028      -28.463       35.406       28.349       18.276     1253.577      803.671      334.012        1.967        0.120      190.105       11.264        0.004      334.716        4.872      861.646
11/03/2013  09:53:00      -43.155      200.300      -10.369       50.572       53.059       37.948     2557.573     2815.297     1440.057        2.445        0.341      204.896       31.364        0.023      334.982        5.311      861.634
11/03/2013  09:54:00      -20.423      131.988       -9.051       47.517       60.849       36.942     2257.840     3702.563     1364.725        1.262        0.366      133.559       34.598        0.067      334.838        5.075      861.644
11/03/2013  09:55:00      -16.581       98.439      -21.664       21.257       68.850       24.482      451.861     4740.327      599.351        0.811        0.290       99.826       12.869        0.017      334.617        4.707      861.652
11/03/2013  09:56:00      -12.772      -50.299       -3.234       59.827       29.758       30.436     3579.318      885.511      926.321        0.405        0.270       51.896       31.974        0.380      334.738        4.908      861.630
11/03/2013  09:57:00      -49.769       -9.960        9.746       53.866       35.358       27.246     2901.520     1250.181      742.356        0.378        0.245       50.756       31.824        0.393      335.184        5.649      861.607
11/03/2013  09:58:00      -75.176      -12.006        0.817       49.346       36.360       25.043     2434.997     1322.041      627.175        0.509        0.219       76.128       15.278        0.040      335.031        5.394      861.604
11/03/2013  09:59:00     -109.570      -41.579      -12.017       58.022       31.872       27.198     3366.546     1015.794      739.747        0.950        0.256      117.193       24.237        0.043      334.790        4.996      861.600
11/03/2013  10:00:00        3.909      -20.277       16.021       26.059       24.400       24.940      679.052      595.352      622.021        0.129        0.095       20.650       19.761        0.916      335.297        5.838      861.612
11/03/2013  10:01:00      -45.343      -24.830       11.684       63.153       36.009       24.055     3988.335     1296.654      578.641        0.434        0.293       51.696       30.324        0.344      335.097        5.505      861.621
11/03/2013  10:02:00     -127.897      -59.885        0.494       95.049       44.368       37.046     9034.268     1968.526     1372.400        1.616        0.619      141.222       48.180        0.116      334.938        5.241      861.627
11/03/2013  10:03:00      -92.792      -40.061      -14.054       47.371       41.084       26.006     2243.974     1687.908      676.331        0.751        0.230      101.070       23.495        0.054      334.933        5.232      861.638
11/03/2013  10:04:00      -50.929        5.667        5.251       49.581       41.351       25.399     2458.300     1709.931      645.114        0.373        0.241       51.243       26.701        0.272      335.205        5.684      861.660
11/03/2013  10:05:00      -86.596       34.036      -14.391       49.181       56.505       33.822     2418.724     3192.794     1143.958        0.781        0.338       93.045       38.256        0.169      334.986        5.321      861.678
11/03/2013  10:06:00      -16.865       15.723       -4.250       37.915       20.672       21.475     1437.527      427.335      461.156        0.144        0.116       23.058        9.432        0.167      334.990        5.326      861.696
11/03/2013  10:07:00     -122.640      -54.179      -11.832       48.670       55.911       30.450     2368.800     3126.000      927.191        1.227        0.321      134.074       21.118        0.025      335.012        5.365      861.707
11/03/2013  10:08:00      -44.520      -45.355       26.701       81.965       49.965       42.865     6718.213     2496.467     1837.445        0.790        0.553       63.554       54.944        0.747      335.276        5.803      861.756
11/03/2013  10:09:00      -41.478       27.727       -7.983       57.172       43.527       28.690     3268.658     1894.588      823.126        0.427        0.299       49.892       35.105        0.495      335.213        5.698      861.815
11/03/2013  10:10:00      -41.008        5.435       -8.681       53.523       41.943       21.159     2864.706     1759.244      447.694        0.343        0.254       41.367       13.411        0.105      334.960        5.277      861.874
11/03/2013  10:11:00        2.819       22.363       18.592       38.804       36.402       38.107     1505.779     1325.076     1452.129        0.257        0.214       22.540       29.289        1.688      335.524        6.216      861.904
11/03/2013  10:12:00      -87.237      -53.391        0.376       75.306       47.731       29.484     5671.024     2278.256      869.283        0.964        0.441      102.278       36.154        0.125      335.363        5.947      861.905
11/03/2013  10:13:00     -139.642        8.598      -10.612       74.431       68.988       33.024     5539.956     4759.300     1090.584        1.554        0.569      139.907       35.130        0.063      334.949        5.259      861.923
11/03/2013  10:14:00      -86.397      -25.292       -7.597       47.737       38.898       28.043     2278.812     1513.023      786.415        0.637        0.229       90.023       33.806        0.141      334.734        4.902      861.912
11/03/2013  10:15:00      -81.233      -86.855        8.383       81.445       61.422       36.381     6633.341     3772.617     1323.598        1.297        0.586      118.923       43.121        0.131      335.003        5.348      861.884
11/03/2013  10:16:00      -71.447       -9.900       -2.259       63.169       49.517       32.000     3990.293     2451.896     1024.018        0.634        0.373       72.129       25.307        0.123      335.184        5.649      861.864
11/03/2013  10:17:00      -10.598       88.376        3.917       42.539       69.864       35.841     1809.549     4881.001     1284.584        0.796        0.399       89.009       39.698        0.199      335.213        5.696      861.847
11/03/2013  10:18:00      -80.600      103.795      -20.992       70.499       99.242       34.873     4970.081     9848.913     1216.107        1.687        0.802      131.414       47.997        0.133      334.973        5.299      861.833
11/03/2013  10:19:00     -119.736      138.408      -35.418       61.263       84.371       31.413     3753.188     7118.420      986.789        2.330        0.593      183.012       30.658        0.028      334.978        5.306      861.822
11/03/2013  10:20:00      -30.269       65.520        5.401       59.069       60.598       37.355     3489.123     3672.094     1395.360        0.690        0.428       72.174       35.463        0.241      335.110        5.527      861.837
11/03/2013  10:21:00      -94.791      166.340      -21.620       54.742       84.809       38.259     2996.686     7192.569     1463.784        2.439        0.583      191.453       37.134        0.038      334.989        5.323      861.867
11/03/2013  10:22:00     -148.723      178.757      -42.229       44.516       59.046       34.635     1981.646     3486.486     1199.551        3.126        0.333      232.535       29.961        0.017      334.838        5.070      861.898
11/03/2013  10:23:00     -135.660      144.364      -33.693       39.387       69.461       29.511     1551.298     4824.868      870.904        2.381        0.362      198.102       20.558        0.011      334.842        5.078      861.919
11/03/2013  10:24:00     -108.180       59.870      -11.396       57.180       27.182       24.167     3269.609      738.844      584.050        1.000        0.230      123.642       23.249        0.035      334.855        5.104      861.912
11/03/2013  10:25:00       -4.586       28.797       -0.086       25.236       26.919       27.599      636.846      724.643      761.687        0.149        0.106       29.160       19.547        0.449      335.330        5.892      861.896
11/03/2013  10:26:00      100.466       61.927       23.291       65.817       48.805       38.922     4331.891     2381.901     1514.945        1.135        0.411      118.018       28.551        0.059      335.270        5.793      861.867
11/03/2013  10:27:00      114.442       71.986        4.979       43.417       48.409       31.915     1884.996     2343.459     1018.579        1.177        0.262      135.200       17.636        0.017      334.954        5.267      861.865
11/03/2013  10:28:00       38.588       48.677       43.929       37.565       26.716       29.552     1411.118      713.769      873.334        0.439        0.150       62.117       15.376        0.061      334.990        5.327      861.856
11/03/2013  10:29:00       -3.167       39.803        9.151       13.768       20.069       20.005      189.552      402.767      400.194        0.134        0.050       39.929        5.743        0.021      335.175        5.634      861.860
11/03/2013  10:30:00       16.947       18.965       12.045       19.112       18.091       17.289      365.284      327.296      298.916        0.089        0.050       25.434       11.134        0.192      335.262        5.779      861.873
11/03/2013  10:31:00       47.821       69.377       12.844       50.046       47.118       37.006     2504.606     2220.063     1369.480        0.668        0.305       84.261       27.797        0.109      335.317        5.871      861.864
11/03/2013  10:32:00       96.336       64.800       16.812       66.894       58.003       63.256     4474.847     3364.363     4001.342        1.280        0.592      116.102       38.885        0.112      335.408        6.020      861.845
11/03/2013  10:33:00       29.068       77.399       64.183       64.058       63.146       56.131     4103.389     3987.457     3150.637        1.110        0.562       82.677       40.607        0.241      335.699        6.507      861.807
11/03/2013  10:34:00      130.940       97.318        3.181       53.700       41.614       35.709     2883.678     1731.741     1275.126        1.626        0.295      163.144       24.439        0.022      335.126        5.554      861.825
11/03/2013  10:35:00       59.371       48.823       23.593       56.151       38.454       43.022     3152.984     1478.686     1850.922        0.647        0.324       76.867       22.098        0.083      335.378        5.972      861.808
11/03/2013  10:36:00       69.650      101.017       32.494       87.744       75.430       70.856     7698.996     5689.760     5020.608        1.726        0.920      122.701       41.093        0.112      335.270        5.792      861.793
11/03/2013  10:37:00        6.784       65.673       65.162       53.892       51.829       52.822     2904.389     2686.266     2790.139        0.849        0.419       66.023       39.549        0.359      335.825        6.718      861.784
11/03/2013  10:38:00      164.200      126.332        5.768       54.886       41.674       38.357     3012.423     1736.750     1471.290        2.459        0.311      207.175       27.853        0.018      335.304        5.846      861.793
11/03/2013  10:39:00       69.353       52.447       29.363       52.580       34.733       39.748     2764.606     1206.395     1579.893        0.699        0.278       86.951       28.385        0.107      335.474        6.132      861.782
11/03/2013  10:40:00       72.871       88.845       72.831       62.495       46.959       58.963     3905.590     2205.183     3476.661        1.405        0.479      114.907       47.557        0.171      335.346        5.918      861.765
11/03/2013  10:41:00       69.926       58.959       22.961       34.649       20.118       27.286     1200.529      404.748      744.545        0.562        0.117       91.465       19.349        0.045      335.154        5.599      861.744
11/03/2013  10:42:00       70.952       47.399       15.862       27.602       19.942       28.051      761.895      397.697      786.877        0.474        0.097       85.328       15.135        0.031      335.279        5.807      861.730
11/03/2013  10:43:00       39.693       48.528       34.373       40.828       38.684       34.637     1666.909     1496.486     1199.714        0.474        0.218       62.694       18.039        0.083      335.596        6.336      861.718
11/03/2013  10:44:00      104.354       68.215       16.140      143.904       77.913       31.633    20708.317     6070.374     1000.637        2.179        1.389      124.672       41.130        0.109      335.672        6.462      861.720
11/03/2013  10:45:00       54.950      100.186      -25.670       79.863       63.936       37.481     6378.061     4087.785     1404.799        1.279        0.594      114.267       35.694        0.098      335.358        5.939      861.723
11/03/2013  10:46:00       51.740       92.993       17.607       62.746       74.862       43.826     3937.089     5604.247     1920.754        1.155        0.573      106.417       38.310        0.130      335.794        6.664      861.718
11/03/2013  10:47:00      150.797       99.778       21.775      123.807       61.163       55.425    15328.152     3740.870     3071.969        2.765        1.107      180.818       40.957        0.051      335.582        6.311      861.729
11/03/2013  10:48:00       89.054      136.013       -7.128      124.066       92.426       60.284    15392.393     8542.509     3634.125        2.702        1.378      162.573       53.730        0.109      335.665        6.448      861.742
11/03/2013  10:49:00      -65.656       39.618        0.662       48.223       43.327       40.058     2325.483     1877.189     1604.610        0.584        0.290       76.684       33.677        0.193      336.113        7.197      861.751
11/03/2013  10:50:00     -123.119      128.322      -22.570       78.066       72.395       43.393     6094.249     5241.020     1882.911        2.267        0.661      177.833       48.167        0.073      335.671        6.458      861.752
11/03/2013  10:51:00     -125.349      123.967      -35.055       57.532       55.529       29.638     3309.964     3083.476      878.401        1.979        0.364      176.296       32.022        0.033      335.396        6.001      861.752
11/03/2013  10:52:00      -71.083       64.090      -12.083       59.562       93.968       33.796     3547.624     8829.933     1142.166        1.141        0.676       95.710       42.817        0.200      335.447        6.087      861.758
11/03/2013  10:53:00     -116.780      -66.006       -1.689       89.682       45.260       35.360     8042.892     2048.482     1250.296        1.467        0.567      134.143       39.568        0.087      335.488        6.154      861.748
11/03/2013  10:54:00     -127.923      -79.242       -4.879       60.411       54.353       36.641     3649.507     2954.287     1342.528        1.531        0.397      150.478       38.921        0.067      335.542        6.245      861.770
11/03/2013  10:55:00      -66.955       36.142       15.796       70.339       64.199       56.351     4947.623     4121.475     3175.451        0.914        0.612       76.087       45.346        0.355      336.049        7.091      861.794
11/03/2013  10:56:00      -78.987      192.508      -14.294       54.825       56.558       38.100     3005.789     3198.780     1451.595        2.558        0.383      208.082       29.658        0.020      335.642        6.412      861.811
11/03/2013  10:57:00      -35.473      111.056       -5.706       63.713       65.180       37.901     4059.404     4248.383     1436.496        1.168        0.487      116.583       41.316        0.126      335.790        6.659      861.796
11/03/2013  10:58:00      -53.185       56.515        8.266       55.374       69.347       40.734     3066.323     4808.991     1659.264        0.781        0.477       77.605       38.905        0.251      335.936        6.901      861.776
11/03/2013  10:59:00      -65.602      192.954      -22.125      102.587       71.097       52.844    10524.000     5054.715     2792.510        3.019        0.919      203.801       39.674        0.038      335.590        6.323      861.789
11/03/2013  11:00:00      -67.898      217.283      -15.049       77.872       85.815       47.891     6064.102     7364.294     2293.575        3.388        0.786      227.644       47.040        0.043      335.644        6.414      861.806
11/03/2013  11:01:00       -4.488      178.492      -24.916       36.923       59.437       23.632     1363.322     3532.751      558.477        1.898        0.273      178.549       21.060        0.014      335.267        5.785      861.813
11/03/2013  11:02:00      -39.321       91.566      -10.595       39.653       54.801       35.012     1572.355     3003.120     1225.862        0.792        0.290       99.652       10.274        0.011      335.842        6.745      861.796
11/03/2013  11:03:00     -120.034      121.474      -21.658       59.705       83.102       35.515     3564.639     6905.996     1261.335        2.068        0.587      170.775       33.457        0.038      335.713        6.529      861.782
11/03/2013  11:04:00      -99.595      255.779      -24.966       67.413       95.612       46.551     4544.522     9141.636     2167.030        4.591        0.793      274.486       41.339        0.023      335.560        6.272      861.771
11/03/2013  11:05:00      -47.612      144.138       -0.697       66.500      141.678       50.617     4422.280    20072.680     2562.070        2.505        1.353      151.798       67.499        0.198      335.646        6.417      861.777
11/03/2013  11:06:00       43.604      212.723      -16.896       57.034      127.894       59.977     3252.842    16356.834     3597.257        3.532        1.160      217.146       70.143        0.104      335.705        6.515      861.744
11/03/2013  11:07:00      124.449      115.234       11.183       48.921       50.663       60.079     2393.223     2566.721     3609.464        1.873        0.428      169.606       30.706        0.033      335.614        6.364      861.727
11/03/2013  11:08:00       87.972       85.159       23.566       60.571       48.363       49.040     3668.865     2338.996     2404.890        1.198        0.421      122.438       22.229        0.033      335.539        6.238      861.678
11/03/2013  11:09:00       29.648       91.907       -1.814       70.997       69.933       42.156     5040.634     4890.647     1777.087        1.052        0.585       96.571       36.153        0.140      335.853        6.761      861.677
11/03/2013  11:10:00      -18.171      247.862      -26.085       34.161       66.414       29.125     1166.962     4410.759      848.246        3.443        0.321      248.527       29.460        0.014      335.522        6.211      861.687
11/03/2013  11:11:00       41.276      179.906        0.576      114.335       95.050       51.076    13072.418     9034.518     2608.751        2.939        1.236      184.580       49.961        0.073      335.770        6.622      861.668
11/03/2013  11:12:00      -48.445      235.276      -11.766       63.131       87.012       54.166     3985.483     7571.147     2933.978        3.616        0.725      240.212       49.045        0.042      335.845        6.746      861.658
11/03/2013  11:13:00     -193.682      117.149      -32.238       57.992      102.830       45.123     3363.118    10573.910     2036.097        3.412        0.799      226.355       43.211        0.036      335.547        6.251      861.661
11/03/2013  11:14:00     -123.679      100.985      -18.176      129.096      132.616       64.170    16665.789    17586.875     4117.841        3.209        1.919      159.670       69.342        0.189      335.906        6.850      861.644
11/03/2013  11:15:00      107.832      103.115       18.068       87.909       65.682       54.633     7727.950     4314.170     2984.759        1.880        0.751      149.199       35.505        0.057      336.107        7.185      861.657
11/03/2013  11:16:00       94.775      108.236      -11.068       75.032       75.586       55.442     5629.801     5713.277     3073.761        1.762        0.721      143.865       36.412        0.064      335.783        6.645      861.663
11/03/2013  11:17:00       42.772      196.815      -30.207       53.867       86.606       38.208     2901.632     7500.614     1459.886        2.667        0.593      201.409       29.840        0.022      335.677        6.468      861.635
11/03/2013  11:18:00      -55.437      216.263      -20.034       54.109       55.626       42.023     2927.788     3094.203     1765.929        2.901        0.389      223.255       34.549        0.024      335.869        6.788      861.632
11/03/2013  11:19:00      141.007      171.811        5.978      129.806       86.355       60.606    16849.608     7457.222     3673.060        3.870        1.399      222.266       52.444        0.056      336.001        7.007      861.622
11/03/2013  11:20:00      203.487      116.413       20.890       87.471       69.469       59.453     7651.118     4825.945     3534.666        3.570        0.801      234.433       25.012        0.011      335.897        6.834      861.632
11/03/2013  11:21:00       98.143       84.869       20.310       68.058       61.122       56.837     4631.933     3735.931     3230.465        1.442        0.580      129.749       41.774        0.104      336.014        7.031      861.641
11/03/2013  11:22:00       95.892       89.097       -2.807       68.656       51.356       49.145     4713.599     2637.490     2415.277        1.345        0.488      130.895       36.770        0.079      335.940        6.909      861.625
11/03/2013  11:23:00       56.360       89.838        1.372       68.292       56.653       47.961     4663.766     3209.586     2300.278        1.071        0.509      106.053       33.691        0.101      335.740        6.573      861.626
11/03/2013  11:24:00      291.761      183.044       39.747      120.434       71.555       66.930    14504.436     5120.128     4479.688        7.215        1.205      344.427       41.533        0.015      335.579        6.303      861.618
11/03/2013  11:25:00      216.074      125.036       39.680      124.787       88.072       76.481    15571.730     7756.721     5849.357        4.653        1.459      249.644       59.332        0.056      335.749        6.586      861.621
11/03/2013  11:26:00      120.469      168.711      161.627      125.777       89.974       81.248    15819.791     8095.276     6601.196        4.980        1.526      207.307       90.023        0.189      335.656        6.431      861.601
11/03/2013  11:27:00      100.284      138.840      101.620       70.356       97.339       88.000     4949.915     9474.880     7744.029        3.091        1.108      171.270       76.215        0.198      335.588        6.321      861.588
11/03/2013  11:28:00       54.076      -53.479       19.857       78.971       89.748       53.504     6236.409     8054.763     2862.710        1.166        0.858       76.054       35.497        0.218      336.085        7.149      861.577
11/03/2013  11:29:00       52.892       48.993       15.025       42.364       97.516       55.572     1794.704     9509.294     3088.235        0.991        0.720       72.096       42.741        0.351      336.126        7.218      861.592
11/03/2013  11:30:00      170.208      104.677       10.390       61.193       49.085       52.446     3744.529     2409.331     2750.563        2.447        0.445      199.820       46.302        0.054      335.935        6.897      861.580
11/03/2013  11:31:00      140.967      136.878        8.867       83.638       74.260       64.930     6995.397     5514.517     4215.902        2.770        0.836      196.487       46.640        0.056      336.065        7.115      861.524
11/03/2013  11:32:00      129.701      118.281        7.293       75.868       60.940       53.516     5756.013     3713.707     2864.006        2.160        0.617      175.536       34.120        0.038      335.847        6.750      861.510
11/03/2013  11:33:00      115.037       99.251       40.319       88.449       52.092       58.191     7823.225     2713.599     3386.135        1.931        0.696      151.935       44.554        0.086      336.218        7.371      861.485
11/03/2013  11:34:00      -32.787       90.616       -1.238       65.245       55.283       42.358     4256.969     3056.213     1794.188        0.920        0.455       96.365       40.362        0.175      336.115        7.200      861.489
11/03/2013  11:35:00       -4.217      119.192        1.767       43.962       62.063       37.513     1932.622     3851.797     1407.242        1.071        0.360      119.267       39.021        0.107      336.264        7.449      861.472
11/03/2013  11:36:00       50.776      142.524       10.119       70.626      106.419       49.766     4987.984    11324.987     2476.638        2.089        0.939      151.298       56.854        0.141      335.993        6.997      861.456
11/03/2013  11:37:00       29.355       60.321        5.633       58.205       53.924       34.437     3387.792     2907.790     1185.929        0.601        0.374       67.084       33.182        0.245      336.033        7.063      861.459
11/03/2013  11:38:00      -65.514      -34.222        6.587       99.237       69.523       44.271     9847.947     4833.392     1959.929        1.107        0.832       73.914       39.940        0.292      336.220        7.375      861.446
11/03/2013  11:39:00        9.851      -58.075        0.320       45.982       50.958       37.110     2114.386     2596.731     1377.132        0.478        0.304       58.905       27.937        0.225      336.081        7.143      861.425
11/03/2013  11:40:00      -38.252      -29.216       -6.380       44.345       54.346       24.850     1966.492     2953.519      617.529        0.395        0.277       48.133       18.930        0.155      336.123        7.215      861.409
11/03/2013  11:41:00       58.435       64.202       58.659      158.380       95.242       67.916    25084.187     9071.051     4612.559        2.487        1.938       86.813       39.304        0.205      336.261        7.443      861.381
11/03/2013  11:42:00      105.562       75.415       11.154       68.316       54.383       41.972     4667.072     2957.463     1761.679        1.317        0.469      129.733       30.139        0.054      336.039        7.073      861.356
11/03/2013  11:43:00      133.422      111.788       12.741       85.964       66.417       61.085     7389.874     4411.256     3731.420        2.299        0.777      174.063       36.448        0.044      336.348        7.587      861.337
11/03/2013  11:44:00      143.570      113.559        1.604      109.149       87.853       59.280    11913.426     7718.152     3514.061        2.832        1.157      183.052       44.880        0.060      336.165        7.282      861.339
11/03/2013  11:45:00      109.195      176.993       -3.314      109.163       97.217       75.053    11916.502     9451.124     5632.893        3.513        1.350      207.967       69.532        0.112      335.870        6.790      861.340
11/03/2013  11:46:00       76.893      130.127        3.844      102.213      129.581       58.945    10447.590    16791.201     3474.519        2.678        1.536      151.147       44.019        0.085      335.844        6.747      861.317
11/03/2013  11:47:00       -1.913      226.333       -7.330       64.928      132.277       61.902     4215.677    17497.179     3831.800        3.841        1.277      226.341       73.033        0.104      336.069        7.121      861.303
11/03/2013  11:48:00       68.324       99.219       38.838       86.409       77.541       55.362     7466.532     6012.615     3065.006        1.628        0.827      120.468       46.321        0.148      336.336        7.568      861.285
11/03/2013  11:49:00       71.304      166.506      -12.604      102.501      120.523       73.150    10506.370    14525.816     5350.901        3.167        1.519      181.131       66.319        0.134      336.092        7.159      861.259
11/03/2013  11:50:00       74.004      113.707       26.554      114.992       97.549       72.684    13223.169     9515.807     5282.973        2.356        1.401      135.668       55.470        0.167      335.903        6.845      861.243
11/03/2013  11:51:00      146.791      169.150        0.744      131.373      104.319       70.204    17258.911    10882.554     4928.572        4.161        1.654      223.962       60.763        0.074      335.930        6.888      861.191
11/03/2013  11:52:00      210.439      139.793       65.657      145.285       88.475       69.071    21107.742     7827.784     4770.797        5.092        1.685      252.640       71.654        0.080      335.950        6.921      861.163
11/03/2013  11:53:00       61.313      119.390       33.222       93.026       53.844       70.296     8653.854     2899.184     4941.477        1.780        0.825      134.213       50.184        0.140      336.263        7.447      861.154
11/03/2013  11:54:00      117.099      129.779       95.197       94.983       79.375       75.496     9021.802     6300.448     5699.666        3.032        1.051      174.799       61.523        0.124      335.990        6.989      861.128
11/03/2013  11:55:00      130.947      141.189       68.898      123.654       77.611       75.194    15290.419     6023.491     5654.168        3.439        1.348      192.566       73.769        0.147      336.061        7.107      861.124
11/03/2013  11:56:00      101.441      105.817        9.031       73.568       65.226       50.998     5412.221     4254.465     2600.784        1.692        0.613      146.586       36.535        0.062      335.933        6.896      861.121
11/03/2013  11:57:00      171.972      132.751       35.286      113.237       70.273       72.440    12822.729     4938.232     5247.530        3.572        1.150      217.249        6.322        0.001      336.166        7.282      861.094
11/03/2013  11:58:00      201.431      155.259       97.274      126.856       98.172       91.468    16092.346     9637.664     8366.412        5.411        1.705      254.323       83.747        0.108      335.709        6.520      861.092
11/03/2013  11:59:00       95.305       83.547       53.799       58.108       55.924       63.591     3376.537     3127.544     4043.864        1.475        0.527      126.740       35.292        0.078      335.899        6.840      861.086
11/03/2013  12:00:00      173.306      120.175       50.291       96.153       88.727       69.427     9245.331     7872.484     4820.175        3.447        1.097      210.895       35.794        0.029      335.901        6.841      861.074
11/03/2013  12:01:00       96.731       84.130       -1.069       92.119       69.820       51.366     8485.956     4874.839     2638.516        1.621        0.800      128.198       35.181        0.075      335.901        6.843      861.049
11/03/2013  12:02:00       70.158       67.923        4.572       97.619       83.458       63.905     9529.515     6965.287     4083.818        1.506        1.029       97.651       56.562        0.336      335.968        6.954      861.026
11/03/2013  12:03:00      132.081      102.362       29.042       65.593       71.568       63.430     4302.495     5122.004     4023.340        2.111        0.672      167.103       19.676        0.014      336.071        7.126      861.018
11/03/2013  12:04:00      179.023      107.572       67.625       83.666       57.017       68.768     6999.920     3250.963     4729.076        3.158        0.749      208.856       46.959        0.051      335.966        6.948      861.009
11/03/2013  12:05:00       13.650       46.703       35.023       55.592       42.291       32.896     3090.484     1788.495     1082.138        0.478        0.298       48.656       21.073        0.188      336.250        7.427      861.008
11/03/2013  12:06:00       48.329       43.184       17.427       47.689       31.209       31.901     2274.228      973.999     1017.668        0.438        0.213       64.811       21.189        0.107      336.267        7.455      860.993
11/03/2013  12:07:00       59.842       72.376       69.863       79.215       51.114       48.903     6275.011     2612.645     2391.533        1.249        0.564       93.912       47.432        0.255      336.055        7.100      860.977
11/03/2013  12:08:00       -3.547      111.418      122.471       54.271       57.972       51.711     2945.316     3360.726     2673.990        1.820        0.449      111.474       42.452        0.145      336.236        7.402      860.962
11/03/2013  12:09:00      124.124      121.421       18.273      111.524       84.817       61.727    12437.622     7193.918     3810.283        2.696        1.172      173.637       47.716        0.076      335.963        6.945      860.993
11/03/2013  12:10:00      114.789       89.431       22.730       99.372       72.775       60.982     9874.807     5296.154     3718.745        2.029        0.944      145.515       45.339        0.097      335.888        6.821      860.998
11/03/2013  12:11:00      154.629      104.870       19.748      106.419       77.052       64.935    11325.013     5936.994     4216.526        2.838        1.074      186.837       41.843        0.050      335.808        6.686      860.987
11/03/2013  12:12:00       83.932      129.268        8.589       68.823       98.828       62.536     4736.619     9766.893     3910.793        2.112        0.921      154.126       56.923        0.136      335.838        6.737      860.966
11/03/2013  12:13:00       65.812       71.919       56.270       64.732       58.486       57.783     4190.205     3420.589     3338.825        1.181        0.547       97.486       44.044        0.204      336.095        7.167      860.938
11/03/2013  12:14:00       54.573       57.900       35.293       43.099       31.126       28.742     1857.485      968.818      826.114        0.561        0.183       79.565       14.318        0.032      335.909        6.856      860.926
11/03/2013  12:15:00       20.248       24.092        9.131       41.628       30.223       29.866     1732.899      913.411      891.954        0.231        0.177       31.471       15.289        0.236      336.319        7.542      860.906
11/03/2013  12:16:00       70.252       74.559      -18.219       54.742       54.484       33.383     2996.650     2968.547     1114.456        0.895        0.354      102.442       24.856        0.059      336.244        7.415      860.909
11/03/2013  12:17:00       51.795       93.293        6.412       62.897       94.882       43.828     3956.078     9002.550     1920.927        1.315        0.744      106.706       52.983        0.247      336.221        7.376      860.889
11/03/2013  12:18:00       -3.935      128.424        4.889       90.069      122.194       60.182     8112.471    14931.459     3621.877        2.159        1.333      128.484       71.961        0.314      336.100        7.173      860.875
11/03/2013  12:19:00       64.731      123.559       -1.385       68.910       81.763       65.839     4748.614     6685.127     4334.760        1.761        0.788      139.489       48.550        0.121      335.938        6.905      860.868
11/03/2013  12:20:00       99.901      132.297       11.286       96.549       90.254       75.140     9321.739     8145.864     5645.951        2.536        1.156      165.779       65.262        0.155      335.849        6.755      860.865
11/03/2013  12:21:00        1.069       36.528        4.029       46.721       66.177       31.203     2182.886     4379.342      973.632        0.444        0.377       36.543       33.249        0.828      335.937        6.902      860.854
11/03/2013  12:22:00        9.539       12.801       15.269       33.279       53.787       29.506     1107.498     2893.018      870.607        0.268        0.244       15.964        5.469        0.117      336.285        7.485      860.829
11/03/2013  12:23:00       29.949       28.975       24.667       44.866       46.096       42.234     2012.920     2124.872     1783.698        0.413        0.296       41.671       34.983        0.705      336.430        7.726      860.835
11/03/2013  12:24:00       -4.818       51.844       78.540       38.045       34.608       34.649     1447.455     1197.726     1200.541        0.636        0.192       52.068       24.333        0.218      336.333        7.565      860.832
11/03/2013  12:25:00       10.189       52.070       49.530       38.738       37.810       37.832     1500.630     1429.630     1431.236        0.481        0.218       53.057       29.713        0.314      336.471        7.795      860.827
11/03/2013  12:26:00        2.681        4.900       49.141       35.164       51.515       30.682     1236.480     2653.824      941.360        0.364        0.242        5.585       27.999       25.128      336.694        8.168      860.805
11/03/2013  12:27:00       99.985       75.583       50.085       63.573       33.521       38.289     4041.507     1123.647     1466.085        1.242        0.332      125.338       13.877        0.012      336.262        7.444      860.789
11/03/2013  12:28:00      163.966      120.203       76.904      135.595       59.321       66.556    18385.994     3519.014     4429.671        3.679        1.317      203.306       81.059        0.159      336.148        7.252      860.765
11/03/2013  12:29:00       59.792       28.881       68.942       86.578       72.954       50.435     7495.684     5322.264     2543.738        1.226        0.768       66.402       50.981        0.589      336.103        7.180      860.740
11/03/2013  12:30:00       33.377      -30.743       26.907       28.119       67.874       34.986      790.651     4606.861     1224.053        0.470        0.331       45.378       38.064        0.704      335.907        6.854      860.704
11/03/2013  12:31:00       50.618       34.057       58.889       85.781       72.903       44.638     7358.336     5314.780     1992.585        1.093        0.733       61.009       49.566        0.660      336.342        7.579      860.671
11/03/2013  12:32:00      243.297      157.551       42.789      145.567       92.092       98.347    21189.879     8480.999     9672.142        6.259        1.967      289.855       80.023        0.076      336.097        7.167      860.639
11/03/2013  12:33:00       79.981       88.794       65.687       86.973       66.387       75.456     7564.366     4407.218     5693.654        1.813        0.883      119.505       54.670        0.209      336.359        7.606      860.636
11/03/2013  12:34:00       60.945      113.759       94.396       87.481       63.683       77.984     7653.002     4055.542     6081.503        2.168        0.890      129.056       58.165        0.203      336.324        7.548      860.621
11/03/2013  12:35:00      133.936      135.659      109.726       81.127       83.695       70.842     6581.565     7004.773     5018.620        3.349        0.930      190.636       68.958        0.131      335.976        6.965      860.615
11/03/2013  12:36:00      160.978      192.861      159.343      106.324       89.179       75.133    11304.699     7952.840     5644.894        5.670        1.245      251.216       63.929        0.065      335.841        6.741      860.590
11/03/2013  12:37:00      172.031      145.601       93.968       73.207       74.650       65.556     5359.282     5572.669     4297.632        3.742        0.761      225.376       49.175        0.048      335.771        6.623      860.582
11/03/2013  12:38:00      118.361       19.884       76.293       76.022      115.739       75.452     5779.321    13395.499     5693.011        2.254        1.243      120.020       84.188        0.492      336.167        7.285      860.555
11/03/2013  12:39:00      155.422       99.408       62.844       84.362       65.859       69.507     7116.893     4337.423     4831.219        2.713        0.814      184.494       48.218        0.068      336.034        7.063      860.531
11/03/2013  12:40:00      118.320      107.348       57.987       75.292       60.936       58.851     5668.891     3713.200     3463.436        2.086        0.642      159.760       21.847        0.019      336.054        7.097      860.504
11/03/2013  12:41:00      101.846      116.248      116.155      105.360       83.766       74.908    11100.729     7016.714     5611.187        3.055        1.186      154.552       61.404        0.158      336.200        7.340      860.483
11/03/2013  12:42:00      131.978      105.442       72.818      114.693       81.274       71.059    13154.382     6605.501     5049.385        2.932        1.240      168.926       61.130        0.131      336.133        7.228      860.475
11/03/2013  12:43:00       93.481       14.768       39.113      102.467       99.570       48.382    10499.528     9914.251     2340.783        1.662        1.138       94.640       38.446        0.165      336.248        7.423      860.468
11/03/2013  12:44:00      129.003       14.791       57.447      109.394      120.833       69.070    11967.058    14600.567     4770.683        2.574        1.567      129.848       73.315        0.319      336.289        7.489      860.449
11/03/2013  12:45:00       34.360       -5.913       43.330       60.935       85.973       59.949     3713.109     7391.389     3593.859        0.889        0.735       34.865       53.838        2.384      336.371        7.626      860.460
11/03/2013  12:46:00       66.158       45.002       13.000       60.667       83.829       46.116     3680.490     7027.246     2126.673        0.970        0.642       80.013       34.217        0.183      336.219        7.374      860.474
11/03/2013  12:47:00      -18.762      153.346      -17.045       50.827       62.422       33.697     2583.402     3896.529     1135.496        1.589        0.381      154.490       27.755        0.032      335.974        6.964      860.441
11/03/2013  12:48:00       62.792       54.147       17.534       80.334       53.339       32.186     6453.531     2845.032     1035.949        0.876        0.517       82.914       24.226        0.085      336.254        7.432      860.417
11/03/2013  12:49:00      198.035      127.416       25.250       70.027       58.311       50.454     4903.816     3400.132     2545.573        3.347        0.542      235.484       22.727        0.009      335.959        6.936      860.411
11/03/2013  12:50:00      101.837       74.332       35.437       78.886       55.876       45.694     6223.039     3122.095     2087.958        1.429        0.572      126.079       38.911        0.095      335.972        6.961      860.395
11/03/2013  12:51:00      185.761       99.231       25.297       68.402       46.238       51.768     4678.900     2137.931     2679.935        2.724        0.475      210.603       25.746        0.015      335.849        6.754      860.378
11/03/2013  12:52:00      164.841      119.697       35.208       59.922       43.970       49.704     3590.646     1933.355     2470.524        2.537        0.400      203.715       13.953        0.005      335.966        6.949      860.362
11/03/2013  12:53:00      125.711       53.996       20.071       48.556       51.107       31.964     2357.648     2611.957     1021.670        1.256        0.300      136.816       27.695        0.041      335.984        6.980      860.355
11/03/2013  12:54:00       20.241       56.980      -10.894       30.030       32.404       27.911      901.801     1050.044      779.032        0.325        0.137       60.468       20.059        0.110      336.133        7.229      860.349
11/03/2013  12:55:00       72.981       64.600        8.953       69.393       41.728       48.843     4815.446     1741.213     2385.592        0.926        0.447       97.465       20.619        0.045      336.081        7.142      860.340
11/03/2013  12:56:00      171.275      106.577       22.149       93.898       75.282       47.553     8816.847     5667.397     2261.281        2.896        0.837      201.727       20.180        0.010      336.129        7.222      860.325
11/03/2013  12:57:00      198.049      129.859        4.932      140.394       72.034       62.050    19710.360     5188.845     3850.250        4.243        1.437      236.827       33.496        0.020      336.104        7.179      860.312
11/03/2013  12:58:00       76.034       78.878       39.935       48.736       46.159       38.689     2375.165     2130.632     1496.805        0.980        0.300      109.558       31.733        0.084      336.085        7.150      860.305
11/03/2013  12:59:00      131.623       67.846       31.149       88.827       50.151       52.344     7890.273     2515.128     2739.896        1.802        0.657      148.080       24.505        0.027      336.136        7.233      860.290
11/03/2013  13:00:00      114.241      109.505        2.776      121.532       85.096       55.927    14770.050     7241.376     3127.821        2.509        1.257      158.248       44.827        0.080      336.267        7.452      860.301
11/03/2013  13:01:00       22.605      158.511      -18.194       96.962      118.597       48.032     9401.555    14065.228     2307.068        2.587        1.289      160.115       55.465        0.120      336.117        7.202      860.316
11/03/2013  13:02:00      -15.954      174.625      -22.359       30.237       79.423       29.615      914.282     6307.960      877.073        1.967        0.405      175.352       38.119        0.047      335.883        6.813      860.339
11/03/2013  13:03:00      -34.161      138.773      -16.022       24.526       51.925       20.610      601.534     2696.162      424.782        1.220        0.186      142.916       23.976        0.028      335.922        6.879      860.339
11/03/2013  13:04:00        1.924      113.296       -1.200       62.759       81.185       41.126     3938.691     6590.938     1691.383        1.253        0.611      113.312       36.229        0.102      336.152        7.261      860.331
11/03/2013  13:05:00       75.819      135.745       -7.604       53.739       65.047       42.899     2887.889     4231.050     1840.297        1.659        0.448      155.484       36.338        0.055      336.049        7.089      860.332
11/03/2013  13:06:00       42.658      149.173       -9.307       50.809       57.982       50.353     2581.551     3361.926     2535.384        1.632        0.424      155.152       43.633        0.079      335.862        6.778      860.326
11/03/2013  13:07:00       92.351      111.076      -10.062       61.599       51.152       42.782     3794.479     2616.529     1830.312        1.460        0.412      144.452       35.003        0.059      335.883        6.812      860.320
11/03/2013  13:08:00        3.924       61.576       -2.938       71.826       34.366       24.945     5158.946     1180.990      622.277        0.539        0.348       61.701       24.354        0.156      336.077        7.137      860.307
11/03/2013  13:09:00       19.066       83.803        1.094       38.145       33.382       31.955     1455.040     1114.331     1021.132        0.549        0.180       85.944       29.492        0.118      336.313        7.531      860.305
11/03/2013  13:10:00       86.782       63.320       15.785       63.000       37.520       48.158     3968.975     1407.763     2319.150        0.974        0.385      107.427       32.508        0.092      336.258        7.438      860.299
11/03/2013  13:11:00       63.869       53.504       41.852       51.975       43.292       46.612     2701.427     1874.191     2172.647        0.772        0.337       83.318       33.897        0.166      336.200        7.341      860.291
11/03/2013  13:12:00      118.642       96.547       28.169       65.422       52.075       43.588     4280.032     2711.783     1899.872        1.654        0.445      152.962       37.095        0.059      336.173        7.297      860.280
11/03/2013  13:13:00      156.968       94.173       -2.456       57.579       46.125       38.539     3315.386     2127.477     1485.240        2.022        0.346      183.050       25.536        0.019      336.139        7.239      860.283
11/03/2013  13:14:00       39.775      114.594      -12.948       37.819       50.764       33.586     1430.282     2576.968     1128.030        1.001        0.257      121.300       23.121        0.036      336.215        7.366      860.273
11/03/2013  13:15:00      -33.971      107.033       -4.098       62.973       61.857       30.298     3965.573     3826.247      917.973        1.067        0.435      112.295       29.741        0.070      336.328        7.555      860.273
11/03/2013  13:16:00       11.234      172.134       -9.201       60.584       82.725       38.013     3670.419     6843.417     1445.026        2.090        0.598      172.500       32.333        0.035      336.417        7.704      860.270
11/03/2013  13:17:00       29.936      236.807      -22.349       65.767       97.422       59.237     4325.345     9491.000     3508.975        3.740        0.866      238.692       63.228        0.070      336.183        7.312      860.277
11/03/2013  13:18:00       72.921       91.258        3.174       65.184       63.182       53.319     4249.011     3991.918     2842.965        1.237        0.554      116.814       35.985        0.095      336.197        7.335      860.290
11/03/2013  13:19:00       46.901      133.724       -3.142       47.946       96.228       48.558     2298.832     9259.844     2357.852        1.700        0.696      141.711       52.634        0.138      336.072        7.126      860.274
11/03/2013  13:20:00      199.905      138.531        2.975       72.994       56.967       48.377     5328.170     3245.264     2340.317        3.504        0.546      243.214       33.465        0.019      336.024        7.045      860.276
11/03/2013  13:21:00      125.023       90.864       10.000       47.168       43.026       33.659     2224.833     1851.195     1132.945        1.460        0.260      154.554       30.905        0.040      335.904        6.849      860.271
11/03/2013  13:22:00      147.601       99.933       21.421       62.952       38.817       45.364     3962.985     1506.794     2057.850        1.988        0.376      178.248       19.715        0.012      335.976        6.967      860.262
11/03/2013  13:23:00      297.974      187.600       28.945       81.858       65.937       54.448     6700.696     4347.717     2964.604        6.941        0.701      352.111       42.123        0.014      336.055        7.097      860.239
11/03/2013  13:24:00      217.183      118.183       44.084       90.511       70.193       65.306     8192.202     4927.031     4264.864        4.023        0.869      247.256       39.807        0.026      336.101        7.173      860.221
11/03/2013  13:25:00      184.355      121.477       38.414      100.116       74.754       69.929    10023.257     5588.098     4889.998        3.536        1.025      220.779       60.725        0.076      336.028        7.051      860.198
11/03/2013  13:26:00       98.752      102.052       80.057       75.538       69.171       64.881     5706.009     4784.614     4209.609        2.064        0.735      142.010       53.079        0.140      336.024        7.046      860.187
11/03/2013  13:27:00       48.177       60.329       67.020       56.875       68.532       45.098     3234.791     4696.611     2033.872        1.021        0.498       77.205       37.363        0.234      336.329        7.557      860.172
11/03/2013  13:28:00      191.939      125.775       61.699      118.729       69.079       76.663    14096.524     4771.947     5877.186        4.060        1.237      229.477       66.878        0.085      336.127        7.218      860.149
11/03/2013  13:29:00      180.569      118.154       35.833      124.587       98.755       72.506    15521.996     9752.502     5257.074        3.919        1.527      215.791       38.857        0.032      336.186        7.315      860.123
11/03/2013  13:30:00      200.913      150.386       19.827      100.799       80.587       73.779    10160.434     6494.323     5443.281        4.273        1.105      250.962       51.100        0.041      336.251        7.424      860.127
11/03/2013  13:31:00       96.382      168.145       -4.725       84.816       96.073       62.805     7193.763     9229.975     3944.444        2.897        1.018      193.810       56.493        0.085      336.175        7.297      860.113
11/03/2013  13:32:00      -21.846      250.715      -13.076       68.414      110.064       50.180     4680.456    12113.988     2517.998        4.141        0.966      251.665       61.511        0.060      335.949        6.921      860.106
11/03/2013  13:33:00       63.045      137.105        6.835       61.371       70.449       53.585     3766.348     4963.037     2871.405        1.721        0.580      150.905       48.473        0.103      336.035        7.066      860.096
11/03/2013  13:34:00      116.248      125.696        0.274       79.805       51.132       60.637     6368.803     2614.436     3676.861        2.098        0.633      171.211       39.129        0.052      336.094        7.164      860.104
11/03/2013  13:35:00       57.455       91.266      -14.992       57.876       48.374       44.837     3349.598     2340.048     2010.334        0.978        0.385      107.845       32.646        0.092      336.129        7.225      860.107
11/03/2013  13:36:00       -0.260       41.836       -4.799       28.305       22.250       26.111      801.170      495.081      681.787        0.188        0.099       41.837       20.260        0.235      336.037        7.072      860.098
11/03/2013  13:37:00      -32.192        9.307      -13.980       42.058       34.050       20.090     1768.848     1159.416      403.589        0.232        0.167       33.511       11.039        0.109      336.203        7.348      860.083
11/03/2013  13:38:00      -75.782       11.541      -11.487       36.451       30.339       15.242     1328.705      920.480      232.333        0.424        0.124       76.656       13.300        0.030      336.275        7.468      860.074
11/03/2013  13:39:00      -91.770       98.212      -16.330       67.998       80.149       39.281     4623.724     6423.789     1543.001        1.546        0.630      134.415       40.825        0.092      336.426        7.719      860.072
11/03/2013  13:40:00      -17.712      268.760      -27.075       68.926       99.485       39.765     4750.769     9897.344     1581.250        4.475        0.811      269.343       46.412        0.030      336.200        7.340      860.072
11/03/2013  13:41:00       50.006      134.573       -6.896       48.728       71.795       53.490     2374.408     5154.545     2861.169        1.552        0.520      143.564       49.217        0.118      336.249        7.423      860.064
11/03/2013  13:42:00       92.600      108.665        1.057       66.492       51.141       48.183     4421.236     2615.446     2321.604        1.487        0.468      142.769       36.377        0.065      336.150        7.258      860.049
11/03/2013  13:43:00      115.205       71.468       19.961       48.734       29.255       32.064     2374.971      855.882     1028.070        1.152        0.213      135.572       10.515        0.006      336.082        7.144      860.032
11/03/2013  13:44:00        2.619      127.484      -15.506       46.410       91.295       34.180     2153.858     8334.703     1168.304        1.408        0.583      127.511       43.533        0.117      336.273        7.463      860.039
11/03/2013  13:45:00       39.883      129.938        6.561       73.498       96.490       48.186     5402.016     9310.328     2321.912        1.777        0.852      135.921       54.738        0.162      336.530        7.892      860.047
11/03/2013  13:46:00       79.785       82.321      -10.872       68.142       58.621       39.631     4643.348     3436.375     1570.645        1.145        0.483      114.640       30.964        0.073      336.232        7.395      860.064
11/03/2013  13:47:00       -0.752       26.702        0.659       31.024       33.519       24.375      962.458     1123.548      594.146        0.170        0.134       26.713       18.281        0.468      336.338        7.573      860.044
11/03/2013  13:48:00       55.377       53.256       12.641       58.295       42.519       35.229     3398.332     1807.829     1241.084        0.625        0.322       76.829       27.101        0.124      336.457        7.772      860.034
11/03/2013  13:49:00       18.371       76.773       -1.978       60.697       68.627       24.549     3684.097     4709.667      602.648        0.761        0.450       78.940       22.324        0.080      336.284        7.481      860.018
11/03/2013  13:50:00      -10.568      126.560      -13.371       16.793       32.623       17.739      282.006     1064.236      314.671        0.898        0.083      127.000       13.523        0.011      336.049        7.091      860.003
11/03/2013  13:51:00       54.029       70.993       -2.518       47.657       37.316       31.378     2271.219     1392.454      984.578        0.631        0.232       89.214       27.202        0.093      336.218        7.373      859.991
11/03/2013  13:52:00       43.062       51.187        0.987       39.086       36.271       25.139     1527.706     1315.597      631.966        0.397        0.174       66.892       19.167        0.082      336.164        7.282      859.977
11/03/2013  13:53:00        5.384       83.029       -6.314       16.832       37.794       22.118      283.305     1428.389      489.196        0.458        0.110       83.203       21.395        0.066      336.159        7.272      859.958
11/03/2013  13:54:00       61.272       34.795       39.707       51.226       44.308       31.700     2624.080     1963.240     1004.867        0.607        0.280       70.463       25.609        0.132      336.419        7.707      859.930
11/03/2013  13:55:00       86.601       96.175       71.033       59.177       48.287       43.887     3501.880     2331.601     1926.054        1.478        0.388      129.420       38.025        0.086      336.237        7.403      859.917
11/03/2013  13:56:00       69.257       63.273       38.825       27.230       25.421       36.215      741.448      646.204     1311.561        0.650        0.135       93.808       26.789        0.082      336.090        7.160      859.910
11/03/2013  13:57:00       36.199       25.325        2.169       23.276       26.431       15.067      541.768      698.622      227.001        0.171        0.073       44.178        7.827        0.031      336.151        7.260      859.908
11/03/2013  13:58:00       60.054      -65.266      -11.388       52.509       52.090       21.963     2757.191     2713.408      482.369        0.697        0.298       88.691       22.017        0.062      336.313        7.531      859.899
11/03/2013  13:59:00       59.957      -81.354      -10.430       45.140       41.869       29.509     2037.628     1752.989      870.798        0.749        0.233      101.061       22.742        0.051      336.337        7.571      859.888
11/03/2013  14:00:00       50.934      -99.994       -2.889       46.321       40.063       23.893     2145.621     1605.041      570.865        0.846        0.216      112.219       16.097        0.021      336.560        7.945      859.872
11/03/2013  14:01:00       48.713      -96.268       -9.790       44.533       55.289       34.152     1983.175     3056.835     1166.351        0.897        0.310      107.891       32.932        0.093      336.596        8.004      859.869
11/03/2013  14:02:00       38.116      -74.216       18.501       72.640       49.971       37.782     5276.632     2497.070     1427.474        0.825        0.460       83.432       36.320        0.190      336.670        8.129      859.876
11/03/2013  14:03:00       26.924      -29.226       16.730       41.729       46.266       27.517     1741.297     2140.530      757.202        0.325        0.232       39.737       22.188        0.312      336.677        8.140      859.894
11/03/2013  14:04:00      -14.697        1.320       12.250       16.034       26.897       22.461      257.103      723.450      504.491        0.093        0.074       14.756       13.715        0.864      336.714        8.202      859.910
11/03/2013  14:05:00       38.383       47.917       -2.863       34.307       28.353       24.045     1176.995      803.879      578.161        0.317        0.128       61.394       20.432        0.111      336.683        8.149      859.918
11/03/2013  14:06:00       53.396       53.985       20.009       42.284       39.193       30.630     1787.912     1536.052      938.201        0.521        0.213       75.931       19.711        0.067      336.425        7.718      859.915
11/03/2013  14:07:00      148.774      105.921       21.716       42.105       42.339       40.312     1772.862     1792.558     1625.092        1.951        0.260      182.627       22.461        0.015      336.351        7.592      859.905
11/03/2013  14:08:00       80.203       33.161        7.397       41.577       51.453       31.950     1728.613     2647.375     1020.826        0.649        0.270       86.788       29.675        0.117      336.435        7.736      859.890
11/03/2013  14:09:00       94.356       68.853       29.882       45.029       47.522       31.056     2027.578     2258.301      964.452        0.989        0.263      116.807       27.297        0.055      336.398        7.673      859.866
11/03/2013  14:10:00       74.649       66.454        9.300       74.000       56.894       42.864     5475.973     3236.980     1837.325        1.031        0.528       99.943       34.526        0.119      336.346        7.584      859.842
11/03/2013  14:11:00       56.876       90.198       16.099       69.787       74.447       61.435     4870.221     5542.423     3774.250        1.291        0.709      106.633       47.611        0.199      336.350        7.591      859.827
11/03/2013  14:12:00       53.575      105.405        2.489       84.048       81.616       50.677     7064.005     6661.232     2568.168        1.514        0.815      118.239       42.855        0.131      336.349        7.589      859.814
11/03/2013  14:13:00       40.033       91.686       -0.306       52.015       65.421       41.785     2705.578     4279.934     1745.995        0.937        0.437      100.045       40.073        0.160      336.371        7.627      859.813
11/03/2013  14:14:00       49.945       74.834       -6.138       51.149       65.107       37.223     2616.268     4238.979     1385.551        0.819        0.412       89.970       38.724        0.185      336.430        7.727      859.812
11/03/2013  14:15:00       61.880      123.274       12.401       72.741       63.195       49.824     5291.271     3993.556     2482.392        1.547        0.588      137.933       43.944        0.101      336.394        7.665      859.816
11/03/2013  14:16:00       41.130       87.161        4.106       62.116       83.504       49.165     3858.458     6972.885     2417.234        1.127        0.662       96.378       51.394        0.284      336.449        7.759      859.836
11/03/2013  14:17:00       62.479      108.533       -6.461       48.003       66.556       45.136     2304.318     4429.635     2037.277        1.225        0.439      125.232       43.708        0.122      336.222        7.379      859.864
11/03/2013  14:18:00       41.694       91.700       -6.901       43.919       49.351       29.597     1928.839     2435.503      875.992        0.772        0.262      100.734       27.009        0.072      336.179        7.307      859.868
11/03/2013  14:19:00        0.197       17.839       -1.301       19.175       17.240       10.830      367.673      297.205      117.291        0.055        0.039       17.840        5.228        0.086      336.296        7.503      859.848
11/03/2013  14:20:00       17.934      -57.766        4.723       23.280       23.630       17.345      541.951      558.365      300.846        0.254        0.070       60.486       14.803        0.060      336.197        7.337      859.826
11/03/2013  14:21:00       -5.485        8.510       -5.405       48.067       91.723       32.657     2310.400     8413.018     1066.477        0.596        0.589       10.124       40.874       16.300      336.379        7.642      859.806
11/03/2013  14:22:00       18.479       21.459       13.491       35.736       27.988       22.359     1277.037      783.354      499.939        0.177        0.128       28.319       13.305        0.221      336.528        7.891      859.803
11/03/2013  14:23:00       16.844       12.127       16.026       38.646       15.999       17.434     1493.508      255.983      303.944        0.137        0.103       20.756       19.248        0.860      336.589        7.991      859.812
11/03/2013  14:24:00       16.882       69.142       -8.195       17.796       32.926       20.419      316.714     1084.120      416.927        0.347        0.091       71.173       22.114        0.097      336.329        7.558      859.815
11/03/2013  14:25:00      -40.998      101.045       -8.461       57.233       66.387       32.011     3275.606     4407.189     1024.692        1.033        0.435      109.045       24.796        0.052      336.472        7.796      859.826
11/03/2013  14:26:00      -88.541       91.609      -18.615       38.570       57.317       28.222     1487.679     3285.277      796.456        1.107        0.278      127.403       27.618        0.047      336.437        7.737      859.832
11/03/2013  14:27:00      -41.030      163.254      -23.256       59.381       40.557       28.367     3526.064     1644.879      804.670        1.742        0.299      168.331       29.592        0.031      336.224        7.382      859.830
11/03/2013  14:28:00       -9.731      146.116      -16.212       17.416       16.520       12.780      303.306      272.916      163.319        1.122        0.037      146.440        9.141        0.004      336.161        7.277      859.817
11/03/2013  14:29:00       40.665       40.693       -2.610       28.716       41.642       19.201      824.599     1734.062      368.678        0.312        0.146       57.529       13.762        0.057      336.278        7.471      859.789
11/03/2013  14:30:00       28.620       27.837      -11.920       24.842       24.205       15.356      617.119      585.884      235.793        0.159        0.072       39.925       10.238        0.066      336.262        7.447      859.779
11/03/2013  14:31:00       -3.310       57.183       -0.764       20.856       23.692       17.043      434.971      561.300      290.472        0.228        0.064       57.279       14.470        0.064      336.369        7.625      859.789
11/03/2013  14:32:00        1.581       44.214        0.325       30.177       40.434       25.260      910.672     1634.925      638.091        0.257        0.159       44.243       13.576        0.094      336.431        7.727      859.795
11/03/2013  14:33:00        6.992       27.407        6.766       20.115       21.775       18.318      404.624      474.169      335.558        0.103        0.061       28.285       14.547        0.265      336.449        7.758      859.790
11/03/2013  14:34:00      -11.153      182.668      -28.112       35.147       77.680       20.209     1235.283     6034.247      408.417        2.098        0.384      183.008       33.990        0.034      336.307        7.518      859.781
11/03/2013  14:35:00      -22.878      160.352      -11.533       37.528       39.051       24.116     1408.354     1525.010      581.598        1.494        0.176      161.976       18.534        0.013      336.313        7.531      859.774
11/03/2013  14:36:00       81.347       64.518       10.124       47.368       34.241       33.741     2243.726     1172.450     1138.457        0.772        0.228      103.826       25.070        0.058      336.399        7.675      859.788
11/03/2013  14:37:00      125.158       85.316        8.581       56.665       35.960       37.443     3210.958     1293.150     1402.007        1.446        0.295      151.471       21.358        0.020      336.279        7.474      859.795
11/03/2013  14:38:00       74.626      105.457        8.193       71.571       34.237       37.018     5122.342     1172.201     1370.330        1.221        0.383      129.190       30.197        0.055      336.272        7.462      859.787
11/03/2013  14:39:00       14.633      112.886      -13.876       27.162       37.067       25.386      737.755     1373.955      644.447        0.795        0.138      113.830       25.368        0.050      336.335        7.566      859.786
11/03/2013  14:40:00       18.599      166.277      -27.855       28.992       54.041       30.996      840.559     2920.412      960.737        1.675        0.236      167.314       34.729        0.043      336.278        7.474      859.789
11/03/2013  14:41:00      -61.415      114.374      -21.913       35.766       41.663       16.755     1279.237     1735.787      280.734        1.031        0.165      129.820        9.334        0.005      336.318        7.539      859.810
11/03/2013  14:42:00      -69.174       92.233      -21.374       36.317       40.914       26.282     1318.929     1673.927      690.728        0.872        0.184      115.290       20.704        0.032      336.390        7.660      859.832
11/03/2013  14:43:00      -93.420       60.295       -3.969       52.813       68.642       33.325     2789.169     4711.718     1110.523        1.049        0.431      111.188       17.248        0.024      336.390        7.660      859.836
11/03/2013  14:44:00      -51.898       97.869       -4.934       32.358       44.246       28.936     1047.027     1957.677      837.284        0.807        0.192      110.778       22.640        0.042      336.504        7.851      859.843
11/03/2013  14:45:00      -24.205      118.581      -14.533       33.335       49.301       23.088     1111.207     2430.627      533.055        0.947        0.204      121.026       20.572        0.029      336.417        7.705      859.826
11/03/2013  14:46:00      -48.506      146.244      -17.172       32.706       34.905       25.346     1069.671     1218.367      642.414        1.348        0.147      154.078       20.532        0.018      336.438        7.739      859.808
11/03/2013  14:47:00       15.711      109.397        0.662       65.799       56.982       28.008     4329.485     3246.979      784.429        1.029        0.418      110.519       24.153        0.048      336.499        7.843      859.799
11/03/2013  14:48:00       40.055       27.883        2.004       38.697       26.683       26.506     1497.450      711.966      702.588        0.265        0.146       48.805       17.036        0.122      336.519        7.876      859.815
11/03/2013  14:49:00      -22.819       28.129      -14.035       19.241       30.717       15.392      370.227      943.516      236.910        0.153        0.078       36.221       13.609        0.141      336.438        7.739      859.837
11/03/2013  14:50:00      -65.649       51.635      -18.528       35.046       45.160       18.182     1228.198     2039.452      330.568        0.546        0.180       83.522       22.912        0.075      336.509        7.859      859.846
11/03/2013  14:51:00      -67.999      144.558      -12.570       58.905       50.839       33.127     3469.836     2584.643     1097.381        1.641        0.358      159.752       27.870        0.030      336.407        7.688      859.838
11/03/2013  14:52:00      -72.208      146.809      -19.273       52.947       61.635       29.251     2803.418     3798.864      855.643        1.730        0.373      163.606       21.891        0.018      336.338        7.572      859.823
11/03/2013  14:53:00      -42.275      241.945      -29.478       28.610       51.929       18.790      818.537     2696.628      353.066        3.253        0.193      245.610       10.356        0.002      336.231        7.388      859.811
11/03/2013  14:54:00     -106.655       89.454      -26.560       20.809       44.625       21.746      433.000     1991.399      472.903        1.149        0.145      139.202       18.912        0.018      336.287        7.486      859.798
11/03/2013  14:55:00      -60.358       53.475        0.968       36.278       30.255       27.796     1316.075      915.381      772.644        0.475        0.150       80.639       21.505        0.071      336.445        7.753      859.813
11/03/2013  14:56:00       42.565       63.814       -2.731       48.150       38.549       37.486     2318.458     1486.041     1405.236        0.555        0.260       76.708       26.517        0.120      336.454        7.767      859.838
11/03/2013  14:57:00       27.747       83.622        3.888       53.734       80.239       33.350     2887.383     6438.281     1112.206        0.911        0.522       88.106       40.007        0.206      336.440        7.742      859.835
11/03/2013  14:58:00      -84.076      142.383      -24.211       25.180       44.926       22.939      634.049     2018.336      526.214        1.555        0.159      165.353       11.942        0.005      336.269        7.456      859.846
11/03/2013  14:59:00      -41.344        0.401      -10.372       21.026       23.588       17.745      442.080      556.404      314.900        0.157        0.066       41.346       16.344        0.156      336.349        7.590      859.846
11/03/2013  15:00:00        5.566       35.590       15.364       26.837       26.690       21.075      720.237      712.357      444.161        0.170        0.094       36.023       17.439        0.234      336.564        7.951      859.841
11/03/2013  15:01:00       14.741       53.670        9.806       28.734       37.854       28.240      825.658     1432.896      797.492        0.312        0.153       55.658       23.847        0.184      336.546        7.922      859.843
11/03/2013  15:02:00      -10.945       90.994      -10.663       55.234       58.036       33.676     3050.819     3368.168     1134.078        0.803        0.378       91.650       32.960        0.129      336.539        7.908      859.855
11/03/2013  15:03:00      -20.991      139.328       -8.654       25.296       43.907       24.385      639.867     1927.849      594.612        1.154        0.158      140.900       24.234        0.030      336.560        7.944      859.840
11/03/2013  15:04:00       -6.465       92.912       -0.235       43.118       61.122       32.966     1859.166     3735.932     1086.777        0.768        0.334       93.136       27.909        0.090      336.582        7.982      859.831
11/03/2013  15:05:00      -44.213       26.811      -15.867       39.777       40.673       19.568     1582.221     1654.288      382.905        0.327        0.181       51.707       14.832        0.082      336.574        7.968      859.830
11/03/2013  15:06:00      -97.406       -5.734      -14.526       40.018       53.009       30.507     1601.463     2809.971      930.706        0.754        0.267       97.575       29.219        0.090      336.429        7.725      859.823
11/03/2013  15:07:00       -4.778       -2.274       14.801       41.923       42.772       30.104     1757.524     1829.466      906.266        0.237        0.225        5.292       32.408       37.508      336.701        8.179      859.806
11/03/2013  15:08:00      -20.219       23.749        8.172       50.257       26.933       23.953     2525.768      725.391      573.760        0.243        0.191       31.190       21.642        0.481      336.714        8.202      859.801
11/03/2013  15:09:00      -48.346      203.556      -29.808       29.460       58.050       24.386      867.875     3369.797      594.692        2.475        0.242      209.219       22.742        0.012      336.352        7.594      859.793
11/03/2013  15:10:00       -0.189      185.241      -19.949       28.442       32.150       17.224      808.930     1033.598      296.673        1.843        0.107      185.241       10.731        0.003      336.411        7.693      859.787
11/03/2013  15:11:00       21.517       87.648        5.524       39.273       69.383       40.377     1542.388     4813.934     1630.288        0.808        0.399       90.250       37.913        0.176      336.659        8.110      859.769
11/03/2013  15:12:00       66.353       67.677      -11.615       44.789       37.217       23.754     2006.017     1385.123      564.260        0.654        0.198       94.778       14.770        0.024      336.558        7.941      859.751
11/03/2013  15:13:00       68.140       91.401        2.385       48.901       58.251       38.143     2391.331     3393.191     1454.907        1.012        0.362      114.005       32.119        0.079      336.608        8.025      859.744
11/03/2013  15:14:00       68.946       40.159       19.891       49.231       34.606       39.903     2423.725     1197.606     1592.263        0.599        0.261       79.789       18.489        0.054      336.552        7.932      859.723
11/03/2013  15:15:00       81.076       93.439        0.228       70.026       64.213       43.704     4903.586     4123.359     1910.007        1.312        0.547      123.710       31.450        0.065      336.470        7.792      859.700
11/03/2013  15:16:00       20.046       89.264       11.432       67.805       62.810       39.175     4597.465     3945.153     1534.706        0.929        0.504       91.487       41.807        0.209      336.507        7.855      859.688
11/03/2013  15:17:00       25.765       98.579       -0.429       49.366       51.080       35.089     2437.049     2609.208     1231.231        0.833        0.314      101.890       31.277        0.094      336.463        7.783      859.682
11/03/2013  15:18:00       12.483      108.002       -7.371       38.885       51.841       31.419     1512.077     2687.523      987.131        0.853        0.259      108.721       33.018        0.092      336.483        7.816      859.668
11/03/2013  15:19:00      -28.530      165.471      -12.452       38.013       69.297       27.685     1445.011     4802.043      766.476        1.768        0.351      167.912       28.008        0.028      336.557        7.939      859.661
11/03/2013  15:20:00      -26.586      175.963      -24.802       29.208       43.366       22.687      853.113     1880.595      514.712        1.777        0.162      177.960       23.460        0.017      336.384        7.650      859.654
11/03/2013  15:21:00       20.319      122.372      -10.377       39.905       45.966       27.702     1592.401     2112.838      767.380        0.998        0.224      124.048       21.767        0.031      336.560        7.945      859.648
11/03/2013  15:22:00       20.682       44.070        4.176       40.920       50.084       30.261     1674.437     2508.376      915.747        0.374        0.255       48.681       27.893        0.328      336.619        8.043      859.657
11/03/2013  15:23:00       54.195       96.923       -1.180       59.292       57.738       37.340     3515.542     3333.684     1394.272        1.029        0.412      111.046       33.147        0.089      336.531        7.895      859.654
11/03/2013  15:24:00      151.267       90.445       12.051       70.884       71.216       47.278     5024.559     5071.721     2235.207        2.177        0.617      176.244       31.392        0.032      336.395        7.666      859.621
11/03/2013  15:25:00      137.144       83.053       10.070       83.708       65.366       44.693     7007.054     4272.741     1997.508        1.954        0.664      160.332       28.759        0.032      336.388        7.654      859.591
11/03/2013  15:26:00      136.909       87.869       11.616       69.523       44.862       35.148     4833.496     2012.628     1235.355        1.734        0.404      162.681       24.719        0.023      336.316        7.534      859.569
11/03/2013  15:27:00      112.814       79.075        6.983       51.565       50.123       46.647     2658.999     2512.312     2175.970        1.319        0.367      137.767       34.006        0.061      336.329        7.557      859.559
11/03/2013  15:28:00        3.145      138.614       -5.572       28.812       69.493       34.774      830.114     4829.223     1209.215        1.306        0.343      138.650       40.948        0.087      336.330        7.560      859.545
11/03/2013  15:29:00       48.819       78.139        4.863       43.802       51.953       47.416     1918.574     2699.116     2248.267        0.769        0.343       92.136       35.991        0.153      336.378        7.639      859.531
11/03/2013  15:30:00       14.089       79.592       -5.103       34.738       44.198       28.813     1206.739     1953.431      830.166        0.527        0.200       80.829       25.289        0.098      336.290        7.492      859.524
11/03/2013  15:31:00       -7.581      128.143       -8.573       36.118       46.278       27.556     1304.503     2141.648      759.336        1.038        0.210      128.367       24.794        0.037      336.319        7.540      859.505
11/03/2013  15:32:00      -14.447       83.444        1.560       28.083       38.931       28.632      788.659     1515.593      819.810        0.515        0.156       84.686       20.045        0.056      336.411        7.694      859.481
11/03/2013  15:33:00       32.177       44.858        3.369       42.930       19.745       24.054     1842.991      389.852      578.578        0.293        0.141       55.205       17.376        0.099      336.405        7.686      859.441
11/03/2013  15:34:00       74.810       54.154       -3.202       40.308       32.678       25.193     1624.730     1067.850      634.669        0.593        0.166       92.354       16.402        0.032      336.353        7.598      859.422
11/03/2013  15:35:00        2.841      104.201       -3.829       36.874       72.143       24.975     1359.698     5204.642      623.764        0.903        0.359      104.240       28.791        0.076      336.332        7.562      859.418
11/03/2013  15:36:00       28.816      175.778      -15.695       34.551       70.991       33.805     1193.776     5039.776     1142.784        1.967        0.369      178.125       33.763        0.036      336.350        7.590      859.422
11/03/2013  15:37:00       31.264      104.981      -12.692       32.550       52.809       32.259     1059.510     2788.838     1040.611        0.852        0.244      109.537       29.895        0.074      336.418        7.705      859.428
11/03/2013  15:38:00       39.272       87.468       -1.716       54.881       59.981       39.971     3011.911     3597.717     1597.652        0.870        0.410       95.880       34.923        0.133      336.417        7.706      859.443
11/03/2013  15:39:00      106.797       75.034       18.504       75.257       48.976       32.082     5663.660     2398.634     1029.264        1.323        0.455      130.521       16.612        0.016      336.406        7.685      859.434
11/03/2013  15:40:00       81.060      104.189       -1.172       54.761       77.251       36.972     2998.772     5967.646     1366.933        1.388        0.517      132.008       44.881        0.116      336.244        7.413      859.416
11/03/2013  15:41:00       80.050       96.058       -5.841       55.679       50.645       28.486     3100.160     2564.871      811.475        1.107        0.324      125.040       26.655        0.045      336.223        7.379      859.395
11/03/2013  15:42:00       42.609       34.446        9.100       39.387       29.518       31.711     1551.375      871.332     1005.570        0.326        0.171       54.791       17.466        0.102      336.277        7.471      859.382
11/03/2013  15:43:00       87.897       69.806        5.412       59.529       43.627       37.015     3543.708     1903.296     1370.077        0.972        0.341      112.244       20.727        0.034      336.188        7.321      859.366
11/03/2013  15:44:00       96.966       70.680       35.416       63.785       51.482       38.376     4068.580     2650.352     1472.728        1.192        0.410      119.991       22.432        0.035      336.233        7.397      859.348
11/03/2013  15:45:00       80.924       80.701       18.006       76.616       71.239       56.075     5870.028     5074.962     3144.400        1.374        0.704      114.286       36.116        0.100      336.288        7.488      859.328
11/03/2013  15:46:00      116.279      107.472        4.202       94.997       79.920       74.248     9024.424     6387.175     5512.805        2.300        1.046      158.338       50.334        0.101      336.131        7.225      859.337
11/03/2013  15:47:00      117.220      114.854       17.388       86.793       53.017       52.304     7533.044     2810.839     2735.746        2.015        0.654      164.110       35.162        0.046      336.150        7.258      859.320
11/03/2013  15:48:00      106.917       95.794       21.942       88.496       50.506       38.628     7831.530     2550.816     1492.145        1.648        0.594      143.554       19.165        0.018      336.176        7.301      859.319
11/03/2013  15:49:00      107.846       95.431       16.434       78.980       59.521       41.884     6237.868     3542.753     1754.307        1.627        0.577      144.007       29.303        0.041      336.192        7.327      859.314
11/03/2013  15:50:00       47.191      140.511      -20.992       39.730       81.586       29.560     1578.478     6656.342      873.785        1.576        0.455      148.224       36.809        0.062      336.184        7.315      859.315
11/03/2013  15:51:00       73.281       85.050       13.055       72.156       59.915       45.144     5206.428     3589.795     2037.974        1.180        0.542      112.266       32.497        0.084      336.205        7.351      859.318
11/03/2013  15:52:00       68.578       65.182       21.102       76.767       60.190       55.083     5893.167     3622.841     3034.172        1.097        0.628       94.613       33.903        0.128      336.157        7.269      859.306
11/03/2013  15:53:00       47.410       91.802        3.564       54.517       45.556       35.783     2972.150     2075.320     1280.401        0.851        0.316      103.321       23.460        0.052      336.152        7.261      859.305
11/03/2013  15:54:00       82.181      116.336        9.189       50.716       86.852       50.461     2572.131     7543.348     2546.305        1.651        0.633      142.435       49.752        0.122      336.130        7.224      859.306
11/03/2013  15:55:00       38.570      109.964        4.300       64.036       86.726       50.337     4100.601     7521.367     2533.822        1.387        0.708      116.532       47.186        0.164      336.109        7.188      859.303
11/03/2013  15:56:00       50.743      117.222       -1.176       52.302       75.983       49.968     2735.546     5773.456     2496.797        1.366        0.550      127.733       41.791        0.107      336.069        7.122      859.299
11/03/2013  15:57:00       20.035       95.914       10.810       48.093       71.062       43.041     2312.950     5049.815     1852.563        0.946        0.461       97.984       40.021        0.167      336.092        7.160      859.276
11/03/2013  15:58:00       58.426      160.052      -11.865       54.294      133.804       59.988     2947.878    17903.390     3598.505        2.681        1.222      170.383       80.100        0.221      336.042        7.076      859.248
11/03/2013  15:59:00       -3.447      100.099       -0.026       54.006       71.600       43.301     2916.647     5126.581     1874.990        0.997        0.496      100.159       33.243        0.110      336.148        7.255      859.225
11/03/2013  16:00:00       67.452       29.614        6.337       49.788       39.393       32.899     2478.832     1551.778     1082.371        0.529        0.256       73.667       16.531        0.050      336.146        7.252      859.213
11/03/2013  16:01:00       49.805       28.289        9.387       40.107       39.017       22.677     1608.584     1522.348      514.230        0.351        0.182       57.278       15.158        0.070      336.188        7.321      859.210
11/03/2013  16:02:00       21.126      165.717      -20.121       52.707       84.406       40.491     2778.072     7124.354     1639.551        1.993        0.577      167.058       46.766        0.078      336.054        7.098      859.211
11/03/2013  16:03:00       32.407      172.122      -10.558       56.095       86.876       45.055     3146.659     7547.416     2029.935        2.175        0.636      175.146       43.555        0.062      336.063        7.112      859.187
11/03/2013  16:04:00       53.373       53.144        7.871       74.266       52.278       47.823     5515.494     2733.030     2287.037        0.813        0.527       75.319       34.494        0.210      336.107        7.187      859.162
11/03/2013  16:05:00       84.937       69.709       11.549       68.741       43.301       47.729     4725.336     1875.014     2278.033        1.054        0.444      109.880       32.139        0.086      336.069        7.123      859.134
11/03/2013  16:06:00       62.692      104.384       -7.359       61.611       54.417       34.174     3795.903     2961.162     1167.879        1.140        0.396      121.763       21.204        0.030      336.066        7.117      859.120
11/03/2013  16:07:00       57.327       97.262       -1.316       71.401       73.589       49.779     5098.104     5415.365     2477.960        1.287        0.650      112.899       44.308        0.154      336.038        7.071      859.109
11/03/2013  16:08:00       58.880      146.685      -18.888       58.544       79.400       55.786     3427.446     6304.422     3112.060        1.909        0.642      158.061       42.984        0.074      335.995        6.998      859.101
11/03/2013  16:09:00       96.867      106.541        5.745       72.102       81.643       51.103     5198.759     6665.580     2611.548        1.762        0.724      143.994       47.307        0.108      335.995        6.998      859.101
11/03/2013  16:10:00      154.926       82.866       19.111       73.332       56.657       39.703     5377.592     3210.021     1576.291        2.070        0.508      175.695       20.112        0.013      336.026        7.049      859.103
11/03/2013  16:11:00      171.525       99.857       23.617       92.632       67.518       51.844     8580.638     4558.646     2687.847        2.789        0.791      198.475       50.214        0.064      336.006        7.015      859.111
11/03/2013  16:12:00      175.559      110.688       16.548       66.992       53.336       49.333     4487.910     2844.710     2433.775        2.655        0.488      207.539       26.782        0.017      335.956        6.931      859.105
11/03/2013  16:13:00      199.993      117.863       14.497       80.580       59.824       51.816     6493.139     3578.939     2684.889        3.343        0.638      232.140       42.860        0.034      335.975        6.962      859.098
11/03/2013  16:14:00      134.748      113.450       12.266       96.121       61.639       57.302     9239.272     3799.421     3283.554        2.375        0.816      176.148       36.976        0.044      335.946        6.916      859.087
11/03/2013  16:15:00       90.663      121.541      -12.923       73.231       75.997       54.420     5362.779     5775.586     2961.531        1.863        0.705      151.631       45.239        0.089      335.922        6.878      859.077
11/03/2013  16:16:00       99.224       97.513        5.918       78.524       54.809       51.814     6166.033     3004.013     2684.666        1.562        0.593      139.119       35.549        0.065      335.952        6.927      859.069
11/03/2013  16:17:00      153.096      117.740       10.235       77.388       53.103       54.693     5988.829     2819.907     2991.355        2.460        0.590      193.135       29.954        0.024      335.943        6.910      859.058
11/03/2013  16:18:00       84.741       87.298       12.815       63.128       46.414       41.243     3985.202     2154.238     1700.985        1.140        0.392      121.664       28.269        0.054      335.972        6.962      859.051
11/03/2013  16:19:00      108.350       76.287       27.307       98.857       65.737       48.657     9772.650     4321.363     2367.518        1.738        0.823      132.512       18.810        0.020      335.945        6.915      859.043
11/03/2013  16:20:00      134.309       85.651       22.513       65.308       55.943       47.766     4265.127     3129.628     2281.596        1.778        0.484      159.295       22.881        0.021      335.892        6.826      859.025
11/03/2013  16:21:00      103.430      120.672        8.692       90.866       65.982       48.436     8256.588     4353.633     2346.080        2.014        0.748      158.933       41.722        0.069      335.861        6.773      859.026
11/03/2013  16:22:00       67.463      138.411       -4.840       53.279       98.606       52.538     2838.665     9723.175     2760.226        1.952        0.766      153.977       56.299        0.134      335.855        6.765      859.027
11/03/2013  16:23:00       61.161      148.341        3.970       59.044      111.538       59.491     3486.247    12440.682     3539.164        2.261        0.973      160.455       64.948        0.164      335.850        6.757      859.015
11/03/2013  16:24:00       66.146      106.886        9.860       67.186       71.861       64.336     4513.948     5163.970     4139.151        1.485        0.691      125.698       44.179        0.124      335.827        6.719      858.998
11/03/2013  16:25:00       89.813      101.461       16.806       76.978       69.386       67.802     5925.652     4814.420     4597.137        1.699        0.767      135.502       51.700        0.146      335.823        6.713      858.993
11/03/2013  16:26:00      153.594      117.673        2.144      102.262       77.587       66.933    10457.423     6019.749     4480.054        2.920        1.048      193.489       46.774        0.058      335.800        6.672      858.960
11/03/2013  16:27:00       74.271       95.264       -1.531       71.550       87.673       44.396     5119.473     7686.518     1970.994        1.468        0.739      120.795       41.685        0.119      335.808        6.687      858.953
11/03/2013  16:28:00       57.220      218.982      -13.653       87.084      124.247       67.325     7583.585    15437.410     4532.615        3.948        1.378      226.334       73.989        0.107      335.749        6.588      858.935
11/03/2013  16:29:00      146.216      139.016       -1.613       76.468       61.529       58.317     5847.416     3785.766     3400.880        2.687        0.652      201.753       47.458        0.055      335.767        6.618      858.928
11/03/2013  16:30:00      142.575      117.700       22.138       94.970       80.325       67.240     9019.249     6452.173     4521.159        2.733        1.000      184.881       46.201        0.062      335.755        6.596      858.929
11/03/2013  16:31:00      100.429      102.944       -2.757       82.802       68.007       49.344     6856.167     4624.974     2434.843        1.730        0.696      143.818       44.660        0.096      335.764        6.613      858.919
11/03/2013  16:32:00       67.813      211.651      -15.375       68.781      118.942       72.398     4730.792    14147.083     5241.406        3.687        1.206      222.250       69.145        0.097      335.717        6.534      858.915
11/03/2013  16:33:00       54.224      130.232      -10.730       70.271       67.302       55.118     4938.027     4529.500     3038.048        1.626        0.625      141.070       49.572        0.123      335.714        6.532      858.929
11/03/2013  16:34:00       68.536      196.465      -12.463       81.178      106.509       69.525     6589.796    11344.221     4833.703        3.311        1.138      208.076       69.203        0.111      335.693        6.493      858.945
11/03/2013  16:35:00       48.133      134.947       -6.593       47.732       86.247       51.105     2278.344     7438.459     2611.732        1.645        0.616      143.274       56.389        0.155      335.695        6.498      858.946
11/03/2013  16:36:00       65.959      122.435        1.946       73.840      105.015       51.445     5452.284    11028.176     2646.621        1.923        0.956      139.071       56.372        0.164      335.695        6.498      858.945
11/03/2013  16:37:00      101.347       55.759        7.270       53.611       43.176       36.661     2874.162     1864.203     1344.004        0.976        0.304      115.673       24.080        0.043      335.737        6.571      858.929
11/03/2013  16:38:00       76.730       62.833       -0.739       57.261       37.732       33.794     3278.852     1423.716     1142.026        0.784        0.292       99.174       23.169        0.055      335.737        6.571      858.915
11/03/2013  16:39:00       50.073       51.279        3.842       55.716       40.870       31.288     3104.266     1670.359      978.955        0.545        0.288       71.672       23.830        0.111      335.709        6.525      858.916
11/03/2013  16:40:00       56.724       77.426        1.267       57.791       61.865       34.798     3339.853     3827.280     1210.875        0.879        0.419       95.981       29.641        0.095      335.687        6.486      858.914
11/03/2013  16:41:00       57.549       98.021        9.796       67.874       72.470       43.888     4606.891     5251.951     1926.164        1.240        0.589      113.666       44.521        0.153      335.666        6.453      858.908
11/03/2013  16:42:00       78.422       67.950       10.064       47.285       41.369       35.988     2235.906     1711.365     1295.128        0.805        0.262      103.766       22.921        0.049      335.677        6.470      858.899
11/03/2013  16:43:00       59.006       79.096       19.113       58.860       50.287       41.375     3464.458     2528.829     1711.858        0.890        0.385       98.680       25.954        0.069      335.656        6.436      858.891
11/03/2013  16:44:00      110.196      109.209       19.241      104.789       82.262       68.928    10980.689     6767.036     4751.031        2.347        1.125      155.144       51.031        0.108      335.619        6.372      858.878
11/03/2013  16:45:00      132.018      141.900       12.241      103.294       89.163       57.958    10669.750     7950.070     3359.130        2.984        1.099      193.816       50.159        0.067      335.602        6.342      858.874
11/03/2013  16:46:00      125.667      126.843       11.222       94.251       77.197       67.535     8883.316     5959.442     4560.944        2.570        0.970      178.553       55.172        0.095      335.599        6.339      858.867
11/03/2013  16:47:00       78.269      142.194       -2.879       70.337       83.482       50.271     4947.252     6969.293     2527.180        2.040        0.722      162.311       47.108        0.084      335.582        6.312      858.868
11/03/2013  16:48:00       65.945       84.884        1.913       67.415       63.010       39.910     4544.772     3970.272     1592.825        1.083        0.505      107.490       30.465        0.080      335.584        6.317      858.860
11/03/2013  16:49:00       92.892       89.559       26.630       86.346       47.664       49.919     7455.590     2271.877     2491.885        1.479        0.611      129.034       28.767        0.050      335.579        6.306      858.843
11/03/2013  16:50:00       32.640      170.970      -12.732       62.657       93.048       60.878     3925.891     8657.950     3706.074        2.337        0.814      174.058       58.740        0.114      335.552        6.259      858.834
11/03/2013  16:51:00       27.544      120.983        7.025       68.863       83.782       58.274     4742.087     7019.382     3395.877        1.530        0.758      124.078       52.723        0.181      335.564        6.281      858.820
11/03/2013  16:52:00       19.062      136.572       -8.164       43.769       61.060       38.586     1915.740     3728.325     1488.860        1.311        0.357      137.896       38.915        0.080      335.584        6.315      858.816
11/03/2013  16:53:00       61.561       85.913        7.749       45.641       73.382       46.753     2083.128     5384.959     2185.881        1.044        0.483      105.692       48.785        0.213      335.584        6.315      858.801
11/03/2013  16:54:00       41.721       85.202       -2.325       50.947       59.558       40.320     2595.548     3547.187     1625.696        0.839        0.388       94.869       29.830        0.099      335.554        6.264      858.787
11/03/2013  16:55:00       71.908       95.010        3.936       64.402       78.324       52.954     4147.570     6134.670     2804.137        1.365        0.654      119.154       51.766        0.189      335.522        6.212      858.788
11/03/2013  16:56:00       59.193       91.808       -7.784       53.891       72.570       40.080     2904.202     5266.416     1606.438        1.088        0.489      109.236       37.873        0.120      335.500        6.175      858.782
11/03/2013  16:57:00       56.328       90.054        6.127       67.936       78.398       55.991     4615.332     6146.228     3134.945        1.261        0.695      106.219       49.130        0.214      335.488        6.154      858.784
11/03/2013  16:58:00       93.550       85.394       11.171      103.815       58.957       47.596    10777.625     3475.869     2265.403        1.634        0.826      126.664       28.718        0.051      335.481        6.141      858.783
11/03/2013  16:59:00       69.132      129.294        7.903       74.291       90.500       64.629     5519.188     8190.240     4176.916        1.972        0.894      146.616       60.016        0.168      335.480        6.140      858.777
11/03/2013  17:00:00      113.283       77.497       14.624       97.312       63.695       51.748     9469.588     4057.043     2677.882        1.763        0.810      137.254       35.892        0.068      335.472        6.128      858.781
11/03/2013  17:01:00       74.898       89.397        3.105       61.688       73.444       51.504     3805.460     5393.979     2652.630        1.273        0.593      116.626       47.291        0.164      335.470        6.125      858.775
11/03/2013  17:02:00       43.585      121.826       -1.106       60.773       81.459       45.511     3693.407     6635.604     2071.255        1.457        0.620      129.388       44.783        0.120      335.460        6.109      858.772
11/03/2013  17:03:00       36.776      116.764       -0.486       56.540       85.972       47.119     3196.786     7391.108     2220.211        1.390        0.640      122.418       50.433        0.170      335.453        6.095      858.766
11/03/2013  17:04:00        3.976      128.523       -6.902       51.390       64.604       37.424     2640.946     4173.710     1400.526        1.240        0.411      128.584       37.368        0.084      335.469        6.124      858.761
11/03/2013  17:05:00       52.931       33.215        7.554       58.822       41.813       25.107     3460.027     1748.360      630.355        0.490        0.292       62.489       24.073        0.148      335.479        6.140      858.754
11/03/2013  17:06:00       62.877       71.116        7.568       54.683       47.478       40.040     2990.212     2254.206     1603.163        0.796        0.342       94.926       24.360        0.066      335.457        6.104      858.764
11/03/2013  17:07:00      -16.024      115.736       -9.573       42.849       46.795       28.572     1836.034     2189.746      816.354        0.929        0.242      116.840       28.498        0.059      335.489        6.156      858.788
11/03/2013  17:08:00      -10.514      193.612      -19.361       39.518       61.089       28.006     1561.648     3731.868      784.353        2.202        0.304      193.897       28.335        0.021      335.466        6.116      858.823
11/03/2013  17:09:00      -14.044      137.284      -16.654       48.792       45.414       34.574     2380.680     2062.389     1195.338        1.248        0.282      138.001       18.918        0.019      335.471        6.127      858.844
11/03/2013  17:10:00      -22.706      227.232      -24.113       55.941       59.588       32.357     3129.441     3550.706     1046.966        3.023        0.386      228.364       34.348        0.023      335.465        6.115      858.869
11/03/2013  17:11:00     -100.158      223.439      -23.341       66.504       74.126       44.990     4422.791     5494.728     2024.096        3.622        0.597      244.861       39.118        0.026      335.466        6.118      858.891
11/03/2013  17:12:00      -75.364      186.554      -16.065       64.003       89.688       34.122     4096.401     8043.960     1164.315        2.702        0.665      201.202       38.358        0.036      335.494        6.163      858.917
11/03/2013  17:13:00      -54.032      238.277      -29.793       74.360       83.507       29.536     5529.482     6973.493      872.346        3.698        0.669      244.326       30.619        0.016      335.460        6.105      858.931
11/03/2013  17:14:00      -14.801      254.482      -38.706       61.081       66.501       35.351     3730.887     4422.437     1249.682        3.794        0.470      254.912       31.941        0.016      335.461        6.106      858.942
11/03/2013  17:15:00       -6.318      207.798      -27.747       50.008       53.758       32.037     2500.787     2889.969     1026.380        2.520        0.321      207.894       19.151        0.008      335.451        6.091      858.942
11/03/2013  17:16:00        2.989      135.246      -13.469       33.684       39.470       22.175     1134.618     1557.898      491.750        1.083        0.159      135.279       18.860        0.019      335.490        6.159      858.938
11/03/2013  17:17:00        4.221      131.195      -14.203       36.589       35.529       23.241     1338.769     1262.299      540.135        1.029        0.157      131.263       13.027        0.010      335.485        6.152      858.927
11/03/2013  17:18:00      -29.517      200.894      -13.344       44.020       54.678       37.324     1937.717     2989.640     1393.065        2.386        0.316      203.051       32.972        0.026      335.471        6.126      858.916
11/03/2013  17:19:00      -56.477      164.783      -14.806       60.623       73.658       35.822     3675.159     5425.475     1283.221        2.047        0.519      174.193       37.999        0.048      335.467        6.117      858.903
11/03/2013  17:20:00      -53.962      141.714      -18.831       52.097       70.324       32.855     2714.089     4945.515     1079.468        1.604        0.437      151.640       31.921        0.044      335.475        6.132      858.906
11/03/2013  17:21:00      -15.567      183.874      -28.151       53.653       83.139       34.329     2878.670     6912.127     1178.490        2.291        0.548      184.532       28.498        0.024      335.460        6.107      858.899
11/03/2013  17:22:00      -12.790      168.388      -22.173       45.265       73.182       28.215     2048.938     5355.542      796.083        1.860        0.410      168.873       34.327        0.041      335.431        6.060      858.884
11/03/2013  17:23:00      -10.588      314.242      -40.705       29.528       61.171       21.958      871.930     3741.946      482.144        5.281        0.255      314.421       20.190        0.004      335.375        5.963      858.864
11/03/2013  17:24:00      -27.518      213.968      -24.872       32.112       35.267       21.029     1031.158     1243.791      442.203        2.494        0.136      215.730       14.309        0.004      335.413        6.027      858.852
11/03/2013  17:25:00      -14.109      157.109      -17.026       47.290       82.345       30.931     2236.387     6780.746      956.737        1.757        0.499      157.741       40.652        0.066      335.396        6.002      858.854
11/03/2013  17:26:00      -78.781      219.060      -27.052       75.685       66.620       35.761     5728.288     4438.178     1278.870        3.318        0.572      232.795       30.754        0.017      335.399        6.004      858.877
11/03/2013  17:27:00      -35.141      219.299      -30.605       43.933       75.578       30.597     1930.100     5712.100      936.180        2.942        0.429      222.097       11.275        0.003      335.391        5.991      858.886
11/03/2013  17:28:00      -35.099      220.556      -30.090       45.758       68.129       29.152     2093.758     4641.508      849.812        2.918        0.379      223.332       32.717        0.021      335.364        5.946      858.891
11/03/2013  17:29:00      -23.593      184.811      -18.653       56.489       77.119       39.902     3190.986     5947.291     1592.185        2.289        0.537      186.311       38.919        0.044      335.374        5.962      858.893
11/03/2013  17:30:00      -26.231      186.245      -21.651       45.854       58.783       30.222     2102.580     3455.482      913.376        2.116        0.324      188.083       30.293        0.026      335.364        5.948      858.898
11/03/2013  17:31:00      -56.407      225.087      -34.617       44.221       48.230       34.797     1955.495     2326.179     1210.819        3.027        0.275      232.047       28.337        0.015      335.376        5.964      858.894
11/03/2013  17:32:00       -0.724      258.478      -36.959       40.769       51.799       27.929     1662.079     2683.169      780.010        3.665        0.256      258.479       22.090        0.007      335.337        5.899      858.904
11/03/2013  17:33:00      -10.443      182.400      -21.692       45.500       73.910       35.121     2070.212     5462.641     1233.493        2.131        0.438      182.699       34.618        0.036      335.369        5.955      858.901
11/03/2013  17:34:00      -20.723      244.326      -28.144       53.404       75.370       40.671     2852.029     5680.562     1654.165        3.555        0.509      245.203       42.286        0.030      335.350        5.920      858.904
11/03/2013  17:35:00       15.077      308.029      -41.133       54.107       61.303       37.337     2927.578     3758.098     1394.039        5.244        0.404      308.398       30.364        0.010      335.327        5.881      858.892
11/03/2013  17:36:00       14.967      317.548      -49.637       49.787       53.690       32.241     2478.732     2882.581     1039.490        5.496        0.320      317.901       28.530        0.008      335.308        5.851      858.866
11/03/2013  17:37:00      -18.685      126.933       -7.194       47.896       71.432       36.573     2293.983     5102.532     1337.599        1.262        0.437      128.301       36.392        0.080      335.296        5.834      858.852
11/03/2013  17:38:00      -18.038      189.232      -23.394       42.192       47.940       27.305     1780.176     2298.266      745.545        2.075        0.241      190.090       27.173        0.020      335.328        5.886      858.846
11/03/2013  17:39:00      -28.490      192.435      -24.104       70.679       55.878       30.216     4995.565     3122.301      913.003        2.373        0.452      194.532       25.006        0.017      335.353        5.927      858.847
11/03/2013  17:40:00      -24.921      172.719      -20.205       42.729       42.447       23.081     1825.804     1801.779      532.711        1.751        0.208      174.508       17.447        0.010      335.321        5.875      858.836
11/03/2013  17:41:00       -3.950      144.352      -22.144       40.389       40.229       20.413     1631.234     1618.370      416.681        1.250        0.183      144.406       17.537        0.015      335.332        5.895      858.826
11/03/2013  17:42:00      -12.815      163.876      -15.805       36.898       79.185       26.818     1361.486     6270.313      719.192        1.781        0.418      164.377       37.142        0.051      335.269        5.789      858.795
11/03/2013  17:43:00      -41.751      212.805      -25.980       41.201       39.704       24.240     1697.527     1576.442      587.554        2.578        0.193      216.862       19.438        0.008      335.268        5.786      858.772
11/03/2013  17:44:00      -53.144      193.921      -23.662       39.823       63.360       25.271     1585.854     4014.475      638.606        2.361        0.312      201.071       15.875        0.006      335.306        5.850      858.754
11/03/2013  17:45:00      -36.020      137.261      -14.825       40.960       53.710       33.167     1677.689     2884.798     1100.031        1.301        0.283      141.908       34.907        0.061      335.291        5.826      858.759
11/03/2013  17:46:00       -4.125       56.468       -0.702       37.515       49.377       21.031     1407.340     2438.129      442.311        0.375        0.214       56.618       19.948        0.124      335.294        5.833      858.770
11/03/2013  17:47:00      -31.738      103.409      -14.082       42.363       90.004       36.290     1794.660     8100.664     1316.928        1.155        0.561      108.170       45.129        0.174      335.286        5.816      858.776
11/03/2013  17:48:00     -111.028      177.171      -26.291       52.748       72.730       37.051     2782.350     5289.633     1372.772        2.692        0.472      209.085       31.975        0.023      335.226        5.715      858.796
11/03/2013  17:49:00      -84.191      118.407      -28.082       45.378       59.591       28.384     2059.140     3551.055      805.631        1.416        0.321      145.288       29.369        0.041      335.215        5.699      858.803
11/03/2013  17:50:00      -18.934      122.026      -11.400       33.694       55.320       20.280     1135.257     3060.348      411.286        0.999        0.230      123.486       14.633        0.014      335.319        5.873      858.831
11/03/2013  17:51:00      -28.856       87.641       -3.020       25.402       58.845       22.853      645.248     3462.695      522.277        0.658        0.232       92.269       19.197        0.043      335.380        5.973      858.859
11/03/2013  17:52:00      -91.828       81.002      -14.045       43.478       48.941       24.949     1890.356     2395.177      622.475        1.005        0.245      122.449       23.212        0.036      335.268        5.787      858.881
11/03/2013  17:53:00     -141.587      201.719      -40.444       73.458       79.496       42.629     5396.076     6319.538     1817.259        3.795        0.677      246.449       44.162        0.032      335.203        5.677      858.889
11/03/2013  17:54:00     -117.361      194.257      -38.708       49.035       54.314       30.144     2404.471     2949.965      908.665        2.963        0.313      226.957       20.918        0.008      335.183        5.644      858.870
11/03/2013  17:55:00     -113.678      229.506      -25.155       73.592       90.440       39.694     5415.771     8179.320     1575.605        4.070        0.759      256.117       45.973        0.032      335.154        5.597      858.843
11/03/2013  17:56:00      -71.978      153.845      -19.286       44.322       63.143       31.935     1964.443     3987.090     1019.830        1.810        0.349      169.851       30.149        0.032      335.202        5.677      858.840
11/03/2013  17:57:00     -152.107      183.339      -34.212       73.108      104.391       41.498     5344.722    10897.412     1722.111        3.794        0.898      238.222       43.081        0.033      335.167        5.619      858.837
11/03/2013  17:58:00     -170.097      144.464      -46.284       57.563       62.183       32.870     3313.494     3866.728     1080.457        3.010        0.413      223.165       33.378        0.022      335.155        5.598      858.849
11/03/2013  17:59:00     -159.083      187.971      -52.950       52.601       63.622       35.490     2766.820     4047.778     1259.516        3.576        0.404      246.252       34.355        0.019      335.135        5.566      858.878
11/03/2013  18:00:00     -161.510      168.857      -39.182       67.213       57.480       35.349     4517.648     3303.966     1249.574        3.260        0.454      233.662       36.280        0.024      335.111        5.527      858.916
11/03/2013  18:01:00     -155.316      167.195      -41.923       60.369       50.554       26.068     3644.425     2555.708      679.543        3.036        0.344      228.205       31.214        0.019      335.124        5.549      858.938
11/03/2013  18:02:00     -151.507      126.698      -30.411       76.662       72.027       44.097     5877.098     5187.949     1944.561        2.647        0.650      197.501       47.351        0.057      335.115        5.534      858.952
11/03/2013  18:03:00      -71.655      107.056       -9.440       52.340       43.371       30.915     2739.437     1881.026      955.734        1.113        0.279      128.823       29.067        0.051      335.120        5.543      858.948
11/03/2013  18:04:00     -134.811      155.292      -31.929       61.309       65.960       31.388     3758.834     4350.714      985.182        2.620        0.455      205.644       32.147        0.024      335.168        5.622      858.936
11/03/2013  18:05:00      -63.452      121.408      -11.732       44.203       59.863       23.644     1953.884     3583.586      559.024        1.250        0.305      136.989       18.466        0.018      335.143        5.582      858.919
11/03/2013  18:06:00      -97.397       89.047      -23.321       31.713       36.711       20.762     1005.687     1347.668      431.042        1.037        0.139      131.967       21.583        0.027      335.154        5.599      858.905
11/03/2013  18:07:00     -111.933      117.315      -21.960       51.318       78.347       36.386     2633.493     6138.208     1323.922        1.843        0.505      162.147       34.174        0.044      335.160        5.609      858.908
11/03/2013  18:08:00     -116.075       58.620      -13.270       61.133       56.737       39.594     3737.296     3219.099     1567.662        1.280        0.426      130.037       42.121        0.105      335.157        5.604      858.906
11/03/2013  18:09:00     -104.311       77.089      -19.518       44.973       68.413       30.803     2022.538     4680.391      948.812        1.243        0.383      129.705       27.139        0.044      335.148        5.591      858.896
11/03/2013  18:10:00     -129.768      161.106      -22.630       55.320       66.045       38.814     3060.317     4361.879     1506.513        2.612        0.446      206.869       30.597        0.022      335.107        5.521      858.894
11/03/2013  18:11:00      -92.198       96.167      -25.579       44.573       62.972       28.881     1986.761     3965.486      834.121        1.259        0.339      133.224       31.778        0.057      335.122        5.548      858.888
11/03/2013  18:12:00     -129.237       98.188      -23.991       51.297       82.890       37.985     2631.336     6870.692     1442.851        1.893        0.547      162.306       37.063        0.052      335.122        5.545      858.873
11/03/2013  18:13:00     -123.870       95.965      -22.126       28.213       49.261       23.482      795.971     2426.642      551.390        1.441        0.189      156.694       21.131        0.018      335.116        5.536      858.864
11/03/2013  18:14:00     -141.665      126.571      -27.471       58.701       56.109       35.749     3445.823     3148.189     1277.979        2.236        0.394      189.972       32.900        0.030      335.106        5.520      858.865
11/03/2013  18:15:00     -127.625      136.435      -35.421       63.589       74.553       39.348     4043.519     5558.213     1548.284        2.365        0.558      186.823       41.283        0.049      335.053        5.431      858.867
11/03/2013  18:16:00      -91.772      114.846      -18.718       56.379       43.494       30.770     3178.641     1891.718      946.766        1.399        0.301      147.010       13.818        0.009      335.064        5.450      858.864
11/03/2013  18:17:00     -121.289      143.273      -36.742       46.331       58.301       29.165     2146.527     3398.951      850.603        2.149        0.320      187.718       27.148        0.021      335.070        5.460      858.852
11/03/2013  18:18:00     -140.636      149.398      -29.224       63.478       57.474       41.500     4029.452     3303.206     1722.262        2.600        0.453      205.179       40.209        0.038      335.065        5.451      858.843
11/03/2013  18:19:00     -104.279      147.310      -16.072       56.126       83.379       41.626     3150.116     6952.025     1732.763        2.233        0.592      180.484       49.794        0.076      335.038        5.406      858.831
11/03/2013  18:20:00     -130.617      167.452      -22.583       65.333       78.949       39.487     4268.432     6232.966     1559.206        2.883        0.603      212.370       41.955        0.039      335.043        5.413      858.830
11/03/2013  18:21:00      -80.265      147.720      -14.958       40.202       57.423       35.013     1616.182     3297.447     1225.924        1.731        0.307      168.118       32.456        0.037      335.028        5.391      858.822
11/03/2013  18:22:00      -77.971      131.420      -23.121       40.414       68.507       26.816     1633.308     4693.160      719.083        1.546        0.352      152.809       24.663        0.026      335.062        5.447      858.812
11/03/2013  18:23:00      -47.676      106.878       -0.892       50.619       51.121       34.812     2562.257     2613.361     1211.892        1.004        0.319      117.030       28.914        0.061      335.087        5.488      858.799
11/03/2013  18:24:00      -77.144      100.345      -18.638       56.683       61.674       31.839     3212.972     3803.703     1013.702        1.220        0.402      126.572       27.405        0.047      335.088        5.490      858.788
11/03/2013  18:25:00      -98.383      197.750      -22.963       64.550       73.975       39.561     4166.674     5472.293     1565.068        3.026        0.560      220.872       39.013        0.031      335.075        5.466      858.789
11/03/2013  18:26:00      -85.932      192.437      -17.152       44.780       60.160       33.708     2005.220     3619.222     1136.220        2.573        0.338      210.752       30.247        0.021      335.063        5.447      858.793
11/03/2013  18:27:00      -99.148      197.162      -32.428       51.636      107.503       33.214     2666.272    11556.853     1103.194        3.254        0.766      220.688       27.961        0.016      335.067        5.454      858.800
11/03/2013  18:28:00     -119.405      250.938      -39.518       79.084       92.256       46.780     6254.334     8511.174     2188.401        4.787        0.848      277.898       49.511        0.032      335.024        5.382      858.821
11/03/2013  18:29:00     -139.459      192.374      -39.798       77.758       62.562       34.895     6046.344     3914.008     1217.628        3.461        0.559      237.606       31.493        0.018      335.034        5.398      858.845
11/03/2013  18:30:00      -72.013      139.071      -10.893       53.923       94.288       40.290     2907.663     8890.279     1623.281        1.903        0.671      156.610       44.995        0.083      335.027        5.389      858.856
11/03/2013  18:31:00      -77.258      112.140      -19.118       71.456       59.914       32.280     5105.927     3589.725     1042.010        1.432        0.487      136.177       28.594        0.044      335.069        5.458      858.839
11/03/2013  18:32:00      -85.704      192.593      -25.338       65.493       63.945       39.499     4289.370     4088.963     1560.170        2.751        0.497      210.801       42.222        0.040      335.056        5.435      858.821
11/03/2013  18:33:00     -104.744      216.176      -27.722       84.736       89.086       47.374     7180.132     7936.377     2244.249        3.791        0.868      240.216       43.672        0.033      335.022        5.378      858.829
11/03/2013  18:34:00      -76.316      195.211      -26.329       66.323       78.613       36.140     4398.706     6179.990     1306.096        2.825        0.594      209.598       31.085        0.022      335.057        5.436      858.848
11/03/2013  18:35:00      -79.535      176.345      -22.076       51.346       68.517       33.254     2636.414     4694.528     1105.857        2.317        0.422      193.451       27.465        0.020      335.050        5.424      858.856
11/03/2013  18:36:00     -100.916      127.504      -16.493       66.589       49.656       37.228     4434.045     2465.730     1385.899        1.750        0.414      162.608       39.632        0.059      335.075        5.467      858.862
11/03/2013  18:37:00      -79.390      137.809      -18.522       43.028       91.321       37.618     1851.406     8339.566     1415.108        1.862        0.580      159.041       35.554        0.050      335.096        5.503      858.879
11/03/2013  18:38:00     -108.044       86.011      -16.978       51.298       58.238       31.891     2631.501     3391.635     1017.031        1.320        0.352      138.099       26.232        0.036      335.076        5.470      858.887
11/03/2013  18:39:00     -122.122      138.988      -25.136       71.198       68.800       43.134     5069.094     4733.406     1860.547        2.326        0.583      185.018       46.862        0.064      335.041        5.411      858.891
11/03/2013  18:40:00      -45.215      125.787      -17.519       40.733       81.852       26.130     1659.168     6699.756      682.779        1.361        0.452      133.667       30.998        0.054      335.065        5.451      858.899
11/03/2013  18:41:00      -61.899       81.819       -9.714       44.879       47.921       36.177     2014.091     2296.386     1308.761        0.812        0.281      102.595       27.060        0.070      335.135        5.567      858.918
11/03/2013  18:42:00      -50.461      102.191       -5.973       49.697       52.722       32.749     2469.827     2779.577     1072.478        0.967        0.316      113.970       22.659        0.040      335.075        5.469      858.943
11/03/2013  18:43:00      -93.296      198.513      -26.449       50.331       55.355       36.161     2533.221     3064.144     1307.643        2.786        0.345      219.344       30.035        0.019      335.109        5.523      858.952
11/03/2013  18:44:00      -87.723      151.420      -26.033       41.350       56.940       32.116     1709.782     3242.207     1031.443        1.864        0.299      174.996       24.652        0.020      335.069        5.460      858.964
11/03/2013  18:45:00      -42.206      168.544      -18.684       46.595       62.303       29.067     2171.071     3881.675      844.919        1.872        0.345      173.749       15.566        0.008      335.109        5.526      858.980
11/03/2013  18:46:00      -57.128      135.030      -21.079       50.228       45.378       35.966     2522.851     2059.170     1293.525        1.391        0.294      146.617       17.987        0.015      335.190        5.659      858.981
11/03/2013  18:47:00     -105.551      143.838      -22.703       45.345       71.756       34.843     2056.200     5148.919     1214.013        2.038        0.421      178.411       38.467        0.046      335.092        5.495      858.977
11/03/2013  18:48:00       -5.530      177.684      -21.379       43.160       44.226       25.821     1862.801     1955.976      666.740        1.827        0.224      177.770       17.332        0.010      335.119        5.542      858.977
11/03/2013  18:49:00      -51.807      120.917      -13.059       36.335       69.884       26.188     1320.248     4883.713      685.832        1.218        0.344      131.548       16.575        0.016      335.172        5.630      858.980
11/03/2013  18:50:00      -47.303      184.052      -17.428       40.446       58.996       28.088     1635.916     3480.547      788.918        2.116        0.295      190.033       22.733        0.014      335.197        5.670      858.985
11/03/2013  18:51:00      -34.080       77.845       -3.412       28.628       44.654       23.322      819.581     1993.952      543.904        0.529        0.168       84.978       19.483        0.053      335.240        5.741      858.989
11/03/2013  18:52:00      -96.176      111.048      -23.872       46.154       35.751       31.122     2130.219     1278.099      968.596        1.326        0.219      146.906       26.408        0.032      335.163        5.615      858.994
11/03/2013  18:53:00      -71.889       64.323      -15.074       49.439       37.407       28.151     2444.228     1399.288      792.465        0.708        0.232       96.465       21.925        0.052      335.155        5.601      858.999
11/03/2013  18:54:00     -145.943      112.096      -32.547       55.780       56.180       30.221     3111.414     3156.248      913.339        2.105        0.359      184.024       25.005        0.018      335.081        5.477      859.010
11/03/2013  18:55:00     -165.778      130.459      -47.402       44.846       47.655       23.636     2011.206     2271.011      558.675        2.579        0.242      210.955       18.242        0.007      335.018        5.373      859.010
11/03/2013  18:56:00      -95.371       97.301      -21.712       55.693       75.536       33.094     3101.676     5705.626     1095.197        1.447        0.495      136.247       27.057        0.039      335.019        5.374      859.004
11/03/2013  18:57:00      -74.568      118.685      -12.837       63.502       78.022       37.024     4032.509     6087.387     1370.804        1.565        0.575      140.166       37.729        0.072      335.064        5.449      858.982
11/03/2013  18:58:00      -71.381      135.968      -19.231       61.728       51.295       31.931     3810.331     2631.154     1019.589        1.571        0.373      153.566       28.733        0.035      335.084        5.483      858.965
11/03/2013  18:59:00      -45.102      117.638      -11.376       33.752       54.500       26.322     1139.207     2970.234      692.829        1.040        0.240      125.987       27.269        0.047      335.103        5.515      858.950
11/03/2013  19:00:00      -60.503       73.169       -6.524       48.999       41.488       26.282     2400.927     1721.234      690.755        0.693        0.241       94.944       19.095        0.040      335.036        5.405      858.939
11/03/2013  19:01:00      -88.326      136.167      -22.364       47.717       59.275       38.969     2276.938     3513.493     1518.596        1.707        0.365      162.305       36.135        0.050      334.989        5.326      858.934
11/03/2013  19:02:00     -102.322      122.323      -14.268       51.508       54.567       30.488     2653.121     2977.538      929.535        1.610        0.328      159.476       23.210        0.021      335.030        5.395      858.930
11/03/2013  19:03:00     -113.437      113.426      -27.911       39.642       63.213       31.038     1571.512     3995.827      963.378        1.652        0.327      160.416       37.211        0.054      335.038        5.407      858.929
11/03/2013  19:04:00     -114.876      100.875      -25.487       55.452       58.861       34.779     3074.888     3464.637     1209.575        1.588        0.387      152.880       35.817        0.055      335.023        5.382      858.929
11/03/2013  19:05:00     -124.468      140.738      -23.980       68.038       91.828       40.735     4629.180     8432.434     1659.324        2.530        0.736      187.881       43.215        0.053      334.989        5.325      858.921
11/03/2013  19:06:00      -89.506       70.371      -11.872       40.208       39.717       25.753     1616.716     1577.438      663.218        0.848        0.193      113.857       20.701        0.033      335.032        5.397      858.919
11/03/2013  19:07:00     -133.278      111.788      -27.230       67.864       66.472       37.048     4605.485     4418.501     1372.547        2.070        0.520      173.953       43.610        0.063      335.039        5.408      858.905
11/03/2013  19:08:00      -79.494      125.094       -6.204       69.200       51.487       35.796     4788.596     2650.881     1281.372        1.536        0.436      148.216       30.526        0.042      335.051        5.429      858.895
11/03/2013  19:09:00     -114.110      103.765      -15.705       63.981       56.671       34.374     4093.603     3211.631     1181.569        1.626        0.424      154.235       37.381        0.059      335.032        5.398      858.891
11/03/2013  19:10:00     -120.116      163.869      -34.567       44.186       56.891       32.678     1952.432     3236.610     1067.860        2.437        0.313      203.177       27.076        0.018      335.039        5.408      858.885
11/03/2013  19:11:00      -81.483      135.290      -17.935       32.704       57.119       33.206     1069.582     3262.618     1102.614        1.535        0.272      157.933       17.745        0.013      335.063        5.449      858.869
11/03/2013  19:12:00      -63.262       68.893      -14.096       42.859       53.961       21.882     1836.871     2911.800      478.814        0.709        0.261       93.533       19.676        0.044      335.117        5.539      858.848
11/03/2013  19:13:00     -125.877      141.439      -31.085       36.086       70.920       33.009     1302.226     5029.604     1089.571        2.212        0.371      189.341       27.789        0.022      335.065        5.451      858.842
11/03/2013  19:14:00     -109.582      101.158      -14.790       46.732       72.700       31.860     2183.892     5285.285     1015.089        1.547        0.424      149.134       37.555        0.063      335.077        5.471      858.843
11/03/2013  19:15:00      -60.397      117.084      -17.313       49.042       49.611       32.547     2405.129     2461.225     1059.300        1.179        0.296      131.744       28.309        0.046      335.110        5.527      858.839
11/03/2013  19:16:00      -64.474       99.063      -13.090       61.555       75.264       30.237     3789.053     5664.741      914.252        1.225        0.518      118.196       31.931        0.073      335.140        5.576      858.828
11/03/2013  19:17:00      -57.837       96.066       -5.271       38.720       48.097       37.507     1499.218     2313.309     1406.790        0.891        0.261      112.133       27.515        0.060      335.130        5.561      858.818
11/03/2013  19:18:00     -112.337       95.149      -28.689       61.692       45.933       26.793     3805.885     2109.823      717.886        1.456        0.332      147.218       21.510        0.021      335.097        5.505      858.808
11/03/2013  19:19:00      -87.770       56.798      -11.605       40.411       45.382       26.174     1633.047     2059.556      685.072        0.772        0.219      104.544       25.615        0.060      335.093        5.500      858.806
11/03/2013  19:20:00      -11.802       77.717        5.892       27.890       40.866       29.398      777.866     1669.994      864.266        0.476        0.166       78.608       26.891        0.117      335.133        5.566      858.810
11/03/2013  19:21:00        6.469       65.847        8.705       27.387       40.444       27.088      750.068     1635.695      733.748        0.379        0.156       66.164       25.082        0.144      335.138        5.574      858.817
11/03/2013  19:22:00       28.171       91.928      -14.695       41.275       56.427       25.695     1703.620     3184.022      660.249        0.750        0.277       96.147       30.086        0.098      335.060        5.446      858.816
11/03/2013  19:23:00        8.313      111.852      -10.534       33.064       42.902       31.915     1093.258     1840.554     1018.582        0.832        0.198      112.160       26.633        0.056      335.003        5.350      858.826
11/03/2013  19:24:00       11.232      104.468      -12.912       24.197       31.661       21.708      585.479     1002.408      471.217        0.663        0.103      105.070       19.668        0.035      335.014        5.367      858.828
11/03/2013  19:25:00      -35.136       79.920      -13.555       30.299       45.140       19.314      918.056     2037.590      373.020        0.557        0.166       87.303       13.591        0.024      335.115        5.534      858.830
11/03/2013  19:26:00      -29.172       41.612       -1.524       21.295       27.971       19.031      453.497      782.369      362.175        0.209        0.080       50.819       14.412        0.080      335.129        5.557      858.827
11/03/2013  19:27:00        9.488       47.872       -5.325       16.427       21.880       15.101      269.841      478.754      228.051        0.169        0.049       48.803       12.905        0.070      335.039        5.410      858.815
11/03/2013  19:28:00      -53.237      104.131      -25.783       48.767       85.941       33.768     2378.213     7385.831     1140.270        1.262        0.545      116.950       49.154        0.177      335.068        5.455      858.807
11/03/2013  19:29:00      -79.274       91.521      -19.081       62.683       52.478       31.459     3929.118     2753.938      989.693        1.135        0.384      121.080       40.142        0.110      335.024        5.384      858.800
11/03/2013  19:30:00      -10.220       93.774       -3.175       36.759       35.055       24.357     1351.252     1228.881      593.263        0.604        0.159       94.329       22.677        0.058      335.111        5.530      858.806
11/03/2013  19:31:00      -29.417      118.387       -6.333       39.643       40.739       25.218     1571.565     1659.643      635.926        0.939        0.193      121.987       23.100        0.036      335.108        5.523      858.814
11/03/2013  19:32:00       -8.511       59.207       -7.214       26.620       28.844       17.952      708.636      831.969      322.288        0.275        0.093       59.816       16.364        0.075      335.106        5.520      858.821
11/03/2013  19:33:00      -95.537       93.435      -17.765       62.595       64.109       29.052     3918.096     4109.954      843.997        1.352        0.444      133.632       28.996        0.047      335.088        5.490      858.827
11/03/2013  19:34:00      -60.081      118.899       -7.934       44.866       78.282       34.528     2012.977     6128.010     1192.150        1.357        0.467      133.217       28.312        0.045      335.028        5.391      858.825
11/03/2013  19:35:00     -117.681      190.490      -29.252       57.345       54.891       36.019     3288.469     3013.068     1297.396        2.929        0.380      223.910       33.039        0.022      334.956        5.268      858.824
11/03/2013  19:36:00      -81.120      127.148      -27.235       39.656       49.616       26.570     1572.631     2461.708      705.977        1.411        0.237      150.821       26.578        0.031      334.984        5.318      858.821
11/03/2013  19:37:00      -79.040      136.347      -24.445       43.528       51.001       30.549     1894.666     2601.069      933.225        1.543        0.271      157.600       32.782        0.043      335.083        5.481      858.821
11/03/2013  19:38:00      -23.727      149.505      -22.888       31.834       28.309       21.597     1013.381      801.382      466.422        1.286        0.114      151.376       14.112        0.009      334.956        5.271      858.837
11/03/2013  19:39:00      -14.851      115.989      -16.973       41.742       32.435       19.593     1742.415     1052.051      383.870        0.857        0.159      116.936       11.812        0.010      335.007        5.358      858.846
11/03/2013  19:40:00      -35.525      167.337      -16.694       53.157       84.129       26.098     2825.696     7077.727      681.093        2.006        0.529      171.066       22.677        0.018      334.963        5.282      858.853
11/03/2013  19:41:00      -58.343      170.638      -20.906       35.280       52.800       24.700     1244.650     2787.795      610.110        1.880        0.232      180.337       17.512        0.009      334.994        5.334      858.858
11/03/2013  19:42:00      -74.399      117.540      -19.377       33.156       43.122       22.329     1099.348     1859.525      498.568        1.159        0.173      139.107       18.524        0.018      334.986        5.321      858.861
11/03/2013  19:43:00      -64.067      162.405      -26.042       49.710       61.848       23.681     2471.102     3825.116      560.774        1.901        0.343      174.585       18.174        0.011      335.011        5.361      858.856
11/03/2013  19:44:00     -112.498       68.588      -23.880       40.655       39.203       28.320     1652.866     1536.868      802.027        1.096        0.200      131.758       29.545        0.050      334.995        5.336      858.855
11/03/2013  19:45:00      -67.147      116.184      -19.306       40.207       54.431       25.445     1616.622     2962.739      647.443        1.180        0.261      134.192       31.112        0.054      334.987        5.322      858.869
11/03/2013  19:46:00      -62.871       76.836      -19.624       39.014       40.300       23.731     1522.126     1624.084      563.170        0.697        0.185       99.280       24.696        0.062      335.042        5.414      858.878
11/03/2013  19:47:00      -26.679      153.248      -13.981       23.861       28.681       16.878      569.337      822.602      284.868        1.303        0.084      155.553       14.081        0.008      335.016        5.371      858.888
11/03/2013  19:48:00      -33.065      149.361      -17.843       39.646       57.339       24.229     1571.839     3287.774      587.051        1.458        0.272      152.977       29.024        0.036      335.068        5.455      858.902
11/03/2013  19:49:00      -23.293      131.080      -18.933       32.259       41.447       19.674     1040.611     1717.834      387.058        1.061        0.157      133.134       22.299        0.028      335.096        5.502      858.905
11/03/2013  19:50:00      -24.745      124.535      -16.872       35.101       55.158       18.664     1232.061     3042.378      348.329        1.051        0.231      126.969       23.308        0.034      335.041        5.411      858.916
11/03/2013  19:51:00      -22.949      134.515       -9.709       38.682       55.309       24.098     1496.281     3059.094      580.702        1.192        0.257      136.458       23.884        0.031      335.036        5.403      858.920
11/03/2013  19:52:00      -14.336      154.892      -21.765       29.338       28.129       15.834      860.720      791.215      250.710        1.329        0.095      155.554        6.706        0.002      334.975        5.301      858.928
11/03/2013  19:53:00      -68.454      175.605      -22.109       47.053       78.115       27.213     2213.992     6101.973      740.575        2.253        0.453      188.476       33.045        0.031      335.061        5.442      858.924
11/03/2013  19:54:00      -54.688      123.111      -11.192       48.365       53.650       22.987     2339.162     2878.322      528.381        1.201        0.287      134.711       15.613        0.013      335.164        5.616      858.915
11/03/2013  19:55:00      -42.768      150.004      -15.135       34.955       40.653       26.907     1221.875     1652.650      723.976        1.408        0.180      155.982       19.461        0.016      335.117        5.538      858.908
11/03/2013  19:56:00      -24.658      182.770      -10.914       52.941       79.702       40.817     2802.718     6352.349     1665.991        2.247        0.541      184.426       34.255        0.034      335.074        5.467      858.899
11/03/2013  19:57:00      -91.189      138.590      -21.161       42.062       57.930       28.677     1769.174     3355.855      822.375        1.696        0.297      165.899       26.642        0.026      335.071        5.463      858.893
11/03/2013  19:58:00      -64.561      124.819      -22.357       51.338       52.610       34.688     2635.615     2767.796     1203.280        1.343        0.330      140.527       32.628        0.054      335.081        5.479      858.879
11/03/2013  19:59:00      -45.290      187.929      -19.154       48.566       39.005       26.591     2358.608     1521.379      707.055        2.116        0.229      193.309       14.317        0.005      335.112        5.529      858.871
11/03/2013  20:00:00      -63.842      128.632      -15.886       58.936       38.696       28.837     3473.423     1497.342      831.580        1.334        0.290      143.603       26.418        0.034      335.062        5.446      858.866
11/03/2013  20:01:00      -70.411       99.258      -16.760       58.327       56.421       34.473     3402.069     3183.351     1188.378        1.143        0.389      121.696       36.401        0.089      335.120        5.543      858.855
11/03/2013  20:02:00      -50.236      178.888      -15.826       50.943       49.651       31.402     2595.218     2465.226      986.075        2.041        0.302      185.808       26.809        0.021      335.088        5.489      858.860
11/03/2013  20:03:00      -84.640      196.255      -19.121       39.484       49.209       36.646     1559.019     2421.498     1342.963        2.568        0.266      213.729       25.528        0.014      335.048        5.420      858.871
11/03/2013  20:04:00      -80.214      128.572       -6.112       55.767       51.076       42.622     3109.982     2608.745     1816.620        1.527        0.377      151.542       32.962        0.047      335.150        5.592      858.877
11/03/2013  20:05:00      -57.993      150.642      -15.475       50.208       57.080       32.877     2520.876     3258.109     1080.904        1.658        0.343      161.419       33.232        0.042      335.077        5.471      858.896
11/03/2013  20:06:00      -46.772      169.570      -21.466       46.458       45.418       27.122     2158.384     2062.791      735.628        1.818        0.248      175.902       22.126        0.016      335.095        5.503      858.906
11/03/2013  20:07:00      -31.927      216.014      -25.466       42.382       54.361       26.575     1796.225     2955.170      706.215        2.689        0.273      218.360       26.036        0.014      335.052        5.427      858.920
11/03/2013  20:08:00      -59.184      135.691       -2.961       52.357       84.729       33.844     2741.220     7178.952     1145.437        1.649        0.553      148.036       41.500        0.079      335.096        5.502      858.930
11/03/2013  20:09:00      -19.305      187.731      -19.930       38.696       56.333       34.360     1497.398     3173.454     1180.632        2.093        0.293      188.721       26.771        0.020      335.049        5.423      858.937
11/03/2013  20:10:00      -47.528      200.486      -16.955       41.799       98.943       33.461     1747.147     9789.675     1119.611        2.770        0.633      206.043       38.276        0.035      335.056        5.435      858.950
11/03/2013  20:11:00      -50.598      249.602      -28.996       37.086       44.581       27.628     1375.399     1987.482      763.297        3.491        0.206      254.679       23.700        0.009      334.998        5.338      858.958
11/03/2013  20:12:00      -24.898      189.556      -16.184       46.237       83.250       38.551     2137.880     6930.611     1486.197        2.368        0.528      191.184       45.109        0.056      335.047        5.421      858.964
11/03/2013  20:13:00      -39.265      235.455      -25.197       43.873       68.366       34.263     1924.836     4673.860     1173.953        3.269        0.389      238.707       32.140        0.018      335.031        5.394      858.965
11/03/2013  20:14:00      -44.237      196.678      -16.680       45.540       75.604       33.168     2073.864     5715.973     1100.143        2.490        0.444      201.591       28.646        0.020      335.062        5.447      858.970
11/03/2013  20:15:00      -62.379      200.740      -17.959       72.067       76.812       37.421     5193.602     5900.063     1400.295        2.850        0.625      210.209       38.126        0.033      335.032        5.394      858.984
11/03/2013  20:16:00      -76.245      213.862      -28.507       53.571       71.027       37.402     2869.887     5044.869     1398.906        3.084        0.466      227.046       30.885        0.019      335.056        5.435      858.986
11/03/2013  20:17:00      -33.857      222.007      -27.264       49.283      107.444       34.581     2428.816    11544.224     1195.856        3.317        0.758      224.574       45.246        0.041      335.044        5.415      858.992
11/03/2013  20:18:00      -31.152      240.582      -27.485       45.143       67.052       19.708     2037.875     4495.910      388.406        3.326        0.346      242.590       11.747        0.002      334.996        5.334      858.991
11/03/2013  20:19:00      -51.096      244.078      -30.125       45.031       59.312       29.079     2027.773     3517.881      845.586        3.474        0.320      249.369       27.996        0.013      335.014        5.363      859.004
11/03/2013  20:20:00      -51.777      185.717      -13.509       35.332       62.350       28.025     1248.319     3887.465      785.383        2.164        0.296      192.800       31.180        0.026      335.032        5.398      859.019
11/03/2013  20:21:00        0.257      138.217       -9.232       31.384       54.570       32.874      984.954     2977.853     1080.714        1.212        0.252      138.217       32.079        0.054      335.026        5.388      859.033
11/03/2013  20:22:00       -5.757      167.490      -22.430       33.503       62.287       25.283     1122.418     3879.617      639.216        1.711        0.282      167.589       28.279        0.028      335.004        5.349      859.032
11/03/2013  20:23:00      -46.269      222.190      -23.272       42.969       46.204       29.573     1846.370     2134.837      874.590        2.845        0.243      226.956       23.986        0.011      335.064        5.449      859.026
11/03/2013  20:24:00        2.140      152.100      -13.247       38.775       73.559       25.565     1503.488     5410.929      653.571        1.544        0.378      152.115       31.845        0.044      335.046        5.418      859.016
11/03/2013  20:25:00       41.473      121.938       -3.537       54.603       68.347       47.707     2981.435     4671.346     2275.942        1.326        0.496      128.798       44.355        0.119      334.941        5.246      858.992
11/03/2013  20:26:00       29.265       81.761        1.364       49.414       48.572       29.607     2441.764     2359.198      876.547        0.661        0.284       86.840       20.825        0.058      334.927        5.224      858.982
11/03/2013  20:27:00       44.291       67.278        6.594       28.062       32.575       27.483      787.458     1061.139      755.293        0.457        0.130       80.548       24.318        0.091      334.924        5.219      858.978
11/03/2013  20:28:00       45.230       52.798        6.778       44.652       42.598       31.450     1993.768     1814.585      989.089        0.484        0.240       69.522       32.212        0.215      334.924        5.218      858.981
11/03/2013  20:29:00       15.560       57.865       -0.115       30.116       40.921       29.094      906.952     1674.541      846.481        0.351        0.171       59.921       26.481        0.195      334.921        5.211      858.996
11/03/2013  20:30:00       -2.822       33.833        0.504       34.133       40.467       20.981     1165.064     1637.603      440.204        0.220        0.162       33.951       20.152        0.352      334.923        5.216      859.009
11/03/2013  20:31:00        5.165      135.413      -16.706       25.231       28.057       18.111      636.609      787.180      328.000        1.020        0.088      135.511       13.514        0.010      334.937        5.240      859.026
11/03/2013  20:32:00       15.858      146.060      -21.399       28.307       48.612       26.207      801.273     2363.087      686.813        1.295        0.193      146.918       25.060        0.029      334.985        5.318      859.033
11/03/2013  20:33:00       24.125       98.072      -15.679       27.963       40.767       22.540      781.909     1661.953      508.054        0.670        0.148      100.996       20.243        0.040      334.972        5.296      859.034
11/03/2013  20:34:00       29.567       29.208        2.566       26.862       21.218       15.693      721.593      450.215      246.255        0.158        0.071       41.560       13.627        0.108      334.940        5.245      859.039
11/03/2013  20:35:00       11.092      102.084      -12.358       19.666       27.344       17.902      386.750      747.694      320.482        0.608        0.073      102.685       11.878        0.013      334.957        5.270      859.046
11/03/2013  20:36:00       14.652       42.814       -2.614       30.117       32.191       18.823      907.008     1036.231      354.302        0.218        0.115       45.252       16.687        0.136      334.946        5.253      859.054
11/03/2013  20:37:00       12.861      102.935      -17.399       29.568       51.373       18.058      874.262     2639.174      326.103        0.745        0.192      103.735       25.800        0.062      334.961        5.279      859.063
11/03/2013  20:38:00        5.553      131.630      -19.924       17.773       27.146       12.491      315.894      736.897      156.031        0.948        0.060      131.747        9.687        0.005      334.965        5.284      859.075
11/03/2013  20:39:00       21.049      103.481      -13.503       26.617       28.258       20.143      708.486      798.505      405.744        0.662        0.096      105.600       15.156        0.021      334.957        5.270      859.084
11/03/2013  20:40:00       11.449      124.031      -15.945       29.992       36.293       21.715      899.531     1317.200      471.545        0.923        0.134      124.558       24.287        0.038      334.969        5.292      859.103
11/03/2013  20:41:00       -4.569      177.126      -24.642       33.895       52.012       21.274     1148.855     2705.207      452.601        1.815        0.215      177.185        9.302        0.003      335.061        5.445      859.118
11/03/2013  20:42:00       -7.656      116.164      -10.785       20.131       28.560       15.527      405.245      815.663      241.097        0.757        0.073      116.416        4.183        0.001      335.046        5.420      859.130
11/03/2013  20:43:00        7.391       71.948        1.816       31.158       50.850       29.794      970.820     2585.707      887.662        0.484        0.222       72.326       25.988        0.129      335.013        5.368      859.131
11/03/2013  20:44:00       36.980       76.749       -1.335       35.859       39.064       33.336     1285.844     1526.004     1111.301        0.559        0.196       85.194       30.726        0.130      334.989        5.325      859.128
11/03/2013  20:45:00       26.226       41.891       -7.790       25.093       25.095       15.192      629.671      629.764      230.792        0.200        0.075       49.423       13.202        0.071      334.968        5.288      859.125
11/03/2013  20:46:00       29.638       63.501      -12.530       18.162       25.638       12.491      329.869      657.326      156.019        0.311        0.057       70.077       13.401        0.037      334.991        5.330      859.121
11/03/2013  20:47:00       28.528       71.427       -0.088       41.783       34.779       26.287     1745.822     1209.549      690.985        0.478        0.182       76.913       18.988        0.061      334.981        5.311      859.120
11/03/2013  20:48:00       32.196      101.791      -11.679       26.007       32.029       24.300      676.342     1025.865      590.469        0.691        0.115      106.761       20.841        0.038      334.994        5.334      859.125
11/03/2013  20:49:00       59.060       60.924        3.960       44.064       34.145       22.868     1941.640     1165.848      522.957        0.542        0.182       84.851       19.708        0.054      334.977        5.306      859.129
11/03/2013  20:50:00       73.057       48.043        7.036       30.074       30.790       25.059      904.469      948.019      627.932        0.509        0.124       87.438       19.745        0.051      334.990        5.328      859.130
11/03/2013  20:51:00       62.882       58.081       -2.630       36.901       26.362       22.605     1361.678      694.967      510.967        0.495        0.128       85.601       16.226        0.036      334.977        5.307      859.128
11/03/2013  20:52:00       32.792       73.258       -1.135       32.471       36.155       24.608     1054.345     1307.190      605.576        0.470        0.148       80.262       22.685        0.080      334.981        5.312      859.132
11/03/2013  20:53:00       55.584       44.764        1.116       46.236       30.529       19.760     2137.797      931.990      390.458        0.428        0.173       71.368       17.828        0.062      334.975        5.301      859.144
11/03/2013  20:54:00       39.795       86.861       -5.643       36.366       66.432       32.800     1322.466     4413.183     1075.820        0.798        0.341       95.543       38.166        0.160      334.988        5.323      859.157
11/03/2013  20:55:00       10.047      100.569       -8.834       27.733       34.828       21.002      769.138     1212.973      441.104        0.636        0.121      101.070       15.911        0.025      335.016        5.371      859.177
11/03/2013  20:56:00       30.047       68.193       -7.438       29.124       42.784       23.064      848.186     1830.442      531.947        0.441        0.161       74.520       24.428        0.107      335.018        5.374      859.203
11/03/2013  20:57:00       38.503       85.922       -9.156       43.334       46.324       28.885     1877.877     2145.881      834.346        0.690        0.243       94.154       27.274        0.084      335.033        5.399      859.224
11/03/2013  20:58:00       69.647       59.109        3.731       41.896       20.554       23.366     1755.306      422.452      545.974        0.554        0.136       91.349       16.397        0.032      335.026        5.389      859.255
11/03/2013  20:59:00       46.639       40.845        4.487       33.418       29.642       24.561     1116.794      878.660      603.244        0.323        0.130       61.996       21.320        0.118      335.013        5.366      859.282
11/03/2013  21:00:00       29.401       42.876       -1.251       22.969       30.507       23.289      527.589      930.704      542.384        0.235        0.100       51.988       23.863        0.211      335.004        5.351      859.314
11/03/2013  21:01:00       30.615       68.683       -4.139       34.686       48.103       22.433     1203.127     2313.917      503.259        0.485        0.201       75.197       24.630        0.107      335.013        5.366      859.344
11/03/2013  21:02:00       21.087      122.987      -16.991       28.973       60.789       29.511      839.421     3695.293      870.893        1.063        0.270      124.781       32.013        0.066      335.041        5.413      859.371
11/03/2013  21:03:00        6.040      114.187      -14.993       18.830       50.905       19.542      354.583     2591.298      381.886        0.831        0.166      114.347       25.346        0.049      335.046        5.420      859.394
11/03/2013  21:04:00        8.462       64.161       -4.731       29.423       42.060       21.164      865.739     1769.075      447.923        0.365        0.154       64.716       23.653        0.134      335.042        5.414      859.413
11/03/2013  21:05:00       19.210      133.385      -14.797       38.247       44.044       30.388     1462.858     1939.874      923.435        1.135        0.216      134.761       28.400        0.044      335.021        5.380      859.419
11/03/2013  21:06:00       33.798       90.296       -4.819       37.783       41.358       30.875     1427.558     1710.462      953.260        0.670        0.205       96.414       28.556        0.088      335.018        5.375      859.423
11/03/2013  21:07:00      -17.898      139.572      -12.752       51.752       82.060       29.469     2678.232     6733.839      868.397        1.512        0.514      140.715       37.706        0.072      335.066        5.454      859.424
11/03/2013  21:08:00       30.192      134.328      -20.251       33.331       76.322       27.632     1110.946     5825.074      763.516        1.353        0.385      137.680       36.651        0.071      335.009        5.360      859.435
11/03/2013  21:09:00       13.224      120.313      -14.392       31.174       43.163       27.258      971.805     1863.065      742.975        0.922        0.179      121.037       27.357        0.051      334.989        5.327      859.444
11/03/2013  21:10:00       44.293       65.640        9.568       33.697       51.730       33.490     1135.474     2676.031     1121.550        0.565        0.247       79.186       28.048        0.125      334.989        5.326      859.456
11/03/2013  21:11:00       35.081      153.520      -22.441       36.235       45.559       26.620     1312.948     2075.619      708.627        1.470        0.205      157.477       22.160        0.020      334.992        5.331      859.466
11/03/2013  21:12:00      -22.933      129.163      -14.968       37.486       43.116       22.285     1405.237     1859.025      496.612        1.060        0.188      131.183       12.938        0.010      335.071        5.462      859.474
11/03/2013  21:13:00       -8.716      149.793      -11.330       39.072       67.948       25.966     1526.614     4616.863      674.228        1.473        0.341      150.046       29.524        0.039      335.031        5.394      859.468
11/03/2013  21:14:00       11.610      218.016      -32.678       26.890       33.750       16.128      723.094     1139.084      260.100        2.543        0.106      218.325       11.807        0.003      335.042        5.410      859.460
11/03/2013  21:15:00       -0.898      157.969      -18.364       19.129       32.448       15.569      365.914     1052.859      242.405        1.348        0.083      157.972       16.407        0.011      335.014        5.367      859.448
11/03/2013  21:16:00        7.298      139.564      -20.948       16.382       28.077       13.594      268.372      788.300      184.798        1.061        0.062      139.754       10.502        0.006      335.017        5.373      859.451
11/03/2013  21:17:00        8.726      140.436      -25.998       28.407       30.233       15.613      806.935      914.060      243.754        1.122        0.098      140.707       13.834        0.010      335.013        5.367      859.465
11/03/2013  21:18:00       -0.406      149.968      -20.618       30.815       40.205       15.147      949.575     1616.470      229.444        1.286        0.140      149.968       14.503        0.009      335.038        5.407      859.486
11/03/2013  21:19:00        9.846      121.862      -14.792       21.227       22.867       16.295      450.573      522.897      265.526        0.820        0.062      122.259       12.233        0.010      335.022        5.380      859.508
11/03/2013  21:20:00        2.005       96.139      -12.235       24.995       24.737       14.200      624.754      611.902      201.630        0.542        0.072       96.160       13.707        0.020      335.049        5.425      859.518
11/03/2013  21:21:00       -5.486       70.732       -1.657       18.130       36.493       15.038      328.704     1331.755      226.139        0.346        0.094       70.944       16.406        0.053      335.109        5.523      859.520
11/03/2013  21:22:00        6.480       29.159        5.949       13.919       19.925       11.875      193.742      396.993      141.026        0.083        0.037       29.871       10.458        0.123      335.051        5.430      859.515
11/03/2013  21:23:00       -1.979       56.776       -4.835       14.314       12.941       11.938      204.897      167.467      142.509        0.188        0.026       56.811        8.815        0.024      335.069        5.458      859.496
11/03/2013  21:24:00       -6.553       91.663      -12.414       31.240       24.821       18.515      975.917      616.065      342.811        0.527        0.097       91.897        9.735        0.011      335.112        5.529      859.484
11/03/2013  21:25:00        0.089      120.213      -18.927       21.096       34.998       12.226      445.055     1224.881      149.481        0.831        0.091      120.213       11.302        0.009      335.051        5.430      859.479
11/03/2013  21:26:00      -23.254      132.623      -15.144       21.952       32.689       12.837      481.883     1068.542      164.790        1.004        0.086      134.647        9.150        0.005      335.073        5.466      859.489
11/03/2013  21:27:00      -34.091      119.143      -18.102       16.596       41.644       20.646      275.438     1734.252      426.260        0.906        0.122      123.925       23.913        0.037      335.114        5.532      859.496
11/03/2013  21:28:00      -14.847       35.914       -0.527       19.173       20.705       12.290      367.598      428.717      151.055        0.123        0.047       38.862        6.349        0.027      335.110        5.525      859.487
11/03/2013  21:29:00      -34.069       58.502       -8.605       33.328       36.658       16.602     1110.750     1343.783      275.630        0.369        0.137       67.699       19.994        0.087      335.064        5.451      859.473
11/03/2013  21:30:00      -21.036      146.033      -19.070       14.218       15.809       13.117      202.145      249.939      172.058        1.138        0.031      147.541        5.717        0.002      335.041        5.413      859.461
11/03/2013  21:31:00      -10.803       95.057      -10.731       20.893       31.694       17.503      436.501     1004.500      306.360        0.551        0.087       95.669       10.358        0.012      335.202        5.680      859.451
11/03/2013  21:32:00      -26.880      107.079      -15.106       25.869       34.851       20.938      669.188     1214.563      438.390        0.737        0.116      110.401       20.086        0.033      335.168        5.624      859.449
11/03/2013  21:33:00      -16.116       91.546       -0.188       28.195       29.685       19.656      794.972      881.214      386.374        0.535        0.103       92.954       16.074        0.030      335.163        5.615      859.439
11/03/2013  21:34:00      -13.081      112.987      -14.396       21.677       20.556       14.747      469.909      422.533      217.462        0.713        0.055      113.741       12.208        0.012      335.044        5.417      859.429
11/03/2013  21:35:00      -19.377      122.275      -11.447       23.113       19.663       15.916      534.196      386.622      253.330        0.832        0.059      123.801       10.205        0.007      335.072        5.463      859.410
11/03/2013  21:36:00       -6.199      103.694      -12.687       27.955       32.081       10.605      781.484     1029.210      112.459        0.644        0.096      103.879        8.893        0.007      334.999        5.342      859.391
11/03/2013  21:37:00        5.496      114.843      -12.479       17.442       23.854       17.359      304.237      568.992      301.333        0.727        0.059      114.975       12.199        0.011      334.917        5.207      859.381
11/03/2013  21:38:00      -14.980      118.861      -14.069       18.189       26.854       13.551      330.855      721.136      183.637        0.789        0.062      119.801       10.358        0.007      334.921        5.211      859.375
11/03/2013  21:39:00      -11.907      101.161       -9.251       28.074       18.947       14.937      788.132      359.004      223.106        0.592        0.069      101.860       12.195        0.014      334.959        5.275      859.367
11/03/2013  21:40:00       16.794       30.038        1.842       13.873       22.886       13.853      192.466      523.777      191.911        0.105        0.045       34.414       14.030        0.166      334.871        5.130      859.357
11/03/2013  21:41:00        7.276       56.852      -10.146       19.562       22.818       10.282      382.668      520.656      105.717        0.220        0.050       57.316       10.344        0.033      334.862        5.115      859.346
11/03/2013  21:42:00        2.747       65.167       -9.219       13.234       14.341        9.629      175.144      205.677       92.716        0.241        0.024       65.225        8.521        0.017      334.900        5.178      859.331
11/03/2013  21:43:00       17.054       79.646      -14.099       12.059       21.537       12.401      145.431      463.861      153.779        0.380        0.038       81.451       14.062        0.030      334.857        5.109      859.315
11/03/2013  21:44:00        1.341       56.320       -7.386       12.994       15.596        7.381      168.839      243.244       54.483        0.185        0.023       56.336        8.371        0.022      334.848        5.093      859.308
11/03/2013  21:45:00       12.748       65.897       -6.760       12.125       11.212       10.112      147.004      125.700      102.245        0.246        0.019       67.119        6.202        0.009      334.869        5.128      859.300
11/03/2013  21:46:00       11.406       66.821       -8.441       10.068       16.009        6.584      101.363      256.272       43.347        0.253        0.020       67.787        4.959        0.005      334.860        5.112      859.303
11/03/2013  21:47:00       26.269       29.012       -0.983       20.166       14.582       10.025      406.675      212.629      100.507        0.113        0.036       39.138        9.866        0.064      334.799        5.008      859.310
11/03/2013  21:48:00       51.849       43.605       -8.375       14.064       14.193        9.977      197.792      201.443       99.545        0.258        0.025       67.748        7.371        0.012      334.799        5.010      859.313
11/03/2013  21:49:00       49.273       40.202       -1.089       25.108       14.050       14.915      630.416      197.390      222.452        0.255        0.053       63.593       10.962        0.030      334.751        4.930      859.312
11/03/2013  21:50:00       40.556       34.817       -3.228       14.723       18.531       13.576      216.769      343.416      184.297        0.181        0.037       53.451       12.401        0.054      334.743        4.916      859.320
11/03/2013  21:51:00       49.754       37.524        6.198       20.623       18.619       16.063      425.311      346.663      258.004        0.248        0.051       62.318       10.915        0.031      334.732        4.899      859.318
11/03/2013  21:52:00       30.976       47.278       -5.262       21.717       36.925       21.118      471.610     1363.448      445.960        0.275        0.114       56.522       17.144        0.092      334.727        4.890      859.326
11/03/2013  21:53:00       31.480       51.756       -4.484       35.515       40.629       20.117     1261.334     1650.681      404.686        0.350        0.166       60.578       18.489        0.093      334.735        4.904      859.331
11/03/2013  21:54:00       53.830       56.624       -7.289       35.255       26.231       24.136     1242.902      688.061      582.566        0.433        0.126       78.128       17.196        0.048      334.742        4.916      859.334
11/03/2013  21:55:00       54.538       53.419       -6.831       32.407       24.409       24.862     1050.184      595.784      618.120        0.407        0.113       76.342       18.813        0.061      334.764        4.952      859.331
11/03/2013  21:56:00       22.785       51.568       -7.299       20.304       24.048       14.503      412.240      578.311      210.332        0.222        0.060       56.377       12.847        0.052      334.723        4.883      859.323
11/03/2013  21:57:00       28.767       59.981       -9.185       17.351       31.361       19.287      301.048      983.520      371.983        0.308        0.083       66.523       20.151        0.092      334.728        4.893      859.305
11/03/2013  21:58:00       48.323       40.390        3.415       28.343       18.112       19.144      803.328      328.038      366.490        0.274        0.075       62.980       17.774        0.080      334.725        4.887      859.285
11/03/2013  21:59:00       39.297       29.996        7.027       26.076       23.401       21.415      679.963      547.603      458.611        0.209        0.084       49.437       16.962        0.118      334.738        4.910      859.251
11/03/2013  22:00:00       64.805       39.620        7.802       21.145       16.353       14.797      447.113      267.423      218.955        0.338        0.047       75.957       10.100        0.018      334.744        4.917      859.234
11/03/2013  22:01:00       43.715       31.937        1.766       14.931       15.166       14.044      222.923      229.993      197.238        0.179        0.033       54.138       10.730        0.039      334.728        4.892      859.224
11/03/2013  22:02:00       31.636       23.635        5.016       14.282        9.226        9.227      203.964       85.121       85.135        0.098        0.019       39.490        3.386        0.007      334.713        4.867      859.232
11/03/2013  22:03:00       37.310       44.688       -5.655       15.965       17.946       15.056      254.883      322.062      226.687        0.211        0.040       58.215       13.366        0.053      334.741        4.913      859.246
11/03/2013  22:04:00       33.950       64.306       -3.626       28.814       36.422       17.339      830.254     1326.558      300.643        0.388        0.123       72.718       17.032        0.055      334.777        4.973      859.254
11/03/2013  22:05:00       21.812       49.594       -6.207       28.694       22.551       20.394      823.329      508.548      415.914        0.236        0.087       54.179       13.960        0.066      334.740        4.914      859.263
11/03/2013  22:06:00       28.351       45.944       -1.563       20.403       28.969       16.103      416.265      839.211      259.308        0.222        0.076       53.988       11.992        0.049      334.732        4.898      859.270
11/03/2013  22:07:00       18.811       28.588       -4.212       15.758       18.212       11.384      248.313      331.682      129.592        0.095        0.035       34.222        8.746        0.065      334.713        4.866      859.257
11/03/2013  22:08:00       17.936       51.208       -2.539       19.210       32.139       17.813      369.005     1032.894      317.314        0.233        0.086       54.258       20.105        0.137      334.674        4.803      859.245
11/03/2013  22:09:00       23.094       79.288      -10.191       20.149       26.682       18.945      405.970      711.945      358.914        0.420        0.074       82.583       17.613        0.045      334.685        4.821      859.231
11/03/2013  22:10:00       20.290       74.726      -11.358       18.214       22.212       14.718      331.764      493.356      216.611        0.358        0.052       77.431       12.008        0.024      334.690        4.829      859.227
11/03/2013  22:11:00       13.117       61.890       -7.306       20.211       21.409       13.601      408.472      458.362      184.990        0.255        0.053       63.265        9.450        0.022      334.683        4.817      859.234
11/03/2013  22:12:00       17.627       49.634       -4.440       17.789       29.805       16.378      316.461      888.339      268.235        0.213        0.074       52.671       18.499        0.123      334.693        4.835      859.255
11/03/2013  22:13:00       20.100       60.944      -13.752       16.292       27.207       13.799      265.435      740.219      190.414        0.275        0.060       64.173       10.692        0.028      334.697        4.840      859.270
11/03/2013  22:14:00        5.018       31.006        3.655       16.256       27.174       17.586      264.254      738.442      309.255        0.116        0.066       31.409       17.159        0.298      334.677        4.809      859.276
11/03/2013  22:15:00       26.557       64.959       -6.129       17.239       16.969       15.289      297.190      287.942      233.764        0.289        0.041       70.178       13.994        0.040      334.703        4.852      859.282
11/03/2013  22:16:00       11.867       98.841       -8.537       17.315       25.659       12.880      299.794      658.374      165.886        0.555        0.056       99.551       10.710        0.012      334.710        4.862      859.290
11/03/2013  22:17:00        9.598      108.885      -16.092       14.934       15.579       10.818      223.037      242.712      117.028        0.639        0.029      109.307        3.855        0.001      334.724        4.883      859.303
11/03/2013  22:18:00       -6.653      103.701      -17.756        9.262       15.673        8.584       85.778      245.641       73.691        0.576        0.020      103.915        5.719        0.003      334.713        4.868      859.309
11/03/2013  22:19:00       10.184      106.811      -11.041       13.187       19.076        9.925      173.894      363.881       98.499        0.614        0.032      107.295        9.851        0.008      334.723        4.886      859.321
11/03/2013  22:20:00        7.062      123.906      -17.808       20.228       29.774       15.142      409.175      886.513      229.278        0.862        0.076      124.108       16.244        0.017      334.733        4.900      859.337
11/03/2013  22:21:00       -0.360      134.807      -23.485       20.470       20.227       16.221      419.026      409.117      263.121        0.991        0.055      134.807       10.569        0.006      334.718        4.875      859.354
11/03/2013  22:22:00       13.742      123.483      -15.839       34.981       20.061       16.548     1223.650      402.457      273.843        0.879        0.095      124.245       13.852        0.012      334.717        4.871      859.358
11/03/2013  22:23:00      -13.631      117.485      -16.169       24.235       21.801       11.761      587.336      475.297      138.317        0.773        0.060      118.274        5.942        0.003      334.714        4.869      859.357
11/03/2013  22:24:00       12.132      121.442      -19.126       19.499       24.597       16.262      380.226      605.029      264.468        0.826        0.062      122.047       14.623        0.014      334.682        4.817      859.361
11/03/2013  22:25:00        8.627      119.919      -17.650       16.603       19.860       12.622      275.666      394.407      159.320        0.780        0.041      120.229       10.035        0.007      334.683        4.817      859.365
11/03/2013  22:26:00       15.855       79.266      -12.776       23.375       22.077       15.020      546.376      487.386      225.613        0.398        0.063       80.837        9.122        0.013      334.665        4.787      859.357
11/03/2013  22:27:00       -7.835      106.852      -14.090       29.614       30.056       15.246      876.985      903.366      232.453        0.684        0.101      107.139       14.907        0.019      334.738        4.908      859.355
11/03/2013  22:28:00        4.068      104.532      -19.191       17.309       23.404       12.230      299.616      547.758      149.576        0.615        0.050      104.611        8.716        0.007      334.728        4.891      859.352
11/03/2013  22:29:00       17.532       98.726       -9.617       30.461       25.566       17.606      927.856      653.644      309.978        0.602        0.095      100.271       14.288        0.020      334.709        4.860      859.347
11/03/2013  22:30:00       19.994       73.962       -0.490       36.703       35.329       23.644     1347.095     1248.161      559.051        0.451        0.158       76.617       20.982        0.075      334.707        4.857      859.344
11/03/2013  22:31:00       27.872       52.099        1.398       21.349       33.420       21.447      455.781     1116.898      459.995        0.276        0.102       59.086       22.761        0.148      334.712        4.868      859.341
11/03/2013  22:32:00       13.232       61.097       -5.824       18.955       25.798       16.106      359.287      665.542      259.393        0.261        0.064       62.513        9.943        0.025      334.723        4.884      859.344
11/03/2013  22:33:00       19.106       40.464       -1.403       22.886       25.861       20.817      523.778      668.800      433.359        0.181        0.081       44.748       15.562        0.121      334.717        4.873      859.340
11/03/2013  22:34:00       19.051       66.028       -9.584       20.377       15.872       15.977      415.238      251.933      255.274        0.287        0.046       68.721       14.571        0.045      334.734        4.901      859.346
11/03/2013  22:35:00       18.841       39.229       -1.536       17.012       26.161       14.262      289.419      684.396      203.414        0.154        0.059       43.520       15.537        0.127      334.723        4.882      859.353
11/03/2013  22:36:00       23.821       51.151       -3.788       18.720       18.790       12.214      350.429      353.068      149.172        0.203        0.043       56.426        9.863        0.031      334.757        4.940      859.358
11/03/2013  22:37:00       21.250       42.888       -4.743       13.629       28.840       14.290      185.747      831.756      204.195        0.177        0.061       47.864       14.924        0.097      334.755        4.938      859.369
11/03/2013  22:38:00       18.636       38.025       -1.814       12.604       18.439       13.316      158.852      340.012      177.313        0.124        0.034       42.346        9.816        0.054      334.738        4.909      859.378
11/03/2013  22:39:00       22.146       21.066       -1.902       11.190       15.331        7.441      125.211      235.028       55.369        0.068        0.021       30.565        2.882        0.009      334.742        4.917      859.378
11/03/2013  22:40:00       39.855       27.399        2.718       19.874       17.115       12.489      394.963      292.927      155.980        0.160        0.042       48.365        9.600        0.039      334.778        4.975      859.388
11/03/2013  22:41:00       38.099       44.177        1.034       18.866       19.738       15.501      355.931      389.574      240.282        0.219        0.049       58.336       14.004        0.058      334.760        4.945      859.395
11/03/2013  22:42:00       29.868       87.740      -14.387       16.212       26.562       11.781      262.822      705.536      138.781        0.495        0.055       92.684       12.075        0.017      334.730        4.896      859.404
11/03/2013  22:43:00       16.282       69.807       -5.971       21.909       25.672       18.537      479.985      659.044      343.637        0.333        0.074       71.680       14.984        0.044      334.717        4.873      859.409
11/03/2013  22:44:00       15.132       97.679      -15.193       17.352       18.205       10.781      301.108      331.421      116.240        0.537        0.037       98.845        9.404        0.009      334.771        4.963      859.404
11/03/2013  22:45:00        9.772       87.179       -1.341       15.128       19.059       13.277      228.865      363.246      176.283        0.423        0.038       87.725       12.759        0.021      334.800        5.013      859.390
11/03/2013  22:46:00       44.148       40.739       11.615       28.105       25.398       21.166      789.902      645.066      447.988        0.281        0.094       60.073       18.096        0.091      334.733        4.901      859.398
11/03/2013  22:47:00       81.001       44.581        7.859       14.530       17.291       12.803      211.127      298.984      163.915        0.464        0.034       92.459        5.576        0.004      334.755        4.937      859.398
11/03/2013  22:48:00       93.575       46.619        2.167       20.612       15.827       18.418      424.850      250.507      339.229        0.597        0.051      104.545       11.021        0.011      334.720        4.878      859.381
11/03/2013  22:49:00       78.794       36.263        0.925       23.876       17.108       14.952      570.047      292.691      223.552        0.431        0.054       86.738        7.974        0.008      334.658        4.775      859.355
11/03/2013  22:50:00       62.259       40.985       10.567       19.495       17.436       15.333      380.068      304.015      235.107        0.329        0.046       74.538        6.696        0.008      334.654        4.771      859.329
11/03/2013  22:51:00       20.534       18.295        2.545       20.381       18.471       11.867      415.396      341.167      140.822        0.083        0.045       27.502        9.074        0.109      334.626        4.722      859.310
11/03/2013  22:52:00       28.000       24.843       -3.918       22.267       13.271        7.297      495.825      176.107       53.248        0.107        0.036       37.432        8.748        0.055      334.696        4.839      859.302
11/03/2013  22:53:00       32.021       46.575       -2.961       16.545       19.844       16.772      273.747      393.776      281.311        0.208        0.047       56.521       13.042        0.053      334.727        4.890      859.305
11/03/2013  22:54:00       23.887       18.112       18.100       35.445       18.724       16.865     1256.325      350.580      284.443        0.156        0.095       29.977        8.822        0.087      334.725        4.886      859.308
11/03/2013  22:55:00       70.974       67.554       24.797       39.343       31.102       30.749     1547.852      967.308      945.470        0.684        0.173       97.984       21.613        0.049      334.838        5.075      859.315
11/03/2013  22:56:00      137.313       74.639       27.482       44.635       25.351       24.704     1992.312      642.652      610.272        1.421        0.162      156.287       22.474        0.021      334.973        5.300      859.308
11/03/2013  22:57:00      132.217       72.415       26.095       24.040       29.741       29.367      577.915      884.551      862.399        1.287        0.116      150.749       12.339        0.007      334.941        5.246      859.311
11/03/2013  22:58:00       99.788       63.528        5.828       27.422       26.644       20.400      751.959      709.893      416.179        0.795        0.094      118.294       14.968        0.016      334.876        5.139      859.315
11/03/2013  22:59:00       76.031       52.684        4.132       46.253       30.913       21.464     2139.326      955.642      460.706        0.606        0.178       92.500       12.408        0.018      334.774        4.968      859.319
11/03/2013  23:00:00       34.777       45.730        4.391       25.289       28.387       20.501      639.553      805.809      420.299        0.259        0.093       57.451       16.749        0.085      334.716        4.871      859.328
11/03/2013  23:01:00       36.151       53.637        4.331       34.013       36.851       30.675     1156.870     1358.008      940.964        0.383        0.173       64.682       27.227        0.177      334.713        4.867      859.335
11/03/2013  23:02:00       41.241       52.078        4.392       36.634       43.113       30.433     1342.022     1858.747      926.190        0.428        0.206       66.431       25.819        0.151      334.716        4.873      859.331
11/03/2013  23:03:00       53.849       54.129        6.393       32.038       48.751       36.656     1026.424     2376.669     1343.639        0.531        0.237       76.352       34.756        0.207      334.735        4.903      859.328
11/03/2013  23:04:00       54.340       54.927       -1.349       39.182       34.849       31.249     1535.226     1214.440      976.490        0.485        0.186       77.264       21.392        0.077      334.737        4.907      859.332
11/03/2013  23:05:00       83.754       58.168       10.529       33.924       24.810       24.581     1150.870      615.557      604.235        0.644        0.119      101.971       13.083        0.016      334.706        4.856      859.334
11/03/2013  23:06:00       68.145       52.930       11.792       40.495       20.565       20.346     1639.845      422.928      413.945        0.503        0.124       86.286       15.901        0.034      334.671        4.797      859.338
11/03/2013  23:07:00      104.906       68.431       13.481       42.128       30.482       26.348     1774.800      929.123      694.230        0.963        0.170      125.251       18.811        0.023      334.739        4.910      859.339
11/03/2013  23:08:00       63.429       72.787        1.059       41.314       33.639       29.631     1706.815     1131.576      878.010        0.652        0.186       96.546       22.296        0.053      334.732        4.898      859.341
11/03/2013  23:09:00       93.050       55.694       22.334       41.252       36.404       29.826     1701.705     1325.277      889.618        0.809        0.196      108.445       24.636        0.052      334.740        4.912      859.337
11/03/2013  23:10:00      108.797       75.032       12.586       39.999       32.847       33.824     1599.928     1078.909     1144.044        1.072        0.191      132.161       21.923        0.028      334.735        4.903      859.333
11/03/2013  23:11:00       83.803       62.823        0.212       37.893       25.479       25.953     1435.910      649.192      673.580        0.686        0.138      104.736       15.367        0.022      334.721        4.881      859.328
11/03/2013  23:12:00       68.991       57.814        9.005       30.680       23.124       25.164      941.243      534.708      633.212        0.515        0.105       90.013       13.662        0.023      334.724        4.886      859.328
11/03/2013  23:13:00       76.801       72.337        6.731       45.499       37.463       36.658     2070.146     1403.448     1343.796        0.800        0.241      105.504       29.339        0.077      334.749        4.926      859.332
11/03/2013  23:14:00       77.805       47.212        8.939       33.868       25.503       27.766     1147.013      650.416      770.925        0.547        0.128       91.009       18.249        0.040      334.744        4.920      859.336
11/03/2013  23:15:00      100.557       54.061       14.243       39.127       26.129       23.843     1530.959      682.724      568.491        0.801        0.139      114.168       14.518        0.016      334.752        4.932      859.331
11/03/2013  23:16:00       51.899       27.055       10.710       46.812       33.752       19.368     2191.339     1139.230      375.101        0.362        0.185       58.528       19.285        0.109      334.724        4.886      859.323
11/03/2013  23:17:00       46.518       44.784        2.055       36.219       27.787       20.663     1311.826      772.143      426.964        0.334        0.126       64.572       14.045        0.047      334.715        4.870      859.314
11/03/2013  23:18:00       46.443       39.004        4.931       26.572       21.772       18.198      706.084      474.001      331.182        0.261        0.076       60.649       13.304        0.048      334.721        4.880      859.304
11/03/2013  23:19:00       32.330       55.581       -5.102       23.343       31.195       22.650      544.913      973.100      513.013        0.310        0.102       64.300       23.744        0.136      334.715        4.869      859.289
11/03/2013  23:20:00       27.884       75.263       -7.894       19.241       36.021       20.228      370.223     1297.525      409.172        0.429        0.104       80.262       14.958        0.035      334.740        4.913      859.276
11/03/2013  23:21:00       42.351       39.336       -1.921       27.511       24.579       21.367      756.879      604.144      456.529        0.258        0.091       57.801       19.010        0.108      334.719        4.877      859.272
11/03/2013  23:22:00       67.258       45.190        4.763       19.630       18.253       21.742      385.336      333.173      472.733        0.389        0.060       81.029       14.107        0.030      334.730        4.895      859.263
11/03/2013  23:23:00       79.280       41.741        2.510       19.966       23.722       16.131      398.654      562.733      260.215        0.463        0.061       89.597        9.331        0.011      334.731        4.896      859.265
11/03/2013  23:24:00       56.742       36.884       12.021       46.395       25.626       19.156     2152.480      656.674      366.950        0.395        0.159       67.676       12.296        0.033      334.720        4.880      859.276
11/03/2013  23:25:00       62.037       42.847        6.817       28.285       24.542       24.982      800.042      602.295      624.092        0.388        0.101       75.395       18.060        0.057      334.702        4.850      859.286
11/03/2013  23:26:00       93.300       64.102       17.759       50.330       38.961       28.843     2533.142     1517.988      831.918        0.901        0.244      113.198       19.363        0.029      334.749        4.926      859.292
11/03/2013  23:27:00      115.306       57.693       10.704       38.182       28.407       21.569     1457.885      806.937      465.237        0.973        0.137      128.934       14.036        0.012      334.733        4.900      859.300
11/03/2013  23:28:00       89.253       47.136       20.406       41.788       30.993       24.938     1746.272      960.555      621.919        0.697        0.166      100.935       13.219        0.017      334.702        4.849      859.303
11/03/2013  23:29:00       56.753       43.243        7.863       29.962       23.574       19.376      897.728      555.733      375.439        0.349        0.091       71.350       12.674        0.032      334.677        4.807      859.302
11/03/2013  23:30:00       58.519       44.369        3.014       35.387       24.480       22.060     1252.207      599.248      486.653        0.387        0.117       73.438       16.706        0.052      334.680        4.813      859.300
11/03/2013  23:31:00       35.895       49.028       -1.780       29.065       28.218       24.931      844.750      796.258      621.546        0.298        0.113       60.764       18.154        0.089      334.685        4.822      859.290
11/03/2013  23:32:00       65.254       65.776       -0.607       45.922       42.052       36.437     2108.839     1768.365     1327.657        0.689        0.260       92.653       32.176        0.121      334.702        4.850      859.276
11/03/2013  23:33:00       75.527       65.940        8.155       34.059       37.781       34.102     1159.983     1427.397     1162.959        0.693        0.188      100.262       27.687        0.076      334.689        4.827      859.245
11/03/2013  23:34:00      121.530       94.142        9.363       37.300       24.361       30.323     1391.307      593.467      919.509        1.331        0.145      153.728       20.680        0.018      334.722        4.881      859.222
11/03/2013  23:35:00       99.060       58.443        9.194       37.107       25.991       22.489     1376.961      675.533      505.763        0.794        0.128      115.015       14.296        0.015      334.688        4.826      859.197
11/03/2013  23:36:00       69.697       47.739       -1.659       31.835       31.084       28.266     1013.442      966.184      798.988        0.496        0.139       84.479       20.981        0.062      334.704        4.852      859.172
11/03/2013  23:37:00       81.210       44.286        9.874       18.072       20.737       21.392      326.596      430.027      457.598        0.493        0.061       92.501        9.929        0.012      334.712        4.866      859.145
11/03/2013  23:38:00       88.712       53.715       20.525       30.573       25.974       21.890      934.707      674.661      479.169        0.663        0.104      103.707       12.364        0.014      334.689        4.828      859.118
11/03/2013  23:39:00       97.868       68.824       15.999       38.433       30.723       30.343     1477.122      943.932      920.709        0.896        0.167      119.645       13.731        0.013      334.714        4.868      859.095
11/03/2013  23:40:00      109.430       67.095       22.376       26.361       21.492       20.944      694.878      461.893      438.641        0.929        0.080      128.362       12.826        0.010      334.715        4.870      859.080
11/03/2013  23:41:00       89.215       33.878        7.830       35.598       24.469       20.076     1267.239      598.727      403.043        0.572        0.113       95.431       13.226        0.019      334.708        4.860      859.074
11/03/2013  23:42:00       41.200       29.422       20.890       19.153       15.208       18.752      366.828      231.290      351.634        0.197        0.047       50.627        9.989        0.039      334.668        4.792      859.063
11/03/2013  23:43:00       59.502       24.549       20.306       35.362       33.298       20.930     1250.502     1108.765      438.060        0.368        0.140       64.367       22.744        0.125      334.712        4.865      859.053
11/03/2013  23:44:00       60.930       31.655       15.288       28.440       22.431       22.519      808.851      503.153      507.115        0.338        0.091       68.663       15.039        0.048      334.682        4.816      859.036
11/03/2013  23:45:00      100.586       55.679       15.518       27.926       26.028       28.074      779.836      677.436      788.161        0.785        0.112      114.969        9.141        0.006      334.665        4.786      859.026
11/03/2013  23:46:00      109.271       68.253       14.989       35.668       32.429       24.526     1272.195     1051.665      601.529        0.987        0.146      128.835       13.871        0.012      334.680        4.813      859.004
11/03/2013  23:47:00      108.063       57.769       17.256       43.102       25.861       23.403     1857.760      668.790      547.692        0.919        0.154      122.535       11.714        0.009      334.679        4.810      858.981
11/03/2013  23:48:00      101.036       60.971       20.681       39.788       30.568       19.951     1583.067      934.397      398.059        0.863        0.146      118.007       13.792        0.014      334.670        4.795      858.965
11/03/2013  23:49:00       67.848       32.727       21.196       27.148       22.955       24.835      737.037      526.953      616.770        0.400        0.094       75.329       18.363        0.059      334.662        4.783      858.953
11/03/2013  23:50:00       81.840       35.861       13.269       40.049       31.711       24.237     1603.885     1005.590      587.451        0.568        0.160       89.352       15.468        0.030      334.667        4.789      858.944
11/03/2013  23:51:00       45.268       38.517       42.044       29.413       33.897       27.033      865.144     1149.034      730.809        0.402        0.137       59.437       27.922        0.221      334.664        4.786      858.948
11/03/2013  23:52:00       51.919       24.896       25.147       37.838       26.197       23.545     1431.690      686.260      554.381        0.331        0.134       57.579       23.122        0.161      334.637        4.741      858.947
11/03/2013  23:53:00      106.353       39.710       11.817       34.284       26.840       20.904     1175.398      720.362      436.974        0.768        0.117      113.525        8.334        0.005      334.644        4.751      858.952
11/03/2013  23:54:00       84.838       60.932       21.456       21.553       16.436       19.031      464.550      270.144      362.172        0.623        0.055      104.451       11.290        0.012      334.634        4.736      858.957
11/03/2013  23:55:00       80.243       52.703        5.451       25.869       15.022       28.927      669.222      225.664      836.771        0.549        0.087       96.003        9.569        0.010      334.632        4.733      858.964
11/03/2013  23:56:00       64.905       53.688       -1.629       20.995       20.590       19.818      440.800      423.952      392.770        0.418        0.063       84.232       16.614        0.039      334.608        4.692      858.966
11/03/2013  23:57:00       77.576       48.745        2.555       29.518       18.402       15.316      871.291      338.617      234.583        0.492        0.072       91.619       11.539        0.016      334.597        4.675      858.956
11/03/2013  23:58:00       46.689       23.002        5.882       24.693       19.966       16.260      609.740      398.640      264.378        0.201        0.064       52.047       10.587        0.041      334.585        4.654      858.941
11/03/2013  23:59:00       58.300       45.171        3.744       22.729       17.085       12.578      516.607      291.883      158.217        0.321        0.048       73.751        7.722        0.011      334.569        4.628      858.933
